<?xml version="1.0" encoding="UTF-8" standalone="no" ?>
<gpx xmlns="http://www.topografix.com/GPX/1/1" xmlns:xsi="http://www.w3.org/2001/XMLSchema-instance" xsi:schemaLocation="http://www.topografix.com/GPX/1/1 http://www.topografix.com/GPX/1/1/gpx.xsd" version="1.1" creator="VisuGPX - https://www.visugpx.com">
  <metadata>
    <name>Iffigenalp, Bühlberg, Lenk</name>
  </metadata>
  <trk>
    <name><![CDATA[Iffigenalp, Bühlberg, Lenk_1]]></name>
    <trkseg>
      <trkpt lat="46.40002" lon="7.44138">
        <ele>1583.59</ele>
        <time>2020-07-22T09:00:00.000Z</time>
      </trkpt>
      <trkpt lat="46.40013" lon="7.44154">
        <ele>1582.66</ele>
        <time>2020-07-22T09:00:03.268Z</time>
      </trkpt>
      <trkpt lat="46.40047" lon="7.44201">
        <ele>1578.79</ele>
        <time>2020-07-22T09:00:13.453Z</time>
      </trkpt>
      <trkpt lat="46.40077" lon="7.44241">
        <ele>1576.16</ele>
        <time>2020-07-22T09:00:21.681Z</time>
      </trkpt>
      <trkpt lat="46.40083" lon="7.4425">
        <ele>1575.63</ele>
        <time>2020-07-22T09:00:23.467Z</time>
      </trkpt>
      <trkpt lat="46.40088" lon="7.44259">
        <ele>1574.99</ele>
        <time>2020-07-22T09:00:25.195Z</time>
      </trkpt>
      <trkpt lat="46.40093" lon="7.44269">
        <ele>1574.37</ele>
        <time>2020-07-22T09:00:27.042Z</time>
      </trkpt>
      <trkpt lat="46.40096" lon="7.44275">
        <ele>1574.09</ele>
        <time>2020-07-22T09:00:28.158Z</time>
      </trkpt>
      <trkpt lat="46.40102" lon="7.44289">
        <ele>1573.24</ele>
        <time>2020-07-22T09:00:30.623Z</time>
      </trkpt>
      <trkpt lat="46.40106" lon="7.44305">
        <ele>1572.43</ele>
        <time>2020-07-22T09:00:33.167Z</time>
      </trkpt>
      <trkpt lat="46.40115" lon="7.4433">
        <ele>1571.19</ele>
        <time>2020-07-22T09:00:37.117Z</time>
      </trkpt>
      <trkpt lat="46.40122" lon="7.44349">
        <ele>1570.32</ele>
        <time>2020-07-22T09:00:40.261Z</time>
      </trkpt>
      <trkpt lat="46.40127" lon="7.44359">
        <ele>1569.68</ele>
        <time>2020-07-22T09:00:42.108Z</time>
      </trkpt>
      <trkpt lat="46.40134" lon="7.44372">
        <ele>1568.92</ele>
        <time>2020-07-22T09:00:44.574Z</time>
      </trkpt>
      <trkpt lat="46.40145" lon="7.44392">
        <ele>1567.56</ele>
        <time>2020-07-22T09:00:48.400Z</time>
      </trkpt>
      <trkpt lat="46.40176" lon="7.44445">
        <ele>1563.93</ele>
        <time>2020-07-22T09:00:58.791Z</time>
      </trkpt>
      <trkpt lat="46.40192" lon="7.44473">
        <ele>1561.77</ele>
        <time>2020-07-22T09:01:04.228Z</time>
      </trkpt>
      <trkpt lat="46.40199" lon="7.44485">
        <ele>1560.93</ele>
        <time>2020-07-22T09:01:06.578Z</time>
      </trkpt>
      <trkpt lat="46.40207" lon="7.44496">
        <ele>1560.11</ele>
        <time>2020-07-22T09:01:08.969Z</time>
      </trkpt>
      <trkpt lat="46.40215" lon="7.44507">
        <ele>1559.22</ele>
        <time>2020-07-22T09:01:11.359Z</time>
      </trkpt>
      <trkpt lat="46.40227" lon="7.44519">
        <ele>1558.03</ele>
        <time>2020-07-22T09:01:14.520Z</time>
      </trkpt>
      <trkpt lat="46.40252" lon="7.44544">
        <ele>1555.82</ele>
        <time>2020-07-22T09:01:21.105Z</time>
      </trkpt>
      <trkpt lat="46.40259" lon="7.4455">
        <ele>1555.24</ele>
        <time>2020-07-22T09:01:22.868Z</time>
      </trkpt>
      <trkpt lat="46.40267" lon="7.44556">
        <ele>1554.6</ele>
        <time>2020-07-22T09:01:24.821Z</time>
      </trkpt>
      <trkpt lat="46.40291" lon="7.44574">
        <ele>1552.67</ele>
        <time>2020-07-22T09:01:30.679Z</time>
      </trkpt>
      <trkpt lat="46.4029" lon="7.44574">
        <ele>1552.67</ele>
        <time>2020-07-22T09:01:31.609Z</time>
      </trkpt>
      <trkpt lat="46.40311" lon="7.44589">
        <ele>1550.75</ele>
        <time>2020-07-22T09:01:36.684Z</time>
      </trkpt>
      <trkpt lat="46.40338" lon="7.44608">
        <ele>1548.32</ele>
        <time>2020-07-22T09:01:43.192Z</time>
      </trkpt>
      <trkpt lat="46.40359" lon="7.44623">
        <ele>1546.91</ele>
        <time>2020-07-22T09:01:48.080Z</time>
      </trkpt>
      <trkpt lat="46.4037" lon="7.44631">
        <ele>1545.63</ele>
        <time>2020-07-22T09:01:50.748Z</time>
      </trkpt>
      <trkpt lat="46.40377" lon="7.44637">
        <ele>1545.01</ele>
        <time>2020-07-22T09:01:52.511Z</time>
      </trkpt>
      <trkpt lat="46.40383" lon="7.44644">
        <ele>1544.68</ele>
        <time>2020-07-22T09:01:54.378Z</time>
      </trkpt>
      <trkpt lat="46.40388" lon="7.44652">
        <ele>1544.1</ele>
        <time>2020-07-22T09:01:55.992Z</time>
      </trkpt>
      <trkpt lat="46.40392" lon="7.44659">
        <ele>1544.36</ele>
        <time>2020-07-22T09:02:05.387Z</time>
      </trkpt>
      <trkpt lat="46.404" lon="7.44675">
        <ele>1545.07</ele>
        <time>2020-07-22T09:02:27.842Z</time>
      </trkpt>
      <trkpt lat="46.40406" lon="7.44683">
        <ele>1544.83</ele>
        <time>2020-07-22T09:02:30.097Z</time>
      </trkpt>
      <trkpt lat="46.40412" lon="7.44691">
        <ele>1545.11</ele>
        <time>2020-07-22T09:02:41.150Z</time>
      </trkpt>
      <trkpt lat="46.40421" lon="7.44701">
        <ele>1545.12</ele>
        <time>2020-07-22T09:02:51.772Z</time>
      </trkpt>
      <trkpt lat="46.40431" lon="7.44709">
        <ele>1545.31</ele>
        <time>2020-07-22T09:03:04.294Z</time>
      </trkpt>
      <trkpt lat="46.40442" lon="7.44717">
        <ele>1544.93</ele>
        <time>2020-07-22T09:03:07.648Z</time>
      </trkpt>
      <trkpt lat="46.40453" lon="7.44723">
        <ele>1545.47</ele>
        <time>2020-07-22T09:03:26.252Z</time>
      </trkpt>
      <trkpt lat="46.40461" lon="7.44726">
        <ele>1545.43</ele>
        <time>2020-07-22T09:03:33.401Z</time>
      </trkpt>
      <trkpt lat="46.40469" lon="7.44727">
        <ele>1545.53</ele>
        <time>2020-07-22T09:03:41.824Z</time>
      </trkpt>
      <trkpt lat="46.40478" lon="7.44727">
        <ele>1545.43</ele>
        <time>2020-07-22T09:03:44.912Z</time>
      </trkpt>
      <trkpt lat="46.40503" lon="7.44726">
        <ele>1543.9</ele>
        <time>2020-07-22T09:03:50.096Z</time>
      </trkpt>
      <trkpt lat="46.40532" lon="7.44723">
        <ele>1542.77</ele>
        <time>2020-07-22T09:03:57.413Z</time>
      </trkpt>
      <trkpt lat="46.40532" lon="7.44723">
        <ele>1542.77</ele>
        <time>2020-07-22T09:03:57.413Z</time>
      </trkpt>
      <trkpt lat="46.4054" lon="7.44723">
        <ele>1541.65</ele>
        <time>2020-07-22T09:03:59.147Z</time>
      </trkpt>
      <trkpt lat="46.40564" lon="7.4472">
        <ele>1540.73</ele>
        <time>2020-07-22T09:04:05.249Z</time>
      </trkpt>
      <trkpt lat="46.40573" lon="7.44718">
        <ele>1540.67</ele>
        <time>2020-07-22T09:04:12.935Z</time>
      </trkpt>
      <trkpt lat="46.40584" lon="7.44713">
        <ele>1540.77</ele>
        <time>2020-07-22T09:04:24.573Z</time>
      </trkpt>
      <trkpt lat="46.40586" lon="7.44719">
        <ele>1540.05</ele>
        <time>2020-07-22T09:04:25.569Z</time>
      </trkpt>
      <trkpt lat="46.40591" lon="7.4472">
        <ele>1538.87</ele>
        <time>2020-07-22T09:04:26.664Z</time>
      </trkpt>
      <trkpt lat="46.40596" lon="7.44719">
        <ele>1537.95</ele>
        <time>2020-07-22T09:04:27.758Z</time>
      </trkpt>
      <trkpt lat="46.406" lon="7.44716">
        <ele>1536.83</ele>
        <time>2020-07-22T09:04:28.735Z</time>
      </trkpt>
      <trkpt lat="46.40604" lon="7.4471">
        <ele>1535.18</ele>
        <time>2020-07-22T09:04:29.982Z</time>
      </trkpt>
      <trkpt lat="46.40607" lon="7.44709">
        <ele>1533.98</ele>
        <time>2020-07-22T09:04:30.650Z</time>
      </trkpt>
      <trkpt lat="46.40611" lon="7.44702">
        <ele>1532.25</ele>
        <time>2020-07-22T09:04:32.009Z</time>
      </trkpt>
      <trkpt lat="46.4062" lon="7.44676">
        <ele>1531.62</ele>
        <time>2020-07-22T09:04:37.447Z</time>
      </trkpt>
      <trkpt lat="46.40623" lon="7.44672">
        <ele>1530.17</ele>
        <time>2020-07-22T09:04:38.331Z</time>
      </trkpt>
      <trkpt lat="46.40628" lon="7.44668">
        <ele>1529.89</ele>
        <time>2020-07-22T09:04:39.640Z</time>
      </trkpt>
      <trkpt lat="46.40632" lon="7.44665">
        <ele>1532.03</ele>
        <time>2020-07-22T09:04:55.782Z</time>
      </trkpt>
      <trkpt lat="46.40634" lon="7.44661">
        <ele>1531.71</ele>
        <time>2020-07-22T09:04:56.521Z</time>
      </trkpt>
      <trkpt lat="46.40634" lon="7.44661">
        <ele>1531.87</ele>
        <time>2020-07-22T09:04:56.521Z</time>
      </trkpt>
      <trkpt lat="46.40634" lon="7.44661">
        <ele>1531.71</ele>
        <time>2020-07-22T09:04:56.521Z</time>
      </trkpt>
      <trkpt lat="46.40637" lon="7.44652">
        <ele>1531.38</ele>
        <time>2020-07-22T09:04:58.118Z</time>
      </trkpt>
      <trkpt lat="46.40643" lon="7.44646">
        <ele>1530.06</ele>
        <time>2020-07-22T09:04:59.698Z</time>
      </trkpt>
      <trkpt lat="46.40655" lon="7.44633">
        <ele>1527.82</ele>
        <time>2020-07-22T09:05:02.946Z</time>
      </trkpt>
      <trkpt lat="46.40662" lon="7.44629">
        <ele>1526.89</ele>
        <time>2020-07-22T09:05:04.577Z</time>
      </trkpt>
      <trkpt lat="46.40665" lon="7.44628">
        <ele>1526.03</ele>
        <time>2020-07-22T09:05:05.244Z</time>
      </trkpt>
      <trkpt lat="46.40667" lon="7.44627">
        <ele>1525.36</ele>
        <time>2020-07-22T09:05:05.703Z</time>
      </trkpt>
      <trkpt lat="46.40672" lon="7.44625">
        <ele>1525.48</ele>
        <time>2020-07-22T09:05:11.820Z</time>
      </trkpt>
      <trkpt lat="46.40677" lon="7.44623">
        <ele>1524.8</ele>
        <time>2020-07-22T09:05:12.944Z</time>
      </trkpt>
      <trkpt lat="46.40682" lon="7.4462">
        <ele>1524.29</ele>
        <time>2020-07-22T09:05:14.117Z</time>
      </trkpt>
      <trkpt lat="46.40687" lon="7.44621">
        <ele>1524.09</ele>
        <time>2020-07-22T09:05:15.379Z</time>
      </trkpt>
      <trkpt lat="46.40688" lon="7.44623">
        <ele>1523.7</ele>
        <time>2020-07-22T09:05:15.748Z</time>
      </trkpt>
      <trkpt lat="46.4069" lon="7.44623">
        <ele>1522.81</ele>
        <time>2020-07-22T09:05:16.182Z</time>
      </trkpt>
      <trkpt lat="46.40693" lon="7.44622">
        <ele>1521.87</ele>
        <time>2020-07-22T09:05:16.849Z</time>
      </trkpt>
      <trkpt lat="46.40696" lon="7.44622">
        <ele>1521.03</ele>
        <time>2020-07-22T09:05:17.499Z</time>
      </trkpt>
      <trkpt lat="46.40698" lon="7.44623">
        <ele>1520.53</ele>
        <time>2020-07-22T09:05:17.958Z</time>
      </trkpt>
      <trkpt lat="46.407" lon="7.44625">
        <ele>1520.44</ele>
        <time>2020-07-22T09:05:18.580Z</time>
      </trkpt>
      <trkpt lat="46.40702" lon="7.44629">
        <ele>1520.29</ele>
        <time>2020-07-22T09:05:19.397Z</time>
      </trkpt>
      <trkpt lat="46.40705" lon="7.44633">
        <ele>1520.22</ele>
        <time>2020-07-22T09:05:20.693Z</time>
      </trkpt>
      <trkpt lat="46.40706" lon="7.44637">
        <ele>1520.46</ele>
        <time>2020-07-22T09:05:26.715Z</time>
      </trkpt>
      <trkpt lat="46.40709" lon="7.44641">
        <ele>1519.41</ele>
        <time>2020-07-22T09:05:27.599Z</time>
      </trkpt>
      <trkpt lat="46.40712" lon="7.44643">
        <ele>1517.9</ele>
        <time>2020-07-22T09:05:28.315Z</time>
      </trkpt>
      <trkpt lat="46.40714" lon="7.44644">
        <ele>1517.06</ele>
        <time>2020-07-22T09:05:28.774Z</time>
      </trkpt>
      <trkpt lat="46.40718" lon="7.44642">
        <ele>1516.25</ele>
        <time>2020-07-22T09:05:29.691Z</time>
      </trkpt>
      <trkpt lat="46.40726" lon="7.44639">
        <ele>1515.48</ele>
        <time>2020-07-22T09:05:31.483Z</time>
      </trkpt>
      <trkpt lat="46.40729" lon="7.44636">
        <ele>1515.28</ele>
        <time>2020-07-22T09:05:32.277Z</time>
      </trkpt>
      <trkpt lat="46.40731" lon="7.44633">
        <ele>1514.85</ele>
        <time>2020-07-22T09:05:32.901Z</time>
      </trkpt>
      <trkpt lat="46.40734" lon="7.44625">
        <ele>1512.86</ele>
        <time>2020-07-22T09:05:34.263Z</time>
      </trkpt>
      <trkpt lat="46.40738" lon="7.44616">
        <ele>1511.65</ele>
        <time>2020-07-22T09:05:35.864Z</time>
      </trkpt>
      <trkpt lat="46.40741" lon="7.4461">
        <ele>1510.94</ele>
        <time>2020-07-22T09:05:36.972Z</time>
      </trkpt>
      <trkpt lat="46.40745" lon="7.44608">
        <ele>1510.36</ele>
        <time>2020-07-22T09:05:37.889Z</time>
      </trkpt>
      <trkpt lat="46.40751" lon="7.44607">
        <ele>1509.03</ele>
        <time>2020-07-22T09:05:39.199Z</time>
      </trkpt>
      <trkpt lat="46.40755" lon="7.44608">
        <ele>1507.62</ele>
        <time>2020-07-22T09:05:40.079Z</time>
      </trkpt>
      <trkpt lat="46.40758" lon="7.44613">
        <ele>1506.55</ele>
        <time>2020-07-22T09:05:41.070Z</time>
      </trkpt>
      <trkpt lat="46.4076" lon="7.44622">
        <ele>1504.78</ele>
        <time>2020-07-22T09:05:42.483Z</time>
      </trkpt>
      <trkpt lat="46.40761" lon="7.44632">
        <ele>1501.55</ele>
        <time>2020-07-22T09:05:43.994Z</time>
      </trkpt>
      <trkpt lat="46.40761" lon="7.44639">
        <ele>1499.73</ele>
        <time>2020-07-22T09:05:45.041Z</time>
      </trkpt>
      <trkpt lat="46.40763" lon="7.44645">
        <ele>1498.83</ele>
        <time>2020-07-22T09:05:46.037Z</time>
      </trkpt>
      <trkpt lat="46.40771" lon="7.44655">
        <ele>1498.51</ele>
        <time>2020-07-22T09:05:48.933Z</time>
      </trkpt>
      <trkpt lat="46.40775" lon="7.4466">
        <ele>1497.06</ele>
        <time>2020-07-22T09:05:50.078Z</time>
      </trkpt>
      <trkpt lat="46.40775" lon="7.44659">
        <ele>1497.06</ele>
        <time>2020-07-22T09:05:50.719Z</time>
      </trkpt>
      <trkpt lat="46.40782" lon="7.44667">
        <ele>1495.61</ele>
        <time>2020-07-22T09:05:52.652Z</time>
      </trkpt>
      <trkpt lat="46.40787" lon="7.44671">
        <ele>1495.4</ele>
        <time>2020-07-22T09:05:54.118Z</time>
      </trkpt>
      <trkpt lat="46.40795" lon="7.44677">
        <ele>1495.13</ele>
        <time>2020-07-22T09:05:56.596Z</time>
      </trkpt>
      <trkpt lat="46.40799" lon="7.44677">
        <ele>1494.27</ele>
        <time>2020-07-22T09:05:57.464Z</time>
      </trkpt>
      <trkpt lat="46.40803" lon="7.44675">
        <ele>1494.82</ele>
        <time>2020-07-22T09:06:11.911Z</time>
      </trkpt>
      <trkpt lat="46.40809" lon="7.4467">
        <ele>1494.87</ele>
        <time>2020-07-22T09:06:18.798Z</time>
      </trkpt>
      <trkpt lat="46.40814" lon="7.44666">
        <ele>1494.78</ele>
        <time>2020-07-22T09:06:20.645Z</time>
      </trkpt>
      <trkpt lat="46.4082" lon="7.44662">
        <ele>1494.82</ele>
        <time>2020-07-22T09:06:27.142Z</time>
      </trkpt>
      <trkpt lat="46.40824" lon="7.44661">
        <ele>1494.78</ele>
        <time>2020-07-22T09:06:28.558Z</time>
      </trkpt>
      <trkpt lat="46.40829" lon="7.4466">
        <ele>1494.45</ele>
        <time>2020-07-22T09:06:29.571Z</time>
      </trkpt>
      <trkpt lat="46.40833" lon="7.44654">
        <ele>1494.5</ele>
        <time>2020-07-22T09:06:35.381Z</time>
      </trkpt>
      <trkpt lat="46.40837" lon="7.4465">
        <ele>1493.67</ele>
        <time>2020-07-22T09:06:36.435Z</time>
      </trkpt>
      <trkpt lat="46.40841" lon="7.44648">
        <ele>1493.42</ele>
        <time>2020-07-22T09:06:37.326Z</time>
      </trkpt>
      <trkpt lat="46.40848" lon="7.44646">
        <ele>1492.89</ele>
        <time>2020-07-22T09:06:38.873Z</time>
      </trkpt>
      <trkpt lat="46.40853" lon="7.4464">
        <ele>1492.39</ele>
        <time>2020-07-22T09:06:40.281Z</time>
      </trkpt>
      <trkpt lat="46.40859" lon="7.44634">
        <ele>1491.84</ele>
        <time>2020-07-22T09:06:41.861Z</time>
      </trkpt>
      <trkpt lat="46.40867" lon="7.44629">
        <ele>1491.56</ele>
        <time>2020-07-22T09:06:44.204Z</time>
      </trkpt>
      <trkpt lat="46.40876" lon="7.44626">
        <ele>1490.25</ele>
        <time>2020-07-22T09:06:46.207Z</time>
      </trkpt>
      <trkpt lat="46.40884" lon="7.44626">
        <ele>1488.6</ele>
        <time>2020-07-22T09:06:47.941Z</time>
      </trkpt>
      <trkpt lat="46.40893" lon="7.44622">
        <ele>1487.77</ele>
        <time>2020-07-22T09:06:49.982Z</time>
      </trkpt>
      <trkpt lat="46.40898" lon="7.44622">
        <ele>1486.5</ele>
        <time>2020-07-22T09:06:51.067Z</time>
      </trkpt>
      <trkpt lat="46.40914" lon="7.44618">
        <ele>1485.93</ele>
        <time>2020-07-22T09:06:55.306Z</time>
      </trkpt>
      <trkpt lat="46.40928" lon="7.4461">
        <ele>1483.67</ele>
        <time>2020-07-22T09:06:58.568Z</time>
      </trkpt>
      <trkpt lat="46.40928" lon="7.44611">
        <ele>1484.8</ele>
        <time>2020-07-22T09:07:01.040Z</time>
      </trkpt>
      <trkpt lat="46.40928" lon="7.4461">
        <ele>1483.67</ele>
        <time>2020-07-22T09:07:01.189Z</time>
      </trkpt>
      <trkpt lat="46.40934" lon="7.44606">
        <ele>1484.77</ele>
        <time>2020-07-22T09:07:24.861Z</time>
      </trkpt>
      <trkpt lat="46.40939" lon="7.44605">
        <ele>1484.92</ele>
        <time>2020-07-22T09:07:31.306Z</time>
      </trkpt>
      <trkpt lat="46.40949" lon="7.44599">
        <ele>1484.38</ele>
        <time>2020-07-22T09:07:33.768Z</time>
      </trkpt>
      <trkpt lat="46.40957" lon="7.44593">
        <ele>1483.99</ele>
        <time>2020-07-22T09:07:35.942Z</time>
      </trkpt>
      <trkpt lat="46.40963" lon="7.4459">
        <ele>1483.38</ele>
        <time>2020-07-22T09:07:37.318Z</time>
      </trkpt>
      <trkpt lat="46.40976" lon="7.44581">
        <ele>1481.15</ele>
        <time>2020-07-22T09:07:40.442Z</time>
      </trkpt>
      <trkpt lat="46.40981" lon="7.44579">
        <ele>1480.48</ele>
        <time>2020-07-22T09:07:41.566Z</time>
      </trkpt>
      <trkpt lat="46.40985" lon="7.44574">
        <ele>1480.75</ele>
        <time>2020-07-22T09:07:50.212Z</time>
      </trkpt>
      <trkpt lat="46.40995" lon="7.44568">
        <ele>1479.8</ele>
        <time>2020-07-22T09:07:52.558Z</time>
      </trkpt>
      <trkpt lat="46.40997" lon="7.44563">
        <ele>1479.98</ele>
        <time>2020-07-22T09:07:58.836Z</time>
      </trkpt>
      <trkpt lat="46.41006" lon="7.44556">
        <ele>1477.91</ele>
        <time>2020-07-22T09:08:01.050Z</time>
      </trkpt>
      <trkpt lat="46.41009" lon="7.44551">
        <ele>1478.8</ele>
        <time>2020-07-22T09:08:17.432Z</time>
      </trkpt>
      <trkpt lat="46.41011" lon="7.44543">
        <ele>1479.07</ele>
        <time>2020-07-22T09:08:26.724Z</time>
      </trkpt>
      <trkpt lat="46.41015" lon="7.44535">
        <ele>1479.61</ele>
        <time>2020-07-22T09:08:40.421Z</time>
      </trkpt>
      <trkpt lat="46.41021" lon="7.44525">
        <ele>1479.34</ele>
        <time>2020-07-22T09:08:42.948Z</time>
      </trkpt>
      <trkpt lat="46.41021" lon="7.44514">
        <ele>1478.02</ele>
        <time>2020-07-22T09:08:44.592Z</time>
      </trkpt>
      <trkpt lat="46.41022" lon="7.44506">
        <ele>1476.65</ele>
        <time>2020-07-22T09:08:45.808Z</time>
      </trkpt>
      <trkpt lat="46.41027" lon="7.44497">
        <ele>1473.51</ele>
        <time>2020-07-22T09:08:47.536Z</time>
      </trkpt>
      <trkpt lat="46.41028" lon="7.44488">
        <ele>1472.69</ele>
        <time>2020-07-22T09:08:48.899Z</time>
      </trkpt>
      <trkpt lat="46.41031" lon="7.44481">
        <ele>1471.82</ele>
        <time>2020-07-22T09:08:50.131Z</time>
      </trkpt>
      <trkpt lat="46.41034" lon="7.44473">
        <ele>1470.96</ele>
        <time>2020-07-22T09:08:51.492Z</time>
      </trkpt>
      <trkpt lat="46.41038" lon="7.44464">
        <ele>1470.21</ele>
        <time>2020-07-22T09:08:53.093Z</time>
      </trkpt>
      <trkpt lat="46.41046" lon="7.44452">
        <ele>1469.04</ele>
        <time>2020-07-22T09:08:55.589Z</time>
      </trkpt>
      <trkpt lat="46.41051" lon="7.44438">
        <ele>1468.88</ele>
        <time>2020-07-22T09:08:59.150Z</time>
      </trkpt>
      <trkpt lat="46.41054" lon="7.44432">
        <ele>1468.58</ele>
        <time>2020-07-22T09:09:00.231Z</time>
      </trkpt>
      <trkpt lat="46.41065" lon="7.44416">
        <ele>1466.37</ele>
        <time>2020-07-22T09:09:03.609Z</time>
      </trkpt>
      <trkpt lat="46.41075" lon="7.44393">
        <ele>1460.97</ele>
        <time>2020-07-22T09:09:07.674Z</time>
      </trkpt>
      <trkpt lat="46.41079" lon="7.44384">
        <ele>1459.46</ele>
        <time>2020-07-22T09:09:09.274Z</time>
      </trkpt>
      <trkpt lat="46.41081" lon="7.44377">
        <ele>1458.04</ele>
        <time>2020-07-22T09:09:10.407Z</time>
      </trkpt>
      <trkpt lat="46.41083" lon="7.44369">
        <ele>1456.37</ele>
        <time>2020-07-22T09:09:11.679Z</time>
      </trkpt>
      <trkpt lat="46.41087" lon="7.4436">
        <ele>1456.19</ele>
        <time>2020-07-22T09:09:13.838Z</time>
      </trkpt>
      <trkpt lat="46.41091" lon="7.44355">
        <ele>1455.96</ele>
        <time>2020-07-22T09:09:15.109Z</time>
      </trkpt>
      <trkpt lat="46.41117" lon="7.44339">
        <ele>1455.18</ele>
        <time>2020-07-22T09:09:23.078Z</time>
      </trkpt>
      <trkpt lat="46.4112" lon="7.44337">
        <ele>1455.58</ele>
        <time>2020-07-22T09:09:33.129Z</time>
      </trkpt>
      <trkpt lat="46.41122" lon="7.44335">
        <ele>1455.18</ele>
        <time>2020-07-22T09:09:33.656Z</time>
      </trkpt>
      <trkpt lat="46.41128" lon="7.44328">
        <ele>1453.86</ele>
        <time>2020-07-22T09:09:35.325Z</time>
      </trkpt>
      <trkpt lat="46.4113" lon="7.44324">
        <ele>1452.94</ele>
        <time>2020-07-22T09:09:36.064Z</time>
      </trkpt>
      <trkpt lat="46.4113" lon="7.4432">
        <ele>1452.44</ele>
        <time>2020-07-22T09:09:36.662Z</time>
      </trkpt>
      <trkpt lat="46.4113" lon="7.44319">
        <ele>1452.77</ele>
        <time>2020-07-22T09:09:39.133Z</time>
      </trkpt>
      <trkpt lat="46.41127" lon="7.44315">
        <ele>1453.09</ele>
        <time>2020-07-22T09:09:47.278Z</time>
      </trkpt>
      <trkpt lat="46.41125" lon="7.44309">
        <ele>1452.09</ele>
        <time>2020-07-22T09:09:48.274Z</time>
      </trkpt>
      <trkpt lat="46.41126" lon="7.44307">
        <ele>1451.12</ele>
        <time>2020-07-22T09:09:48.643Z</time>
      </trkpt>
      <trkpt lat="46.41128" lon="7.44306">
        <ele>1450.1</ele>
        <time>2020-07-22T09:09:49.102Z</time>
      </trkpt>
      <trkpt lat="46.41132" lon="7.44307">
        <ele>1449.74</ele>
        <time>2020-07-22T09:09:49.982Z</time>
      </trkpt>
      <trkpt lat="46.41135" lon="7.44305">
        <ele>1447.62</ele>
        <time>2020-07-22T09:09:50.698Z</time>
      </trkpt>
      <trkpt lat="46.41137" lon="7.443">
        <ele>1445.9</ele>
        <time>2020-07-22T09:09:51.562Z</time>
      </trkpt>
      <trkpt lat="46.41139" lon="7.4429">
        <ele>1444.07</ele>
        <time>2020-07-22T09:09:53.119Z</time>
      </trkpt>
      <trkpt lat="46.41141" lon="7.44273">
        <ele>1441.68</ele>
        <time>2020-07-22T09:09:55.697Z</time>
      </trkpt>
      <trkpt lat="46.41142" lon="7.44254">
        <ele>1438.56</ele>
        <time>2020-07-22T09:09:58.546Z</time>
      </trkpt>
      <trkpt lat="46.41141" lon="7.44244">
        <ele>1436.59</ele>
        <time>2020-07-22T09:10:00.056Z</time>
      </trkpt>
      <trkpt lat="46.41137" lon="7.44226">
        <ele>1431.53</ele>
        <time>2020-07-22T09:10:02.883Z</time>
      </trkpt>
      <trkpt lat="46.41134" lon="7.44214">
        <ele>1430.47</ele>
        <time>2020-07-22T09:10:04.792Z</time>
      </trkpt>
      <trkpt lat="46.41127" lon="7.44203">
        <ele>1428.05</ele>
        <time>2020-07-22T09:10:07.030Z</time>
      </trkpt>
      <trkpt lat="46.4112" lon="7.44191">
        <ele>1426.66</ele>
        <time>2020-07-22T09:10:09.380Z</time>
      </trkpt>
      <trkpt lat="46.41111" lon="7.44168">
        <ele>1422.81</ele>
        <time>2020-07-22T09:10:13.333Z</time>
      </trkpt>
      <trkpt lat="46.41107" lon="7.44155">
        <ele>1420.34</ele>
        <time>2020-07-22T09:10:15.461Z</time>
      </trkpt>
      <trkpt lat="46.41102" lon="7.44102">
        <ele>1411.66</ele>
        <time>2020-07-22T09:10:23.459Z</time>
      </trkpt>
      <trkpt lat="46.41104" lon="7.44093">
        <ele>1409.5</ele>
        <time>2020-07-22T09:10:24.872Z</time>
      </trkpt>
      <trkpt lat="46.41106" lon="7.44091">
        <ele>1408.39</ele>
        <time>2020-07-22T09:10:25.399Z</time>
      </trkpt>
      <trkpt lat="46.41107" lon="7.44092">
        <ele>1407.48</ele>
        <time>2020-07-22T09:10:25.662Z</time>
      </trkpt>
      <trkpt lat="46.41108" lon="7.44093">
        <ele>1407.03</ele>
        <time>2020-07-22T09:10:25.926Z</time>
      </trkpt>
      <trkpt lat="46.41111" lon="7.4409">
        <ele>1405.68</ele>
        <time>2020-07-22T09:10:26.716Z</time>
      </trkpt>
      <trkpt lat="46.41116" lon="7.44078">
        <ele>1403.66</ele>
        <time>2020-07-22T09:10:28.812Z</time>
      </trkpt>
      <trkpt lat="46.41116" lon="7.44078">
        <ele>1403.66</ele>
        <time>2020-07-22T09:10:28.812Z</time>
      </trkpt>
      <trkpt lat="46.41117" lon="7.44076">
        <ele>1401.65</ele>
        <time>2020-07-22T09:10:29.181Z</time>
      </trkpt>
      <trkpt lat="46.41129" lon="7.44042">
        <ele>1392.65</ele>
        <time>2020-07-22T09:10:34.892Z</time>
      </trkpt>
      <trkpt lat="46.41133" lon="7.44027">
        <ele>1390.47</ele>
        <time>2020-07-22T09:10:37.296Z</time>
      </trkpt>
      <trkpt lat="46.41139" lon="7.43987">
        <ele>1384.58</ele>
        <time>2020-07-22T09:10:43.416Z</time>
      </trkpt>
      <trkpt lat="46.41144" lon="7.43957">
        <ele>1381.29</ele>
        <time>2020-07-22T09:10:48.030Z</time>
      </trkpt>
      <trkpt lat="46.41147" lon="7.43963">
        <ele>1381.25</ele>
        <time>2020-07-22T09:10:49.862Z</time>
      </trkpt>
      <trkpt lat="46.41149" lon="7.43971">
        <ele>1379.85</ele>
        <time>2020-07-22T09:10:51.134Z</time>
      </trkpt>
      <trkpt lat="46.41152" lon="7.43985">
        <ele>1378.36</ele>
        <time>2020-07-22T09:10:53.326Z</time>
      </trkpt>
      <trkpt lat="46.41154" lon="7.43993">
        <ele>1377.43</ele>
        <time>2020-07-22T09:10:54.598Z</time>
      </trkpt>
      <trkpt lat="46.41159" lon="7.44003">
        <ele>1376.32</ele>
        <time>2020-07-22T09:10:56.445Z</time>
      </trkpt>
      <trkpt lat="46.41162" lon="7.44012">
        <ele>1375.77</ele>
        <time>2020-07-22T09:10:57.939Z</time>
      </trkpt>
      <trkpt lat="46.41162" lon="7.44024">
        <ele>1374.07</ele>
        <time>2020-07-22T09:10:59.733Z</time>
      </trkpt>
      <trkpt lat="46.41163" lon="7.44044">
        <ele>1372.27</ele>
        <time>2020-07-22T09:11:02.731Z</time>
      </trkpt>
      <trkpt lat="46.41163" lon="7.44058">
        <ele>1370.67</ele>
        <time>2020-07-22T09:11:04.824Z</time>
      </trkpt>
      <trkpt lat="46.41165" lon="7.44074">
        <ele>1369.13</ele>
        <time>2020-07-22T09:11:07.255Z</time>
      </trkpt>
      <trkpt lat="46.41168" lon="7.44092">
        <ele>1367.14</ele>
        <time>2020-07-22T09:11:10.023Z</time>
      </trkpt>
      <trkpt lat="46.41168" lon="7.44091">
        <ele>1367.14</ele>
        <time>2020-07-22T09:11:10.664Z</time>
      </trkpt>
      <trkpt lat="46.41172" lon="7.44117">
        <ele>1365.15</ele>
        <time>2020-07-22T09:11:14.646Z</time>
      </trkpt>
      <trkpt lat="46.41176" lon="7.44136">
        <ele>1363.36</ele>
        <time>2020-07-22T09:11:17.616Z</time>
      </trkpt>
      <trkpt lat="46.4118" lon="7.44147">
        <ele>1362.17</ele>
        <time>2020-07-22T09:11:19.476Z</time>
      </trkpt>
      <trkpt lat="46.41188" lon="7.44164">
        <ele>1359.74</ele>
        <time>2020-07-22T09:11:22.553Z</time>
      </trkpt>
      <trkpt lat="46.41192" lon="7.44176">
        <ele>1358.46</ele>
        <time>2020-07-22T09:11:24.545Z</time>
      </trkpt>
      <trkpt lat="46.41196" lon="7.44196">
        <ele>1356.18</ele>
        <time>2020-07-22T09:11:27.658Z</time>
      </trkpt>
      <trkpt lat="46.41198" lon="7.44215">
        <ele>1354.72</ele>
        <time>2020-07-22T09:11:30.532Z</time>
      </trkpt>
      <trkpt lat="46.41198" lon="7.44228">
        <ele>1353.65</ele>
        <time>2020-07-22T09:11:32.475Z</time>
      </trkpt>
      <trkpt lat="46.41199" lon="7.44231">
        <ele>1353.21</ele>
        <time>2020-07-22T09:11:32.973Z</time>
      </trkpt>
      <trkpt lat="46.41199" lon="7.4423">
        <ele>1353.21</ele>
        <time>2020-07-22T09:11:33.614Z</time>
      </trkpt>
      <trkpt lat="46.412" lon="7.44234">
        <ele>1352.77</ele>
        <time>2020-07-22T09:11:34.250Z</time>
      </trkpt>
      <trkpt lat="46.41203" lon="7.44235">
        <ele>1351.98</ele>
        <time>2020-07-22T09:11:34.918Z</time>
      </trkpt>
      <trkpt lat="46.41206" lon="7.44234">
        <ele>1351.4</ele>
        <time>2020-07-22T09:11:35.585Z</time>
      </trkpt>
      <trkpt lat="46.41207" lon="7.44226">
        <ele>1350.55</ele>
        <time>2020-07-22T09:11:36.800Z</time>
      </trkpt>
      <trkpt lat="46.41207" lon="7.44212">
        <ele>1349.13</ele>
        <time>2020-07-22T09:11:38.893Z</time>
      </trkpt>
      <trkpt lat="46.41208" lon="7.44198">
        <ele>1348.46</ele>
        <time>2020-07-22T09:11:40.998Z</time>
      </trkpt>
      <trkpt lat="46.41209" lon="7.44183">
        <ele>1347.24</ele>
        <time>2020-07-22T09:11:43.250Z</time>
      </trkpt>
      <trkpt lat="46.4121" lon="7.44174">
        <ele>1346.36</ele>
        <time>2020-07-22T09:11:44.613Z</time>
      </trkpt>
      <trkpt lat="46.4121" lon="7.44173">
        <ele>1345.46</ele>
        <time>2020-07-22T09:11:44.763Z</time>
      </trkpt>
      <trkpt lat="46.4121" lon="7.44172">
        <ele>1345.46</ele>
        <time>2020-07-22T09:11:45.403Z</time>
      </trkpt>
      <trkpt lat="46.41208" lon="7.44155">
        <ele>1344.56</ele>
        <time>2020-07-22T09:11:47.982Z</time>
      </trkpt>
      <trkpt lat="46.41208" lon="7.44144">
        <ele>1344.14</ele>
        <time>2020-07-22T09:11:49.629Z</time>
      </trkpt>
      <trkpt lat="46.41209" lon="7.44135">
        <ele>1343.43</ele>
        <time>2020-07-22T09:11:50.992Z</time>
      </trkpt>
      <trkpt lat="46.41214" lon="7.44106">
        <ele>1341.49</ele>
        <time>2020-07-22T09:11:55.461Z</time>
      </trkpt>
      <trkpt lat="46.41218" lon="7.44088">
        <ele>1340.65</ele>
        <time>2020-07-22T09:11:58.096Z</time>
      </trkpt>
      <trkpt lat="46.41219" lon="7.441">
        <ele>1339.74</ele>
        <time>2020-07-22T09:11:59.903Z</time>
      </trkpt>
      <trkpt lat="46.41221" lon="7.44107">
        <ele>1338.37</ele>
        <time>2020-07-22T09:12:01.035Z</time>
      </trkpt>
      <trkpt lat="46.41223" lon="7.44114">
        <ele>1336.57</ele>
        <time>2020-07-22T09:12:02.168Z</time>
      </trkpt>
      <trkpt lat="46.41227" lon="7.44123">
        <ele>1334.54</ele>
        <time>2020-07-22T09:12:03.769Z</time>
      </trkpt>
      <trkpt lat="46.41231" lon="7.44137">
        <ele>1332.95</ele>
        <time>2020-07-22T09:12:06.034Z</time>
      </trkpt>
      <trkpt lat="46.41231" lon="7.44136">
        <ele>1332.95</ele>
        <time>2020-07-22T09:12:06.675Z</time>
      </trkpt>
      <trkpt lat="46.41232" lon="7.44139">
        <ele>1331.35</ele>
        <time>2020-07-22T09:12:07.173Z</time>
      </trkpt>
      <trkpt lat="46.41238" lon="7.4415">
        <ele>1328.74</ele>
        <time>2020-07-22T09:12:09.270Z</time>
      </trkpt>
      <trkpt lat="46.41245" lon="7.44165">
        <ele>1325.5</ele>
        <time>2020-07-22T09:12:11.978Z</time>
      </trkpt>
      <trkpt lat="46.41248" lon="7.44181">
        <ele>1323.84</ele>
        <time>2020-07-22T09:12:14.457Z</time>
      </trkpt>
      <trkpt lat="46.4125" lon="7.44191">
        <ele>1323.21</ele>
        <time>2020-07-22T09:12:16.013Z</time>
      </trkpt>
      <trkpt lat="46.41252" lon="7.442">
        <ele>1322.47</ele>
        <time>2020-07-22T09:12:17.427Z</time>
      </trkpt>
      <trkpt lat="46.41255" lon="7.44206">
        <ele>1320.06</ele>
        <time>2020-07-22T09:12:18.535Z</time>
      </trkpt>
      <trkpt lat="46.4126" lon="7.44205">
        <ele>1319.23</ele>
        <time>2020-07-22T09:12:19.629Z</time>
      </trkpt>
      <trkpt lat="46.41263" lon="7.44205">
        <ele>1318.73</ele>
        <time>2020-07-22T09:12:20.280Z</time>
      </trkpt>
      <trkpt lat="46.41263" lon="7.44205">
        <ele>1318.73</ele>
        <time>2020-07-22T09:12:20.280Z</time>
      </trkpt>
      <trkpt lat="46.41265" lon="7.44205">
        <ele>1318.24</ele>
        <time>2020-07-22T09:12:20.713Z</time>
      </trkpt>
      <trkpt lat="46.4127" lon="7.44201">
        <ele>1315.43</ele>
        <time>2020-07-22T09:12:21.952Z</time>
      </trkpt>
      <trkpt lat="46.41273" lon="7.44196">
        <ele>1315.63</ele>
        <time>2020-07-22T09:12:29.040Z</time>
      </trkpt>
      <trkpt lat="46.41275" lon="7.44189">
        <ele>1315.15</ele>
        <time>2020-07-22T09:12:30.173Z</time>
      </trkpt>
      <trkpt lat="46.41277" lon="7.44179">
        <ele>1314.64</ele>
        <time>2020-07-22T09:12:31.730Z</time>
      </trkpt>
      <trkpt lat="46.41279" lon="7.44174">
        <ele>1313.27</ele>
        <time>2020-07-22T09:12:32.594Z</time>
      </trkpt>
      <trkpt lat="46.41281" lon="7.44171">
        <ele>1312.96</ele>
        <time>2020-07-22T09:12:33.218Z</time>
      </trkpt>
      <trkpt lat="46.41283" lon="7.44172">
        <ele>1312.09</ele>
        <time>2020-07-22T09:12:33.676Z</time>
      </trkpt>
      <trkpt lat="46.41284" lon="7.44177">
        <ele>1311.36</ele>
        <time>2020-07-22T09:12:34.455Z</time>
      </trkpt>
      <trkpt lat="46.41286" lon="7.4418">
        <ele>1310.66</ele>
        <time>2020-07-22T09:12:35.078Z</time>
      </trkpt>
      <trkpt lat="46.4129" lon="7.4418">
        <ele>1309.38</ele>
        <time>2020-07-22T09:12:35.946Z</time>
      </trkpt>
      <trkpt lat="46.41296" lon="7.44179">
        <ele>1307.49</ele>
        <time>2020-07-22T09:12:37.255Z</time>
      </trkpt>
      <trkpt lat="46.413" lon="7.4418">
        <ele>1306.55</ele>
        <time>2020-07-22T09:12:38.135Z</time>
      </trkpt>
      <trkpt lat="46.41305" lon="7.44185">
        <ele>1305.08</ele>
        <time>2020-07-22T09:12:39.452Z</time>
      </trkpt>
      <trkpt lat="46.41309" lon="7.44186">
        <ele>1303.98</ele>
        <time>2020-07-22T09:12:40.332Z</time>
      </trkpt>
      <trkpt lat="46.41315" lon="7.44187">
        <ele>1302.46</ele>
        <time>2020-07-22T09:12:41.642Z</time>
      </trkpt>
      <trkpt lat="46.41322" lon="7.44187">
        <ele>1302.32</ele>
        <time>2020-07-22T09:12:43.793Z</time>
      </trkpt>
      <trkpt lat="46.41327" lon="7.44189">
        <ele>1299.95</ele>
        <time>2020-07-22T09:12:44.918Z</time>
      </trkpt>
      <trkpt lat="46.41328" lon="7.44194">
        <ele>1299.17</ele>
        <time>2020-07-22T09:12:45.696Z</time>
      </trkpt>
      <trkpt lat="46.41326" lon="7.44197">
        <ele>1298.33</ele>
        <time>2020-07-22T09:12:46.320Z</time>
      </trkpt>
      <trkpt lat="46.41317" lon="7.44201">
        <ele>1298.23</ele>
        <time>2020-07-22T09:12:49.571Z</time>
      </trkpt>
      <trkpt lat="46.41316" lon="7.44205">
        <ele>1296.69</ele>
        <time>2020-07-22T09:12:50.207Z</time>
      </trkpt>
      <trkpt lat="46.41316" lon="7.44208">
        <ele>1295.69</ele>
        <time>2020-07-22T09:12:50.655Z</time>
      </trkpt>
      <trkpt lat="46.41316" lon="7.44207">
        <ele>1295.69</ele>
        <time>2020-07-22T09:12:51.296Z</time>
      </trkpt>
      <trkpt lat="46.41317" lon="7.4421">
        <ele>1294.68</ele>
        <time>2020-07-22T09:12:51.794Z</time>
      </trkpt>
      <trkpt lat="46.4132" lon="7.44215">
        <ele>1293.7</ele>
        <time>2020-07-22T09:12:52.785Z</time>
      </trkpt>
      <trkpt lat="46.41323" lon="7.44218">
        <ele>1291.84</ele>
        <time>2020-07-22T09:12:53.575Z</time>
      </trkpt>
      <trkpt lat="46.41334" lon="7.44221">
        <ele>1289.09</ele>
        <time>2020-07-22T09:12:56.002Z</time>
      </trkpt>
      <trkpt lat="46.41335" lon="7.44223">
        <ele>1288.82</ele>
        <time>2020-07-22T09:12:56.371Z</time>
      </trkpt>
      <trkpt lat="46.41335" lon="7.44228">
        <ele>1290.2</ele>
        <time>2020-07-22T09:13:08.728Z</time>
      </trkpt>
      <trkpt lat="46.41335" lon="7.44243">
        <ele>1289.51</ele>
        <time>2020-07-22T09:13:10.971Z</time>
      </trkpt>
      <trkpt lat="46.41335" lon="7.44243">
        <ele>1289.63</ele>
        <time>2020-07-22T09:13:10.971Z</time>
      </trkpt>
      <trkpt lat="46.41338" lon="7.44243">
        <ele>1288.86</ele>
        <time>2020-07-22T09:13:11.621Z</time>
      </trkpt>
      <trkpt lat="46.41347" lon="7.44241">
        <ele>1287.99</ele>
        <time>2020-07-22T09:13:13.595Z</time>
      </trkpt>
      <trkpt lat="46.41355" lon="7.44236">
        <ele>1287.44</ele>
        <time>2020-07-22T09:13:15.373Z</time>
      </trkpt>
      <trkpt lat="46.41366" lon="7.44227">
        <ele>1286.21</ele>
        <time>2020-07-22T09:13:18.112Z</time>
      </trkpt>
      <trkpt lat="46.41372" lon="7.44221">
        <ele>1285.87</ele>
        <time>2020-07-22T09:13:19.818Z</time>
      </trkpt>
      <trkpt lat="46.41376" lon="7.44216">
        <ele>1285.57</ele>
        <time>2020-07-22T09:13:20.952Z</time>
      </trkpt>
      <trkpt lat="46.41376" lon="7.44217">
        <ele>1285.57</ele>
        <time>2020-07-22T09:13:21.592Z</time>
      </trkpt>
      <trkpt lat="46.41381" lon="7.44211">
        <ele>1285.26</ele>
        <time>2020-07-22T09:13:23.097Z</time>
      </trkpt>
      <trkpt lat="46.41385" lon="7.44205">
        <ele>1284.75</ele>
        <time>2020-07-22T09:13:24.345Z</time>
      </trkpt>
      <trkpt lat="46.4139" lon="7.44197">
        <ele>1284.1</ele>
        <time>2020-07-22T09:13:25.959Z</time>
      </trkpt>
      <trkpt lat="46.41399" lon="7.44188">
        <ele>1283.48</ele>
        <time>2020-07-22T09:13:28.307Z</time>
      </trkpt>
      <trkpt lat="46.41424" lon="7.44165">
        <ele>1285.1</ele>
        <time>2020-07-22T09:14:17.951Z</time>
      </trkpt>
      <trkpt lat="46.41431" lon="7.44159">
        <ele>1284.73</ele>
        <time>2020-07-22T09:14:19.875Z</time>
      </trkpt>
      <trkpt lat="46.41436" lon="7.44158">
        <ele>1284.6</ele>
        <time>2020-07-22T09:14:21.328Z</time>
      </trkpt>
      <trkpt lat="46.41441" lon="7.44157">
        <ele>1284.13</ele>
        <time>2020-07-22T09:14:22.422Z</time>
      </trkpt>
      <trkpt lat="46.41448" lon="7.44147">
        <ele>1283.25</ele>
        <time>2020-07-22T09:14:24.553Z</time>
      </trkpt>
      <trkpt lat="46.41455" lon="7.44139">
        <ele>1282.31</ele>
        <time>2020-07-22T09:14:26.485Z</time>
      </trkpt>
      <trkpt lat="46.41493" lon="7.44114">
        <ele>1279.64</ele>
        <time>2020-07-22T09:14:34.945Z</time>
      </trkpt>
      <trkpt lat="46.41502" lon="7.44109">
        <ele>1279.34</ele>
        <time>2020-07-22T09:14:37.565Z</time>
      </trkpt>
      <trkpt lat="46.41524" lon="7.44102">
        <ele>1277.8</ele>
        <time>2020-07-22T09:14:42.449Z</time>
      </trkpt>
      <trkpt lat="46.41536" lon="7.44095">
        <ele>1276.87</ele>
        <time>2020-07-22T09:14:45.253Z</time>
      </trkpt>
      <trkpt lat="46.41552" lon="7.44084">
        <ele>1275.7</ele>
        <time>2020-07-22T09:14:48.786Z</time>
      </trkpt>
      <trkpt lat="46.41562" lon="7.44074">
        <ele>1275.04</ele>
        <time>2020-07-22T09:14:51.447Z</time>
      </trkpt>
      <trkpt lat="46.41568" lon="7.44068">
        <ele>1274.51</ele>
        <time>2020-07-22T09:14:53.028Z</time>
      </trkpt>
      <trkpt lat="46.41585" lon="7.44044">
        <ele>1272.25</ele>
        <time>2020-07-22T09:14:58.171Z</time>
      </trkpt>
      <trkpt lat="46.41596" lon="7.44029">
        <ele>1271.46</ele>
        <time>2020-07-22T09:15:01.536Z</time>
      </trkpt>
      <trkpt lat="46.41596" lon="7.44029">
        <ele>1271.46</ele>
        <time>2020-07-22T09:15:01.536Z</time>
      </trkpt>
      <trkpt lat="46.416" lon="7.44024">
        <ele>1270.67</ele>
        <time>2020-07-22T09:15:02.681Z</time>
      </trkpt>
      <trkpt lat="46.4162" lon="7.43998">
        <ele>1268.09</ele>
        <time>2020-07-22T09:15:08.504Z</time>
      </trkpt>
      <trkpt lat="46.41628" lon="7.43985">
        <ele>1266.87</ele>
        <time>2020-07-22T09:15:11.109Z</time>
      </trkpt>
      <trkpt lat="46.41636" lon="7.43974">
        <ele>1265.7</ele>
        <time>2020-07-22T09:15:13.499Z</time>
      </trkpt>
      <trkpt lat="46.41648" lon="7.4396">
        <ele>1263.77</ele>
        <time>2020-07-22T09:15:16.839Z</time>
      </trkpt>
      <trkpt lat="46.41662" lon="7.43944">
        <ele>1261.31</ele>
        <time>2020-07-22T09:15:20.703Z</time>
      </trkpt>
      <trkpt lat="46.41666" lon="7.43937">
        <ele>1259.92</ele>
        <time>2020-07-22T09:15:22.062Z</time>
      </trkpt>
      <trkpt lat="46.41668" lon="7.43931">
        <ele>1258.66</ele>
        <time>2020-07-22T09:15:23.058Z</time>
      </trkpt>
      <trkpt lat="46.4167" lon="7.43918">
        <ele>1257.18</ele>
        <time>2020-07-22T09:15:25.050Z</time>
      </trkpt>
      <trkpt lat="46.41671" lon="7.43905">
        <ele>1256.46</ele>
        <time>2020-07-22T09:15:27.005Z</time>
      </trkpt>
      <trkpt lat="46.41673" lon="7.43902">
        <ele>1256.98</ele>
        <time>2020-07-22T09:15:37.318Z</time>
      </trkpt>
      <trkpt lat="46.4168" lon="7.43905">
        <ele>1256.1</ele>
        <time>2020-07-22T09:15:38.901Z</time>
      </trkpt>
      <trkpt lat="46.4169" lon="7.43908">
        <ele>1255.62</ele>
        <time>2020-07-22T09:15:41.284Z</time>
      </trkpt>
      <trkpt lat="46.4171" lon="7.43915">
        <ele>1254.85</ele>
        <time>2020-07-22T09:15:46.535Z</time>
      </trkpt>
      <trkpt lat="46.41715" lon="7.43916">
        <ele>1253.78</ele>
        <time>2020-07-22T09:15:47.629Z</time>
      </trkpt>
      <trkpt lat="46.41716" lon="7.43915">
        <ele>1253.17</ele>
        <time>2020-07-22T09:15:47.892Z</time>
      </trkpt>
      <trkpt lat="46.41716" lon="7.43915">
        <ele>1253.17</ele>
        <time>2020-07-22T09:15:47.892Z</time>
      </trkpt>
      <trkpt lat="46.41734" lon="7.43912">
        <ele>1252.56</ele>
        <time>2020-07-22T09:15:52.692Z</time>
      </trkpt>
      <trkpt lat="46.41742" lon="7.43908">
        <ele>1252.47</ele>
        <time>2020-07-22T09:15:55.614Z</time>
      </trkpt>
      <trkpt lat="46.41751" lon="7.43905">
        <ele>1252.42</ele>
        <time>2020-07-22T09:16:03.538Z</time>
      </trkpt>
      <trkpt lat="46.41759" lon="7.43907">
        <ele>1252.49</ele>
        <time>2020-07-22T09:16:11.730Z</time>
      </trkpt>
      <trkpt lat="46.41771" lon="7.43914">
        <ele>1253.7</ele>
        <time>2020-07-22T09:16:41.140Z</time>
      </trkpt>
      <trkpt lat="46.41782" lon="7.43922">
        <ele>1252.31</ele>
        <time>2020-07-22T09:16:43.808Z</time>
      </trkpt>
      <trkpt lat="46.41792" lon="7.43928">
        <ele>1250.82</ele>
        <time>2020-07-22T09:16:46.154Z</time>
      </trkpt>
      <trkpt lat="46.41806" lon="7.43935">
        <ele>1249.65</ele>
        <time>2020-07-22T09:16:49.365Z</time>
      </trkpt>
      <trkpt lat="46.41816" lon="7.43938">
        <ele>1250.36</ele>
        <time>2020-07-22T09:17:08.394Z</time>
      </trkpt>
      <trkpt lat="46.41826" lon="7.43942">
        <ele>1250.35</ele>
        <time>2020-07-22T09:17:17.894Z</time>
      </trkpt>
      <trkpt lat="46.41835" lon="7.43948">
        <ele>1247.12</ele>
        <time>2020-07-22T09:17:20.042Z</time>
      </trkpt>
      <trkpt lat="46.41842" lon="7.43949">
        <ele>1246.96</ele>
        <time>2020-07-22T09:17:22.136Z</time>
      </trkpt>
      <trkpt lat="46.41851" lon="7.43948">
        <ele>1246.66</ele>
        <time>2020-07-22T09:17:24.537Z</time>
      </trkpt>
      <trkpt lat="46.41854" lon="7.43947">
        <ele>1246.85</ele>
        <time>2020-07-22T09:17:29.956Z</time>
      </trkpt>
      <trkpt lat="46.41854" lon="7.43947">
        <ele>1246.85</ele>
        <time>2020-07-22T09:17:29.956Z</time>
      </trkpt>
      <trkpt lat="46.41856" lon="7.43946">
        <ele>1247.04</ele>
        <time>2020-07-22T09:17:34.607Z</time>
      </trkpt>
      <trkpt lat="46.4186" lon="7.43948">
        <ele>1245.72</ele>
        <time>2020-07-22T09:17:35.524Z</time>
      </trkpt>
      <trkpt lat="46.41864" lon="7.43958">
        <ele>1244.28</ele>
        <time>2020-07-22T09:17:37.252Z</time>
      </trkpt>
      <trkpt lat="46.41871" lon="7.43963">
        <ele>1244.64</ele>
        <time>2020-07-22T09:17:49.619Z</time>
      </trkpt>
      <trkpt lat="46.41881" lon="7.43968">
        <ele>1245.59</ele>
        <time>2020-07-22T09:18:12.874Z</time>
      </trkpt>
      <trkpt lat="46.41891" lon="7.4397">
        <ele>1245.27</ele>
        <time>2020-07-22T09:18:15.602Z</time>
      </trkpt>
      <trkpt lat="46.41896" lon="7.43971">
        <ele>1245.2</ele>
        <time>2020-07-22T09:18:17.273Z</time>
      </trkpt>
      <trkpt lat="46.41901" lon="7.43969">
        <ele>1245.38</ele>
        <time>2020-07-22T09:18:24.340Z</time>
      </trkpt>
      <trkpt lat="46.41907" lon="7.43964">
        <ele>1245.43</ele>
        <time>2020-07-22T09:18:31.226Z</time>
      </trkpt>
      <trkpt lat="46.41914" lon="7.43959">
        <ele>1244.69</ele>
        <time>2020-07-22T09:18:32.918Z</time>
      </trkpt>
      <trkpt lat="46.41919" lon="7.43951">
        <ele>1243.66</ele>
        <time>2020-07-22T09:18:34.532Z</time>
      </trkpt>
      <trkpt lat="46.41926" lon="7.43944">
        <ele>1242.48</ele>
        <time>2020-07-22T09:18:36.376Z</time>
      </trkpt>
      <trkpt lat="46.41932" lon="7.4394">
        <ele>1241.97</ele>
        <time>2020-07-22T09:18:37.807Z</time>
      </trkpt>
      <trkpt lat="46.4194" lon="7.43936">
        <ele>1241.43</ele>
        <time>2020-07-22T09:18:39.525Z</time>
      </trkpt>
      <trkpt lat="46.41949" lon="7.43933">
        <ele>1241.71</ele>
        <time>2020-07-22T09:18:51.407Z</time>
      </trkpt>
      <trkpt lat="46.41954" lon="7.43935">
        <ele>1241.79</ele>
        <time>2020-07-22T09:18:57.021Z</time>
      </trkpt>
      <trkpt lat="46.41961" lon="7.4393">
        <ele>1240.92</ele>
        <time>2020-07-22T09:18:58.712Z</time>
      </trkpt>
      <trkpt lat="46.41976" lon="7.43924">
        <ele>1240.18</ele>
        <time>2020-07-22T09:19:02.327Z</time>
      </trkpt>
      <trkpt lat="46.41985" lon="7.43921">
        <ele>1240.12</ele>
        <time>2020-07-22T09:19:10.132Z</time>
      </trkpt>
      <trkpt lat="46.41993" lon="7.43921">
        <ele>1239.62</ele>
        <time>2020-07-22T09:19:11.773Z</time>
      </trkpt>
      <trkpt lat="46.41999" lon="7.43921">
        <ele>1239.12</ele>
        <time>2020-07-22T09:19:13.074Z</time>
      </trkpt>
      <trkpt lat="46.42002" lon="7.43923">
        <ele>1239.88</ele>
        <time>2020-07-22T09:19:24.909Z</time>
      </trkpt>
      <trkpt lat="46.42009" lon="7.43928">
        <ele>1240.68</ele>
        <time>2020-07-22T09:19:44.242Z</time>
      </trkpt>
      <trkpt lat="46.42013" lon="7.43933">
        <ele>1241.77</ele>
        <time>2020-07-22T09:20:03.170Z</time>
      </trkpt>
      <trkpt lat="46.42016" lon="7.43938">
        <ele>1242.5</ele>
        <time>2020-07-22T09:20:19.550Z</time>
      </trkpt>
      <trkpt lat="46.42018" lon="7.43944">
        <ele>1242.25</ele>
        <time>2020-07-22T09:20:20.556Z</time>
      </trkpt>
      <trkpt lat="46.42018" lon="7.4395">
        <ele>1241.52</ele>
        <time>2020-07-22T09:20:21.453Z</time>
      </trkpt>
      <trkpt lat="46.4202" lon="7.43956">
        <ele>1241.08</ele>
        <time>2020-07-22T09:20:22.449Z</time>
      </trkpt>
      <trkpt lat="46.42025" lon="7.4396">
        <ele>1238.49</ele>
        <time>2020-07-22T09:20:23.687Z</time>
      </trkpt>
      <trkpt lat="46.4203" lon="7.43965">
        <ele>1239.84</ele>
        <time>2020-07-22T09:20:45.456Z</time>
      </trkpt>
      <trkpt lat="46.42035" lon="7.4397">
        <ele>1240.92</ele>
        <time>2020-07-22T09:21:07.225Z</time>
      </trkpt>
      <trkpt lat="46.4204" lon="7.43973">
        <ele>1240.72</ele>
        <time>2020-07-22T09:21:08.612Z</time>
      </trkpt>
      <trkpt lat="46.42052" lon="7.43974">
        <ele>1239.96</ele>
        <time>2020-07-22T09:21:11.063Z</time>
      </trkpt>
      <trkpt lat="46.4206" lon="7.43975">
        <ele>1239.1</ele>
        <time>2020-07-22T09:21:12.805Z</time>
      </trkpt>
      <trkpt lat="46.42064" lon="7.43976">
        <ele>1239.31</ele>
        <time>2020-07-22T09:21:19.476Z</time>
      </trkpt>
      <trkpt lat="46.42067" lon="7.43979">
        <ele>1239</ele>
        <time>2020-07-22T09:21:20.266Z</time>
      </trkpt>
      <trkpt lat="46.42071" lon="7.43977">
        <ele>1237.51</ele>
        <time>2020-07-22T09:21:21.184Z</time>
      </trkpt>
      <trkpt lat="46.42071" lon="7.43977">
        <ele>1238.26</ele>
        <time>2020-07-22T09:21:21.184Z</time>
      </trkpt>
      <trkpt lat="46.42071" lon="7.43977">
        <ele>1237.51</ele>
        <time>2020-07-22T09:21:21.184Z</time>
      </trkpt>
      <trkpt lat="46.42089" lon="7.43977">
        <ele>1234.61</ele>
        <time>2020-07-22T09:21:25.087Z</time>
      </trkpt>
      <trkpt lat="46.42098" lon="7.43975">
        <ele>1234.84</ele>
        <time>2020-07-22T09:21:36.096Z</time>
      </trkpt>
      <trkpt lat="46.42105" lon="7.43968">
        <ele>1234.02</ele>
        <time>2020-07-22T09:21:37.939Z</time>
      </trkpt>
      <trkpt lat="46.42114" lon="7.43957">
        <ele>1233.08</ele>
        <time>2020-07-22T09:21:40.491Z</time>
      </trkpt>
      <trkpt lat="46.42115" lon="7.43953">
        <ele>1232.91</ele>
        <time>2020-07-22T09:21:41.115Z</time>
      </trkpt>
      <trkpt lat="46.42114" lon="7.43946">
        <ele>1230.78</ele>
        <time>2020-07-22T09:21:42.183Z</time>
      </trkpt>
      <trkpt lat="46.42114" lon="7.43941">
        <ele>1229.5</ele>
        <time>2020-07-22T09:21:42.931Z</time>
      </trkpt>
      <trkpt lat="46.42117" lon="7.43936">
        <ele>1228.66</ele>
        <time>2020-07-22T09:21:43.921Z</time>
      </trkpt>
      <trkpt lat="46.42119" lon="7.43932">
        <ele>1227.96</ele>
        <time>2020-07-22T09:21:44.660Z</time>
      </trkpt>
      <trkpt lat="46.42122" lon="7.43929">
        <ele>1227.09</ele>
        <time>2020-07-22T09:21:45.450Z</time>
      </trkpt>
      <trkpt lat="46.4213" lon="7.43928">
        <ele>1226.66</ele>
        <time>2020-07-22T09:21:47.221Z</time>
      </trkpt>
      <trkpt lat="46.42135" lon="7.43927">
        <ele>1226.91</ele>
        <time>2020-07-22T09:21:55.398Z</time>
      </trkpt>
      <trkpt lat="46.42158" lon="7.43902">
        <ele>1224.29</ele>
        <time>2020-07-22T09:22:01.629Z</time>
      </trkpt>
      <trkpt lat="46.4216" lon="7.43897">
        <ele>1224.22</ele>
        <time>2020-07-22T09:22:02.890Z</time>
      </trkpt>
      <trkpt lat="46.42166" lon="7.43893">
        <ele>1223.36</ele>
        <time>2020-07-22T09:22:04.322Z</time>
      </trkpt>
      <trkpt lat="46.4217" lon="7.43888">
        <ele>1222.71</ele>
        <time>2020-07-22T09:22:05.467Z</time>
      </trkpt>
      <trkpt lat="46.42176" lon="7.43881">
        <ele>1221.73</ele>
        <time>2020-07-22T09:22:07.136Z</time>
      </trkpt>
      <trkpt lat="46.42185" lon="7.43877">
        <ele>1220.48</ele>
        <time>2020-07-22T09:22:09.177Z</time>
      </trkpt>
      <trkpt lat="46.42195" lon="7.43872">
        <ele>1219.46</ele>
        <time>2020-07-22T09:22:11.471Z</time>
      </trkpt>
      <trkpt lat="46.42202" lon="7.43871">
        <ele>1218.93</ele>
        <time>2020-07-22T09:22:12.996Z</time>
      </trkpt>
      <trkpt lat="46.42213" lon="7.43871">
        <ele>1218.15</ele>
        <time>2020-07-22T09:22:15.381Z</time>
      </trkpt>
      <trkpt lat="46.42213" lon="7.43871">
        <ele>1218.15</ele>
        <time>2020-07-22T09:22:15.381Z</time>
      </trkpt>
      <trkpt lat="46.4222" lon="7.4387">
        <ele>1217.37</ele>
        <time>2020-07-22T09:22:16.906Z</time>
      </trkpt>
      <trkpt lat="46.42225" lon="7.43867">
        <ele>1216.89</ele>
        <time>2020-07-22T09:22:18.079Z</time>
      </trkpt>
      <trkpt lat="46.42233" lon="7.43856">
        <ele>1215.86</ele>
        <time>2020-07-22T09:22:20.469Z</time>
      </trkpt>
      <trkpt lat="46.42239" lon="7.43847">
        <ele>1214.67</ele>
        <time>2020-07-22T09:22:22.341Z</time>
      </trkpt>
      <trkpt lat="46.42246" lon="7.43839">
        <ele>1213.39</ele>
        <time>2020-07-22T09:22:24.273Z</time>
      </trkpt>
      <trkpt lat="46.42244" lon="7.43835">
        <ele>1212.89</ele>
        <time>2020-07-22T09:22:25.012Z</time>
      </trkpt>
      <trkpt lat="46.42246" lon="7.43832">
        <ele>1213.08</ele>
        <time>2020-07-22T09:22:30.236Z</time>
      </trkpt>
      <trkpt lat="46.42249" lon="7.43825">
        <ele>1212.04</ele>
        <time>2020-07-22T09:22:31.468Z</time>
      </trkpt>
      <trkpt lat="46.42254" lon="7.43819">
        <ele>1211.22</ele>
        <time>2020-07-22T09:22:32.875Z</time>
      </trkpt>
      <trkpt lat="46.42255" lon="7.43815">
        <ele>1209.81</ele>
        <time>2020-07-22T09:22:33.511Z</time>
      </trkpt>
      <trkpt lat="46.42262" lon="7.43808">
        <ele>1209.69</ele>
        <time>2020-07-22T09:22:36.318Z</time>
      </trkpt>
      <trkpt lat="46.42267" lon="7.43808">
        <ele>1208.94</ele>
        <time>2020-07-22T09:22:37.402Z</time>
      </trkpt>
      <trkpt lat="46.42275" lon="7.4381">
        <ele>1207.92</ele>
        <time>2020-07-22T09:22:39.162Z</time>
      </trkpt>
      <trkpt lat="46.4228" lon="7.43812">
        <ele>1207.7</ele>
        <time>2020-07-22T09:22:40.424Z</time>
      </trkpt>
      <trkpt lat="46.42285" lon="7.43814">
        <ele>1205.79</ele>
        <time>2020-07-22T09:22:41.549Z</time>
      </trkpt>
      <trkpt lat="46.42299" lon="7.43827">
        <ele>1205.15</ele>
        <time>2020-07-22T09:22:45.747Z</time>
      </trkpt>
      <trkpt lat="46.42299" lon="7.43826">
        <ele>1205.15</ele>
        <time>2020-07-22T09:22:46.387Z</time>
      </trkpt>
      <trkpt lat="46.423" lon="7.43827">
        <ele>1204.51</ele>
        <time>2020-07-22T09:22:46.651Z</time>
      </trkpt>
      <trkpt lat="46.4231" lon="7.43837">
        <ele>1204.31</ele>
        <time>2020-07-22T09:22:50.545Z</time>
      </trkpt>
      <trkpt lat="46.42318" lon="7.43843">
        <ele>1204.11</ele>
        <time>2020-07-22T09:22:53.243Z</time>
      </trkpt>
      <trkpt lat="46.42321" lon="7.43842">
        <ele>1203.38</ele>
        <time>2020-07-22T09:22:53.911Z</time>
      </trkpt>
      <trkpt lat="46.42325" lon="7.43845">
        <ele>1203.7</ele>
        <time>2020-07-22T09:23:02.400Z</time>
      </trkpt>
      <trkpt lat="46.42329" lon="7.43851">
        <ele>1203.21</ele>
        <time>2020-07-22T09:23:03.647Z</time>
      </trkpt>
      <trkpt lat="46.42332" lon="7.43853">
        <ele>1202.9</ele>
        <time>2020-07-22T09:23:04.363Z</time>
      </trkpt>
      <trkpt lat="46.42337" lon="7.43854">
        <ele>1201.61</ele>
        <time>2020-07-22T09:23:05.457Z</time>
      </trkpt>
      <trkpt lat="46.42346" lon="7.43856">
        <ele>1201.02</ele>
        <time>2020-07-22T09:23:07.292Z</time>
      </trkpt>
      <trkpt lat="46.42353" lon="7.43856">
        <ele>1200.61</ele>
        <time>2020-07-22T09:23:08.773Z</time>
      </trkpt>
      <trkpt lat="46.42361" lon="7.43858">
        <ele>1200.91</ele>
        <time>2020-07-22T09:23:20.178Z</time>
      </trkpt>
      <trkpt lat="46.42367" lon="7.4386">
        <ele>1200.46</ele>
        <time>2020-07-22T09:23:21.513Z</time>
      </trkpt>
      <trkpt lat="46.42379" lon="7.43862">
        <ele>1201.1</ele>
        <time>2020-07-22T09:23:41.533Z</time>
      </trkpt>
      <trkpt lat="46.42391" lon="7.43862">
        <ele>1201.08</ele>
        <time>2020-07-22T09:23:52.407Z</time>
      </trkpt>
      <trkpt lat="46.42401" lon="7.43864">
        <ele>1202.83</ele>
        <time>2020-07-22T09:24:28.592Z</time>
      </trkpt>
      <trkpt lat="46.42415" lon="7.43866">
        <ele>1204.67</ele>
        <time>2020-07-22T09:25:17.168Z</time>
      </trkpt>
      <trkpt lat="46.42426" lon="7.43867">
        <ele>1204.22</ele>
        <time>2020-07-22T09:25:19.890Z</time>
      </trkpt>
      <trkpt lat="46.42434" lon="7.43869">
        <ele>1204.36</ele>
        <time>2020-07-22T09:25:28.850Z</time>
      </trkpt>
      <trkpt lat="46.42448" lon="7.43864">
        <ele>1199.22</ele>
        <time>2020-07-22T09:25:31.976Z</time>
      </trkpt>
      <trkpt lat="46.42458" lon="7.43858">
        <ele>1196.66</ele>
        <time>2020-07-22T09:25:34.322Z</time>
      </trkpt>
      <trkpt lat="46.42463" lon="7.43855">
        <ele>1197.02</ele>
        <time>2020-07-22T09:25:44.183Z</time>
      </trkpt>
      <trkpt lat="46.42467" lon="7.43854">
        <ele>1196.66</ele>
        <time>2020-07-22T09:25:45.063Z</time>
      </trkpt>
      <trkpt lat="46.42476" lon="7.43857">
        <ele>1196.41</ele>
        <time>2020-07-22T09:25:47.684Z</time>
      </trkpt>
      <trkpt lat="46.42482" lon="7.43857">
        <ele>1196.09</ele>
        <time>2020-07-22T09:25:49.010Z</time>
      </trkpt>
      <trkpt lat="46.4249" lon="7.43857">
        <ele>1195.76</ele>
        <time>2020-07-22T09:25:50.978Z</time>
      </trkpt>
      <trkpt lat="46.425" lon="7.43855">
        <ele>1194.5</ele>
        <time>2020-07-22T09:25:53.167Z</time>
      </trkpt>
      <trkpt lat="46.42512" lon="7.43856">
        <ele>1194.4</ele>
        <time>2020-07-22T09:25:57.448Z</time>
      </trkpt>
      <trkpt lat="46.42535" lon="7.43862">
        <ele>1193.06</ele>
        <time>2020-07-22T09:26:02.443Z</time>
      </trkpt>
      <trkpt lat="46.42546" lon="7.43869">
        <ele>1191.63</ele>
        <time>2020-07-22T09:26:05.047Z</time>
      </trkpt>
      <trkpt lat="46.42569" lon="7.43875">
        <ele>1190.97</ele>
        <time>2020-07-22T09:26:11.596Z</time>
      </trkpt>
      <trkpt lat="46.42577" lon="7.43876">
        <ele>1191.18</ele>
        <time>2020-07-22T09:26:21.409Z</time>
      </trkpt>
      <trkpt lat="46.42585" lon="7.43876">
        <ele>1190.1</ele>
        <time>2020-07-22T09:26:23.144Z</time>
      </trkpt>
      <trkpt lat="46.42591" lon="7.43875">
        <ele>1190.09</ele>
        <time>2020-07-22T09:26:28.618Z</time>
      </trkpt>
      <trkpt lat="46.42591" lon="7.43875">
        <ele>1190.09</ele>
        <time>2020-07-22T09:26:28.618Z</time>
      </trkpt>
      <trkpt lat="46.42594" lon="7.43874">
        <ele>1190.07</ele>
        <time>2020-07-22T09:26:31.220Z</time>
      </trkpt>
      <trkpt lat="46.426" lon="7.43871">
        <ele>1190.12</ele>
        <time>2020-07-22T09:26:37.576Z</time>
      </trkpt>
      <trkpt lat="46.42606" lon="7.43864">
        <ele>1189.62</ele>
        <time>2020-07-22T09:26:39.126Z</time>
      </trkpt>
      <trkpt lat="46.42609" lon="7.43861">
        <ele>1189.26</ele>
        <time>2020-07-22T09:26:39.916Z</time>
      </trkpt>
      <trkpt lat="46.42614" lon="7.43863">
        <ele>1189.28</ele>
        <time>2020-07-22T09:26:44.912Z</time>
      </trkpt>
      <trkpt lat="46.42621" lon="7.43867">
        <ele>1189.26</ele>
        <time>2020-07-22T09:26:51.631Z</time>
      </trkpt>
      <trkpt lat="46.42627" lon="7.43873">
        <ele>1189.28</ele>
        <time>2020-07-22T09:26:58.578Z</time>
      </trkpt>
      <trkpt lat="46.42628" lon="7.43876">
        <ele>1189.09</ele>
        <time>2020-07-22T09:26:59.076Z</time>
      </trkpt>
      <trkpt lat="46.42631" lon="7.43878">
        <ele>1188.75</ele>
        <time>2020-07-22T09:26:59.792Z</time>
      </trkpt>
      <trkpt lat="46.42637" lon="7.43881">
        <ele>1188.42</ele>
        <time>2020-07-22T09:27:01.210Z</time>
      </trkpt>
      <trkpt lat="46.42646" lon="7.43892">
        <ele>1187.83</ele>
        <time>2020-07-22T09:27:03.882Z</time>
      </trkpt>
      <trkpt lat="46.42666" lon="7.43922">
        <ele>1187.06</ele>
        <time>2020-07-22T09:27:12.074Z</time>
      </trkpt>
      <trkpt lat="46.42671" lon="7.43927">
        <ele>1186.61</ele>
        <time>2020-07-22T09:27:13.391Z</time>
      </trkpt>
      <trkpt lat="46.42679" lon="7.43929">
        <ele>1186.3</ele>
        <time>2020-07-22T09:27:15.447Z</time>
      </trkpt>
      <trkpt lat="46.42687" lon="7.43929">
        <ele>1185.68</ele>
        <time>2020-07-22T09:27:17.182Z</time>
      </trkpt>
      <trkpt lat="46.42694" lon="7.43925">
        <ele>1185.48</ele>
        <time>2020-07-22T09:27:19.329Z</time>
      </trkpt>
      <trkpt lat="46.42702" lon="7.43923">
        <ele>1185.46</ele>
        <time>2020-07-22T09:27:26.598Z</time>
      </trkpt>
      <trkpt lat="46.42713" lon="7.43923">
        <ele>1185.73</ele>
        <time>2020-07-22T09:27:39.786Z</time>
      </trkpt>
      <trkpt lat="46.42727" lon="7.43923">
        <ele>1184.54</ele>
        <time>2020-07-22T09:27:42.822Z</time>
      </trkpt>
      <trkpt lat="46.42737" lon="7.43924">
        <ele>1183.69</ele>
        <time>2020-07-22T09:27:44.995Z</time>
      </trkpt>
      <trkpt lat="46.42744" lon="7.43927">
        <ele>1183.19</ele>
        <time>2020-07-22T09:27:46.578Z</time>
      </trkpt>
      <trkpt lat="46.42753" lon="7.43933">
        <ele>1182.92</ele>
        <time>2020-07-22T09:27:49.383Z</time>
      </trkpt>
      <trkpt lat="46.42752" lon="7.43933">
        <ele>1182.92</ele>
        <time>2020-07-22T09:27:50.313Z</time>
      </trkpt>
      <trkpt lat="46.42768" lon="7.43943">
        <ele>1182.66</ele>
        <time>2020-07-22T09:27:56.006Z</time>
      </trkpt>
      <trkpt lat="46.42782" lon="7.43951">
        <ele>1182.54</ele>
        <time>2020-07-22T09:28:01.390Z</time>
      </trkpt>
      <trkpt lat="46.42791" lon="7.43955">
        <ele>1182.24</ele>
        <time>2020-07-22T09:28:03.929Z</time>
      </trkpt>
      <trkpt lat="46.42805" lon="7.43965">
        <ele>1181.78</ele>
        <time>2020-07-22T09:28:08.246Z</time>
      </trkpt>
      <trkpt lat="46.42807" lon="7.43968">
        <ele>1181.95</ele>
        <time>2020-07-22T09:28:13.217Z</time>
      </trkpt>
      <trkpt lat="46.4281" lon="7.43977">
        <ele>1181.42</ele>
        <time>2020-07-22T09:28:14.711Z</time>
      </trkpt>
      <trkpt lat="46.42816" lon="7.43988">
        <ele>1181.24</ele>
        <time>2020-07-22T09:28:17.731Z</time>
      </trkpt>
      <trkpt lat="46.4283" lon="7.44012">
        <ele>1182.1</ele>
        <time>2020-07-22T09:28:49.373Z</time>
      </trkpt>
      <trkpt lat="46.42839" lon="7.44027">
        <ele>1182.17</ele>
        <time>2020-07-22T09:29:02.737Z</time>
      </trkpt>
      <trkpt lat="46.42846" lon="7.44038">
        <ele>1182.75</ele>
        <time>2020-07-22T09:29:20.216Z</time>
      </trkpt>
      <trkpt lat="46.42849" lon="7.44044">
        <ele>1182.6</ele>
        <time>2020-07-22T09:29:21.631Z</time>
      </trkpt>
      <trkpt lat="46.42854" lon="7.44047">
        <ele>1182.31</ele>
        <time>2020-07-22T09:29:22.824Z</time>
      </trkpt>
      <trkpt lat="46.4286" lon="7.44049">
        <ele>1181.29</ele>
        <time>2020-07-22T09:29:24.159Z</time>
      </trkpt>
      <trkpt lat="46.42866" lon="7.44049">
        <ele>1181.12</ele>
        <time>2020-07-22T09:29:25.839Z</time>
      </trkpt>
      <trkpt lat="46.42869" lon="7.44049">
        <ele>1181.03</ele>
        <time>2020-07-22T09:29:26.664Z</time>
      </trkpt>
      <trkpt lat="46.42875" lon="7.44047">
        <ele>1180.15</ele>
        <time>2020-07-22T09:29:27.999Z</time>
      </trkpt>
      <trkpt lat="46.42882" lon="7.44044">
        <ele>1179.12</ele>
        <time>2020-07-22T09:29:29.582Z</time>
      </trkpt>
      <trkpt lat="46.42886" lon="7.44043">
        <ele>1178.55</ele>
        <time>2020-07-22T09:29:30.462Z</time>
      </trkpt>
      <trkpt lat="46.42891" lon="7.44043">
        <ele>1177.86</ele>
        <time>2020-07-22T09:29:31.546Z</time>
      </trkpt>
      <trkpt lat="46.42896" lon="7.44043">
        <ele>1177.09</ele>
        <time>2020-07-22T09:29:32.630Z</time>
      </trkpt>
      <trkpt lat="46.42903" lon="7.44044">
        <ele>1176.75</ele>
        <time>2020-07-22T09:29:34.253Z</time>
      </trkpt>
      <trkpt lat="46.42909" lon="7.44045">
        <ele>1176.46</ele>
        <time>2020-07-22T09:29:35.650Z</time>
      </trkpt>
      <trkpt lat="46.42915" lon="7.44047">
        <ele>1176.06</ele>
        <time>2020-07-22T09:29:36.889Z</time>
      </trkpt>
      <trkpt lat="46.42938" lon="7.44057">
        <ele>1175.7</ele>
        <time>2020-07-22T09:29:44.729Z</time>
      </trkpt>
      <trkpt lat="46.42946" lon="7.44062">
        <ele>1175.89</ele>
        <time>2020-07-22T09:29:54.845Z</time>
      </trkpt>
      <trkpt lat="46.4295" lon="7.44067">
        <ele>1175.92</ele>
        <time>2020-07-22T09:30:00.021Z</time>
      </trkpt>
      <trkpt lat="46.42953" lon="7.44073">
        <ele>1175.71</ele>
        <time>2020-07-22T09:30:01.280Z</time>
      </trkpt>
      <trkpt lat="46.42957" lon="7.44085">
        <ele>1175.39</ele>
        <time>2020-07-22T09:30:03.686Z</time>
      </trkpt>
      <trkpt lat="46.42962" lon="7.44097">
        <ele>1174.66</ele>
        <time>2020-07-22T09:30:05.781Z</time>
      </trkpt>
      <trkpt lat="46.42968" lon="7.44106">
        <ele>1174.14</ele>
        <time>2020-07-22T09:30:07.583Z</time>
      </trkpt>
      <trkpt lat="46.42979" lon="7.44115">
        <ele>1173.32</ele>
        <time>2020-07-22T09:30:10.125Z</time>
      </trkpt>
      <trkpt lat="46.42984" lon="7.44122">
        <ele>1172.8</ele>
        <time>2020-07-22T09:30:11.631Z</time>
      </trkpt>
      <trkpt lat="46.42992" lon="7.44136">
        <ele>1172.58</ele>
        <time>2020-07-22T09:30:15.598Z</time>
      </trkpt>
      <trkpt lat="46.43" lon="7.44146">
        <ele>1172.47</ele>
        <time>2020-07-22T09:30:19.254Z</time>
      </trkpt>
      <trkpt lat="46.43002" lon="7.44149">
        <ele>1172.41</ele>
        <time>2020-07-22T09:30:20.130Z</time>
      </trkpt>
      <trkpt lat="46.43002" lon="7.44148">
        <ele>1172.41</ele>
        <time>2020-07-22T09:30:20.770Z</time>
      </trkpt>
      <trkpt lat="46.43007" lon="7.44154">
        <ele>1172.35</ele>
        <time>2020-07-22T09:30:23.052Z</time>
      </trkpt>
      <trkpt lat="46.43011" lon="7.44161">
        <ele>1172.3</ele>
        <time>2020-07-22T09:30:25.295Z</time>
      </trkpt>
      <trkpt lat="46.43024" lon="7.44184">
        <ele>1172.33</ele>
        <time>2020-07-22T09:30:44.606Z</time>
      </trkpt>
      <trkpt lat="46.43032" lon="7.44196">
        <ele>1172.23</ele>
        <time>2020-07-22T09:30:48.683Z</time>
      </trkpt>
      <trkpt lat="46.43039" lon="7.44203">
        <ele>1171.66</ele>
        <time>2020-07-22T09:30:50.527Z</time>
      </trkpt>
      <trkpt lat="46.43044" lon="7.44209">
        <ele>1171.21</ele>
        <time>2020-07-22T09:30:51.934Z</time>
      </trkpt>
      <trkpt lat="46.43054" lon="7.44224">
        <ele>1169.94</ele>
        <time>2020-07-22T09:30:55.053Z</time>
      </trkpt>
      <trkpt lat="46.43059" lon="7.4423">
        <ele>1169.42</ele>
        <time>2020-07-22T09:30:56.459Z</time>
      </trkpt>
      <trkpt lat="46.43068" lon="7.44236">
        <ele>1168.69</ele>
        <time>2020-07-22T09:30:58.607Z</time>
      </trkpt>
      <trkpt lat="46.43081" lon="7.44242">
        <ele>1168.07</ele>
        <time>2020-07-22T09:31:01.836Z</time>
      </trkpt>
      <trkpt lat="46.43086" lon="7.44246">
        <ele>1167.98</ele>
        <time>2020-07-22T09:31:03.683Z</time>
      </trkpt>
      <trkpt lat="46.43092" lon="7.44253">
        <ele>1167.68</ele>
        <time>2020-07-22T09:31:05.619Z</time>
      </trkpt>
      <trkpt lat="46.431" lon="7.44262">
        <ele>1167.57</ele>
        <time>2020-07-22T09:31:09.103Z</time>
      </trkpt>
      <trkpt lat="46.43107" lon="7.44273">
        <ele>1167.84</ele>
        <time>2020-07-22T09:31:21.716Z</time>
      </trkpt>
      <trkpt lat="46.43112" lon="7.4428">
        <ele>1168.32</ele>
        <time>2020-07-22T09:31:34.620Z</time>
      </trkpt>
      <trkpt lat="46.43115" lon="7.44289">
        <ele>1168.43</ele>
        <time>2020-07-22T09:31:42.120Z</time>
      </trkpt>
      <trkpt lat="46.43118" lon="7.44298">
        <ele>1168.03</ele>
        <time>2020-07-22T09:31:43.585Z</time>
      </trkpt>
      <trkpt lat="46.43121" lon="7.44304">
        <ele>1167.69</ele>
        <time>2020-07-22T09:31:44.600Z</time>
      </trkpt>
      <trkpt lat="46.43128" lon="7.44309">
        <ele>1167.43</ele>
        <time>2020-07-22T09:31:46.674Z</time>
      </trkpt>
      <trkpt lat="46.43135" lon="7.44312">
        <ele>1167.14</ele>
        <time>2020-07-22T09:31:48.496Z</time>
      </trkpt>
      <trkpt lat="46.43143" lon="7.44316">
        <ele>1165.04</ele>
        <time>2020-07-22T09:31:50.331Z</time>
      </trkpt>
      <trkpt lat="46.43155" lon="7.44322">
        <ele>1161.8</ele>
        <time>2020-07-22T09:31:53.083Z</time>
      </trkpt>
      <trkpt lat="46.43164" lon="7.44327">
        <ele>1159.61</ele>
        <time>2020-07-22T09:31:55.173Z</time>
      </trkpt>
      <trkpt lat="46.43174" lon="7.44334">
        <ele>1161.89</ele>
        <time>2020-07-22T09:32:34.972Z</time>
      </trkpt>
      <trkpt lat="46.43183" lon="7.44341">
        <ele>1162.19</ele>
        <time>2020-07-22T09:32:47.956Z</time>
      </trkpt>
      <trkpt lat="46.43187" lon="7.44346">
        <ele>1162.06</ele>
        <time>2020-07-22T09:32:49.496Z</time>
      </trkpt>
      <trkpt lat="46.43194" lon="7.44349">
        <ele>1162.59</ele>
        <time>2020-07-22T09:33:03.420Z</time>
      </trkpt>
      <trkpt lat="46.43205" lon="7.44352">
        <ele>1164.27</ele>
        <time>2020-07-22T09:33:43.541Z</time>
      </trkpt>
      <trkpt lat="46.43211" lon="7.44355">
        <ele>1164.19</ele>
        <time>2020-07-22T09:33:45.676Z</time>
      </trkpt>
      <trkpt lat="46.43215" lon="7.44361">
        <ele>1163.67</ele>
        <time>2020-07-22T09:33:46.924Z</time>
      </trkpt>
      <trkpt lat="46.43219" lon="7.44372">
        <ele>1163.34</ele>
        <time>2020-07-22T09:33:49.089Z</time>
      </trkpt>
      <trkpt lat="46.43222" lon="7.44376">
        <ele>1163.23</ele>
        <time>2020-07-22T09:33:50.246Z</time>
      </trkpt>
      <trkpt lat="46.43224" lon="7.4438">
        <ele>1163.01</ele>
        <time>2020-07-22T09:33:50.933Z</time>
      </trkpt>
      <trkpt lat="46.43227" lon="7.44383">
        <ele>1163.16</ele>
        <time>2020-07-22T09:33:56.369Z</time>
      </trkpt>
      <trkpt lat="46.43236" lon="7.44393">
        <ele>1163.27</ele>
        <time>2020-07-22T09:34:07.932Z</time>
      </trkpt>
      <trkpt lat="46.4324" lon="7.44398">
        <ele>1163.16</ele>
        <time>2020-07-22T09:34:09.539Z</time>
      </trkpt>
      <trkpt lat="46.43243" lon="7.44404">
        <ele>1163.1</ele>
        <time>2020-07-22T09:34:11.278Z</time>
      </trkpt>
      <trkpt lat="46.43248" lon="7.44411">
        <ele>1162.83</ele>
        <time>2020-07-22T09:34:13.026Z</time>
      </trkpt>
      <trkpt lat="46.4325" lon="7.44414">
        <ele>1162.96</ele>
        <time>2020-07-22T09:34:17.558Z</time>
      </trkpt>
      <trkpt lat="46.43252" lon="7.44416">
        <ele>1163.07</ele>
        <time>2020-07-22T09:34:21.387Z</time>
      </trkpt>
      <trkpt lat="46.43255" lon="7.44416">
        <ele>1163.29</ele>
        <time>2020-07-22T09:34:27.142Z</time>
      </trkpt>
      <trkpt lat="46.43259" lon="7.44416">
        <ele>1163.81</ele>
        <time>2020-07-22T09:34:40.802Z</time>
      </trkpt>
      <trkpt lat="46.43263" lon="7.44417">
        <ele>1164.39</ele>
        <time>2020-07-22T09:34:55.352Z</time>
      </trkpt>
      <trkpt lat="46.43266" lon="7.44419">
        <ele>1164.41</ele>
        <time>2020-07-22T09:34:58.600Z</time>
      </trkpt>
      <trkpt lat="46.43271" lon="7.44426">
        <ele>1164.81</ele>
        <time>2020-07-22T09:35:10.480Z</time>
      </trkpt>
      <trkpt lat="46.43277" lon="7.44431">
        <ele>1165.55</ele>
        <time>2020-07-22T09:35:28.417Z</time>
      </trkpt>
      <trkpt lat="46.43282" lon="7.44433">
        <ele>1166.12</ele>
        <time>2020-07-22T09:35:42.290Z</time>
      </trkpt>
      <trkpt lat="46.43288" lon="7.44434">
        <ele>1165.97</ele>
        <time>2020-07-22T09:35:44.046Z</time>
      </trkpt>
      <trkpt lat="46.43294" lon="7.44436">
        <ele>1165.88</ele>
        <time>2020-07-22T09:35:46.066Z</time>
      </trkpt>
      <trkpt lat="46.43302" lon="7.4444">
        <ele>1165.69</ele>
        <time>2020-07-22T09:35:48.594Z</time>
      </trkpt>
      <trkpt lat="46.43307" lon="7.44443">
        <ele>1165.67</ele>
        <time>2020-07-22T09:35:53.353Z</time>
      </trkpt>
      <trkpt lat="46.43311" lon="7.44446">
        <ele>1165.59</ele>
        <time>2020-07-22T09:35:54.774Z</time>
      </trkpt>
      <trkpt lat="46.43314" lon="7.44451">
        <ele>1165.62</ele>
        <time>2020-07-22T09:35:59.291Z</time>
      </trkpt>
      <trkpt lat="46.43315" lon="7.44456">
        <ele>1165.24</ele>
        <time>2020-07-22T09:36:00.069Z</time>
      </trkpt>
      <trkpt lat="46.43316" lon="7.4446">
        <ele>1165.17</ele>
        <time>2020-07-22T09:36:00.932Z</time>
      </trkpt>
      <trkpt lat="46.43316" lon="7.44465">
        <ele>1165.2</ele>
        <time>2020-07-22T09:36:04.412Z</time>
      </trkpt>
      <trkpt lat="46.43318" lon="7.44469">
        <ele>1165</ele>
        <time>2020-07-22T09:36:05.132Z</time>
      </trkpt>
      <trkpt lat="46.4332" lon="7.44472">
        <ele>1164.84</ele>
        <time>2020-07-22T09:36:05.755Z</time>
      </trkpt>
      <trkpt lat="46.43321" lon="7.44474">
        <ele>1164.78</ele>
        <time>2020-07-22T09:36:06.199Z</time>
      </trkpt>
      <trkpt lat="46.43321" lon="7.44473">
        <ele>1164.78</ele>
        <time>2020-07-22T09:36:06.840Z</time>
      </trkpt>
      <trkpt lat="46.43322" lon="7.44475">
        <ele>1164.71</ele>
        <time>2020-07-22T09:36:07.259Z</time>
      </trkpt>
      <trkpt lat="46.43325" lon="7.44476">
        <ele>1164.56</ele>
        <time>2020-07-22T09:36:07.967Z</time>
      </trkpt>
      <trkpt lat="46.43335" lon="7.44473">
        <ele>1164.21</ele>
        <time>2020-07-22T09:36:10.655Z</time>
      </trkpt>
      <trkpt lat="46.43343" lon="7.44472">
        <ele>1163.45</ele>
        <time>2020-07-22T09:36:12.396Z</time>
      </trkpt>
      <trkpt lat="46.43354" lon="7.44473">
        <ele>1163.41</ele>
        <time>2020-07-22T09:36:22.100Z</time>
      </trkpt>
      <trkpt lat="46.43357" lon="7.44475">
        <ele>1163.66</ele>
        <time>2020-07-22T09:36:28.552Z</time>
      </trkpt>
      <trkpt lat="46.43359" lon="7.44475">
        <ele>1163.73</ele>
        <time>2020-07-22T09:36:31.288Z</time>
      </trkpt>
      <trkpt lat="46.43361" lon="7.44476">
        <ele>1163.67</ele>
        <time>2020-07-22T09:36:31.880Z</time>
      </trkpt>
      <trkpt lat="46.43365" lon="7.44481">
        <ele>1163.31</ele>
        <time>2020-07-22T09:36:33.025Z</time>
      </trkpt>
      <trkpt lat="46.43372" lon="7.44483">
        <ele>1163.81</ele>
        <time>2020-07-22T09:36:46.375Z</time>
      </trkpt>
      <trkpt lat="46.43375" lon="7.44485">
        <ele>1163.86</ele>
        <time>2020-07-22T09:36:49.937Z</time>
      </trkpt>
      <trkpt lat="46.43382" lon="7.44492">
        <ele>1163.66</ele>
        <time>2020-07-22T09:36:52.446Z</time>
      </trkpt>
      <trkpt lat="46.43385" lon="7.44496">
        <ele>1163.85</ele>
        <time>2020-07-22T09:36:58.924Z</time>
      </trkpt>
      <trkpt lat="46.43387" lon="7.44498">
        <ele>1163.76</ele>
        <time>2020-07-22T09:36:59.546Z</time>
      </trkpt>
      <trkpt lat="46.43392" lon="7.44502">
        <ele>1163.92</ele>
        <time>2020-07-22T09:37:06.685Z</time>
      </trkpt>
      <trkpt lat="46.43395" lon="7.44503">
        <ele>1163.89</ele>
        <time>2020-07-22T09:37:07.760Z</time>
      </trkpt>
      <trkpt lat="46.43397" lon="7.44503">
        <ele>1164.09</ele>
        <time>2020-07-22T09:37:12.594Z</time>
      </trkpt>
      <trkpt lat="46.434" lon="7.44501">
        <ele>1164.24</ele>
        <time>2020-07-22T09:37:17.803Z</time>
      </trkpt>
      <trkpt lat="46.43403" lon="7.44501">
        <ele>1164.39</ele>
        <time>2020-07-22T09:37:22.678Z</time>
      </trkpt>
      <trkpt lat="46.43407" lon="7.44501">
        <ele>1164.66</ele>
        <time>2020-07-22T09:37:30.020Z</time>
      </trkpt>
      <trkpt lat="46.43408" lon="7.44502">
        <ele>1164.29</ele>
        <time>2020-07-22T09:37:30.283Z</time>
      </trkpt>
      <trkpt lat="46.4341" lon="7.44506">
        <ele>1163.71</ele>
        <time>2020-07-22T09:37:31.022Z</time>
      </trkpt>
      <trkpt lat="46.43412" lon="7.44508">
        <ele>1163.44</ele>
        <time>2020-07-22T09:37:31.548Z</time>
      </trkpt>
      <trkpt lat="46.43414" lon="7.44509">
        <ele>1163.52</ele>
        <time>2020-07-22T09:37:34.556Z</time>
      </trkpt>
      <trkpt lat="46.43418" lon="7.44511">
        <ele>1163.67</ele>
        <time>2020-07-22T09:37:40.379Z</time>
      </trkpt>
      <trkpt lat="46.43424" lon="7.44513">
        <ele>1163.94</ele>
        <time>2020-07-22T09:37:49.942Z</time>
      </trkpt>
      <trkpt lat="46.43429" lon="7.44515">
        <ele>1164.06</ele>
        <time>2020-07-22T09:37:56.058Z</time>
      </trkpt>
      <trkpt lat="46.43434" lon="7.44518">
        <ele>1164.04</ele>
        <time>2020-07-22T09:38:00.817Z</time>
      </trkpt>
      <trkpt lat="46.43439" lon="7.44522">
        <ele>1163.85</ele>
        <time>2020-07-22T09:38:02.336Z</time>
      </trkpt>
      <trkpt lat="46.43443" lon="7.44526">
        <ele>1163.61</ele>
        <time>2020-07-22T09:38:03.446Z</time>
      </trkpt>
      <trkpt lat="46.43447" lon="7.44531">
        <ele>1163.45</ele>
        <time>2020-07-22T09:38:04.893Z</time>
      </trkpt>
      <trkpt lat="46.43451" lon="7.44535">
        <ele>1164.71</ele>
        <time>2020-07-22T09:38:22.307Z</time>
      </trkpt>
      <trkpt lat="46.43454" lon="7.4454">
        <ele>1166.21</ele>
        <time>2020-07-22T09:38:38.685Z</time>
      </trkpt>
      <trkpt lat="46.43457" lon="7.44546">
        <ele>1167.66</ele>
        <time>2020-07-22T09:38:56.998Z</time>
      </trkpt>
      <trkpt lat="46.43461" lon="7.44554">
        <ele>1169.79</ele>
        <time>2020-07-22T09:39:21.414Z</time>
      </trkpt>
      <trkpt lat="46.43463" lon="7.44557">
        <ele>1170.23</ele>
        <time>2020-07-22T09:39:31.726Z</time>
      </trkpt>
      <trkpt lat="46.43465" lon="7.44565">
        <ele>1171.04</ele>
        <time>2020-07-22T09:39:52.750Z</time>
      </trkpt>
      <trkpt lat="46.43468" lon="7.44573">
        <ele>1171.31</ele>
        <time>2020-07-22T09:40:02.376Z</time>
      </trkpt>
      <trkpt lat="46.43471" lon="7.44578">
        <ele>1172.34</ele>
        <time>2020-07-22T09:40:18.753Z</time>
      </trkpt>
      <trkpt lat="46.43472" lon="7.44584">
        <ele>1172.93</ele>
        <time>2020-07-22T09:40:34.003Z</time>
      </trkpt>
      <trkpt lat="46.43473" lon="7.44589">
        <ele>1173.5</ele>
        <time>2020-07-22T09:40:46.865Z</time>
      </trkpt>
      <trkpt lat="46.43474" lon="7.44592">
        <ele>1173.67</ele>
        <time>2020-07-22T09:40:51.294Z</time>
      </trkpt>
      <trkpt lat="46.43475" lon="7.44598">
        <ele>1173.47</ele>
        <time>2020-07-22T09:40:52.287Z</time>
      </trkpt>
      <trkpt lat="46.43476" lon="7.44603">
        <ele>1173.16</ele>
        <time>2020-07-22T09:40:53.065Z</time>
      </trkpt>
      <trkpt lat="46.43477" lon="7.44608">
        <ele>1172.7</ele>
        <time>2020-07-22T09:40:53.843Z</time>
      </trkpt>
      <trkpt lat="46.43477" lon="7.44616">
        <ele>1172.18</ele>
        <time>2020-07-22T09:40:55.039Z</time>
      </trkpt>
      <trkpt lat="46.43478" lon="7.44622">
        <ele>1172.3</ele>
        <time>2020-07-22T09:41:00.370Z</time>
      </trkpt>
      <trkpt lat="46.43479" lon="7.44629">
        <ele>1173.03</ele>
        <time>2020-07-22T09:41:18.030Z</time>
      </trkpt>
      <trkpt lat="46.43481" lon="7.44635">
        <ele>1174.21</ele>
        <time>2020-07-22T09:41:34.496Z</time>
      </trkpt>
      <trkpt lat="46.43482" lon="7.44641">
        <ele>1175.15</ele>
        <time>2020-07-22T09:41:49.745Z</time>
      </trkpt>
      <trkpt lat="46.43483" lon="7.44643">
        <ele>1175.47</ele>
        <time>2020-07-22T09:41:55.850Z</time>
      </trkpt>
      <trkpt lat="46.43484" lon="7.44645">
        <ele>1176.02</ele>
        <time>2020-07-22T09:42:01.954Z</time>
      </trkpt>
      <trkpt lat="46.43483" lon="7.44647">
        <ele>1176.21</ele>
        <time>2020-07-22T09:42:06.593Z</time>
      </trkpt>
      <trkpt lat="46.43484" lon="7.44649">
        <ele>1176.41</ele>
        <time>2020-07-22T09:42:11.551Z</time>
      </trkpt>
      <trkpt lat="46.43486" lon="7.44653">
        <ele>1177.14</ele>
        <time>2020-07-22T09:42:23.759Z</time>
      </trkpt>
      <trkpt lat="46.43487" lon="7.44658">
        <ele>1177.91</ele>
        <time>2020-07-22T09:42:36.621Z</time>
      </trkpt>
      <trkpt lat="46.43491" lon="7.44681">
        <ele>1178.32</ele>
        <time>2020-07-22T09:42:56.345Z</time>
      </trkpt>
      <trkpt lat="46.43493" lon="7.44697">
        <ele>1177.86</ele>
        <time>2020-07-22T09:42:59.108Z</time>
      </trkpt>
      <trkpt lat="46.43494" lon="7.44699">
        <ele>1177.98</ele>
        <time>2020-07-22T09:43:02.304Z</time>
      </trkpt>
      <trkpt lat="46.43495" lon="7.44701">
        <ele>1178.1</ele>
        <time>2020-07-22T09:43:05.499Z</time>
      </trkpt>
      <trkpt lat="46.43496" lon="7.44702">
        <ele>1178.07</ele>
        <time>2020-07-22T09:43:05.853Z</time>
      </trkpt>
      <trkpt lat="46.43496" lon="7.44706">
        <ele>1177.77</ele>
        <time>2020-07-22T09:43:06.451Z</time>
      </trkpt>
      <trkpt lat="46.43496" lon="7.4471">
        <ele>1177.58</ele>
        <time>2020-07-22T09:43:07.049Z</time>
      </trkpt>
      <trkpt lat="46.43498" lon="7.44713">
        <ele>1177.48</ele>
        <time>2020-07-22T09:43:07.802Z</time>
      </trkpt>
      <trkpt lat="46.43499" lon="7.44718">
        <ele>1177.27</ele>
        <time>2020-07-22T09:43:08.562Z</time>
      </trkpt>
      <trkpt lat="46.43499" lon="7.44721">
        <ele>1177.03</ele>
        <time>2020-07-22T09:43:09.010Z</time>
      </trkpt>
      <trkpt lat="46.43499" lon="7.44725">
        <ele>1176.46</ele>
        <time>2020-07-22T09:43:09.608Z</time>
      </trkpt>
      <trkpt lat="46.435" lon="7.44728">
        <ele>1176.16</ele>
        <time>2020-07-22T09:43:10.106Z</time>
      </trkpt>
      <trkpt lat="46.43502" lon="7.44734">
        <ele>1176.28</ele>
        <time>2020-07-22T09:43:15.717Z</time>
      </trkpt>
      <trkpt lat="46.43503" lon="7.4474">
        <ele>1175.96</ele>
        <time>2020-07-22T09:43:16.640Z</time>
      </trkpt>
      <trkpt lat="46.43504" lon="7.44744">
        <ele>1176.09</ele>
        <time>2020-07-22T09:43:21.228Z</time>
      </trkpt>
      <trkpt lat="46.43504" lon="7.44743">
        <ele>1176.09</ele>
        <time>2020-07-22T09:43:21.869Z</time>
      </trkpt>
      <trkpt lat="46.43504" lon="7.44747">
        <ele>1176.21</ele>
        <time>2020-07-22T09:43:26.130Z</time>
      </trkpt>
      <trkpt lat="46.43505" lon="7.44753">
        <ele>1176.03</ele>
        <time>2020-07-22T09:43:27.166Z</time>
      </trkpt>
      <trkpt lat="46.43506" lon="7.44761">
        <ele>1175.48</ele>
        <time>2020-07-22T09:43:28.381Z</time>
      </trkpt>
      <trkpt lat="46.43505" lon="7.44768">
        <ele>1174.58</ele>
        <time>2020-07-22T09:43:29.449Z</time>
      </trkpt>
      <trkpt lat="46.43506" lon="7.44773">
        <ele>1173.03</ele>
        <time>2020-07-22T09:43:30.227Z</time>
      </trkpt>
      <trkpt lat="46.43509" lon="7.44776">
        <ele>1171.77</ele>
        <time>2020-07-22T09:43:31.017Z</time>
      </trkpt>
      <trkpt lat="46.4351" lon="7.44781">
        <ele>1170.89</ele>
        <time>2020-07-22T09:43:31.795Z</time>
      </trkpt>
      <trkpt lat="46.4351" lon="7.44792">
        <ele>1173.53</ele>
        <time>2020-07-22T09:43:58.970Z</time>
      </trkpt>
      <trkpt lat="46.43509" lon="7.44803">
        <ele>1172.51</ele>
        <time>2020-07-22T09:44:00.628Z</time>
      </trkpt>
      <trkpt lat="46.4351" lon="7.4481">
        <ele>1172.04</ele>
        <time>2020-07-22T09:44:01.696Z</time>
      </trkpt>
      <trkpt lat="46.43511" lon="7.44827">
        <ele>1166.94</ele>
        <time>2020-07-22T09:44:04.246Z</time>
      </trkpt>
      <trkpt lat="46.43512" lon="7.44842">
        <ele>1165.92</ele>
        <time>2020-07-22T09:44:06.498Z</time>
      </trkpt>
      <trkpt lat="46.43514" lon="7.44851">
        <ele>1164.98</ele>
        <time>2020-07-22T09:44:07.911Z</time>
      </trkpt>
      <trkpt lat="46.43519" lon="7.44857">
        <ele>1160.67</ele>
        <time>2020-07-22T09:44:09.318Z</time>
      </trkpt>
      <trkpt lat="46.43522" lon="7.4486">
        <ele>1156.69</ele>
        <time>2020-07-22T09:44:10.108Z</time>
      </trkpt>
      <trkpt lat="46.43527" lon="7.44865">
        <ele>1152.28</ele>
        <time>2020-07-22T09:44:11.424Z</time>
      </trkpt>
      <trkpt lat="46.43537" lon="7.44877">
        <ele>1146.16</ele>
        <time>2020-07-22T09:44:14.238Z</time>
      </trkpt>
      <trkpt lat="46.43542" lon="7.44884">
        <ele>1145.04</ele>
        <time>2020-07-22T09:44:15.744Z</time>
      </trkpt>
      <trkpt lat="46.43544" lon="7.44889">
        <ele>1143.28</ele>
        <time>2020-07-22T09:44:16.608Z</time>
      </trkpt>
      <trkpt lat="46.43546" lon="7.44896">
        <ele>1144.55</ele>
        <time>2020-07-22T09:44:35.328Z</time>
      </trkpt>
      <trkpt lat="46.43547" lon="7.44905">
        <ele>1147.1</ele>
        <time>2020-07-22T09:44:57.849Z</time>
      </trkpt>
      <trkpt lat="46.4355" lon="7.44911">
        <ele>1145.36</ele>
        <time>2020-07-22T09:44:58.957Z</time>
      </trkpt>
      <trkpt lat="46.43557" lon="7.44919">
        <ele>1143.39</ele>
        <time>2020-07-22T09:45:00.889Z</time>
      </trkpt>
      <trkpt lat="46.43563" lon="7.44922">
        <ele>1140.13</ele>
        <time>2020-07-22T09:45:02.265Z</time>
      </trkpt>
      <trkpt lat="46.43576" lon="7.44929">
        <ele>1136.33</ele>
        <time>2020-07-22T09:45:05.272Z</time>
      </trkpt>
      <trkpt lat="46.43583" lon="7.44933">
        <ele>1133.61</ele>
        <time>2020-07-22T09:45:06.903Z</time>
      </trkpt>
      <trkpt lat="46.43591" lon="7.44934">
        <ele>1130</ele>
        <time>2020-07-22T09:45:08.644Z</time>
      </trkpt>
      <trkpt lat="46.43594" lon="7.44934">
        <ele>1127.48</ele>
        <time>2020-07-22T09:45:09.294Z</time>
      </trkpt>
      <trkpt lat="46.43594" lon="7.44934">
        <ele>1127.48</ele>
        <time>2020-07-22T09:45:09.294Z</time>
      </trkpt>
      <trkpt lat="46.43601" lon="7.44933">
        <ele>1124.96</ele>
        <time>2020-07-22T09:45:10.819Z</time>
      </trkpt>
      <trkpt lat="46.43607" lon="7.44936">
        <ele>1124.61</ele>
        <time>2020-07-22T09:45:12.201Z</time>
      </trkpt>
      <trkpt lat="46.43611" lon="7.44942">
        <ele>1127.21</ele>
        <time>2020-07-22T09:45:32.823Z</time>
      </trkpt>
      <trkpt lat="46.43613" lon="7.44953">
        <ele>1126.06</ele>
        <time>2020-07-22T09:45:34.523Z</time>
      </trkpt>
      <trkpt lat="46.43614" lon="7.44963">
        <ele>1125.41</ele>
        <time>2020-07-22T09:45:36.033Z</time>
      </trkpt>
      <trkpt lat="46.43617" lon="7.44968">
        <ele>1123.83</ele>
        <time>2020-07-22T09:45:37.024Z</time>
      </trkpt>
      <trkpt lat="46.43619" lon="7.44967">
        <ele>1122.74</ele>
        <time>2020-07-22T09:45:37.482Z</time>
      </trkpt>
      <trkpt lat="46.43623" lon="7.44969">
        <ele>1121.14</ele>
        <time>2020-07-22T09:45:38.400Z</time>
      </trkpt>
      <trkpt lat="46.4363" lon="7.44971">
        <ele>1118.1</ele>
        <time>2020-07-22T09:45:39.947Z</time>
      </trkpt>
      <trkpt lat="46.43641" lon="7.4497">
        <ele>1115.82</ele>
        <time>2020-07-22T09:45:42.336Z</time>
      </trkpt>
      <trkpt lat="46.43653" lon="7.44968">
        <ele>1114.28</ele>
        <time>2020-07-22T09:45:44.955Z</time>
      </trkpt>
      <trkpt lat="46.4366" lon="7.4497">
        <ele>1111.91</ele>
        <time>2020-07-22T09:45:46.502Z</time>
      </trkpt>
      <trkpt lat="46.4367" lon="7.4497">
        <ele>1109.83</ele>
        <time>2020-07-22T09:45:48.671Z</time>
      </trkpt>
      <trkpt lat="46.43677" lon="7.44971">
        <ele>1107.13</ele>
        <time>2020-07-22T09:45:50.196Z</time>
      </trkpt>
      <trkpt lat="46.43684" lon="7.44974">
        <ele>1103.94</ele>
        <time>2020-07-22T09:45:51.778Z</time>
      </trkpt>
      <trkpt lat="46.43686" lon="7.44974">
        <ele>1102.81</ele>
        <time>2020-07-22T09:45:52.212Z</time>
      </trkpt>
      <trkpt lat="46.43687" lon="7.4497">
        <ele>1100.7</ele>
        <time>2020-07-22T09:45:52.848Z</time>
      </trkpt>
      <trkpt lat="46.43682" lon="7.44964">
        <ele>1098.79</ele>
        <time>2020-07-22T09:45:54.255Z</time>
      </trkpt>
      <trkpt lat="46.43676" lon="7.4496">
        <ele>1099.25</ele>
        <time>2020-07-22T09:46:06.572Z</time>
      </trkpt>
      <trkpt lat="46.43669" lon="7.44952">
        <ele>1095.78</ele>
        <time>2020-07-22T09:46:08.504Z</time>
      </trkpt>
      <trkpt lat="46.4366" lon="7.44944">
        <ele>1093.15</ele>
        <time>2020-07-22T09:46:10.792Z</time>
      </trkpt>
      <trkpt lat="46.43655" lon="7.44943">
        <ele>1093.62</ele>
        <time>2020-07-22T09:46:22.224Z</time>
      </trkpt>
      <trkpt lat="46.43651" lon="7.44941">
        <ele>1093.95</ele>
        <time>2020-07-22T09:46:30.644Z</time>
      </trkpt>
      <trkpt lat="46.4365" lon="7.44936">
        <ele>1093.42</ele>
        <time>2020-07-22T09:46:31.421Z</time>
      </trkpt>
      <trkpt lat="46.43651" lon="7.44931">
        <ele>1091.14</ele>
        <time>2020-07-22T09:46:32.199Z</time>
      </trkpt>
      <trkpt lat="46.43654" lon="7.44929">
        <ele>1088.47</ele>
        <time>2020-07-22T09:46:32.915Z</time>
      </trkpt>
      <trkpt lat="46.43657" lon="7.4493">
        <ele>1087.26</ele>
        <time>2020-07-22T09:46:33.583Z</time>
      </trkpt>
      <trkpt lat="46.4366" lon="7.44931">
        <ele>1087.06</ele>
        <time>2020-07-22T09:46:34.202Z</time>
      </trkpt>
      <trkpt lat="46.43664" lon="7.44929">
        <ele>1087.03</ele>
        <time>2020-07-22T09:46:37.749Z</time>
      </trkpt>
      <trkpt lat="46.43671" lon="7.44917">
        <ele>1086.8</ele>
        <time>2020-07-22T09:46:41.031Z</time>
      </trkpt>
      <trkpt lat="46.43676" lon="7.4491">
        <ele>1086.83</ele>
        <time>2020-07-22T09:46:47.754Z</time>
      </trkpt>
      <trkpt lat="46.43676" lon="7.4491">
        <ele>1086.83</ele>
        <time>2020-07-22T09:46:47.754Z</time>
      </trkpt>
      <trkpt lat="46.437" lon="7.44875">
        <ele>1086.86</ele>
        <time>2020-07-22T09:47:19.634Z</time>
      </trkpt>
      <trkpt lat="46.43706" lon="7.44865">
        <ele>1087.13</ele>
        <time>2020-07-22T09:47:31.277Z</time>
      </trkpt>
      <trkpt lat="46.43715" lon="7.4487">
        <ele>1086.64</ele>
        <time>2020-07-22T09:47:33.452Z</time>
      </trkpt>
      <trkpt lat="46.43725" lon="7.44873">
        <ele>1086.09</ele>
        <time>2020-07-22T09:47:35.698Z</time>
      </trkpt>
      <trkpt lat="46.43738" lon="7.44875">
        <ele>1085.9</ele>
        <time>2020-07-22T09:47:39.992Z</time>
      </trkpt>
      <trkpt lat="46.4375" lon="7.44879">
        <ele>1086</ele>
        <time>2020-07-22T09:47:52.354Z</time>
      </trkpt>
      <trkpt lat="46.43764" lon="7.44885">
        <ele>1085.6</ele>
        <time>2020-07-22T09:47:56.482Z</time>
      </trkpt>
      <trkpt lat="46.43799" lon="7.44908">
        <ele>1084.65</ele>
        <time>2020-07-22T09:48:07.671Z</time>
      </trkpt>
      <trkpt lat="46.43812" lon="7.44917">
        <ele>1084.3</ele>
        <time>2020-07-22T09:48:11.885Z</time>
      </trkpt>
      <trkpt lat="46.43821" lon="7.44926">
        <ele>1083.56</ele>
        <time>2020-07-22T09:48:14.255Z</time>
      </trkpt>
      <trkpt lat="46.43838" lon="7.44941">
        <ele>1081.68</ele>
        <time>2020-07-22T09:48:18.569Z</time>
      </trkpt>
      <trkpt lat="46.43846" lon="7.4495">
        <ele>1082.33</ele>
        <time>2020-07-22T09:48:36.708Z</time>
      </trkpt>
      <trkpt lat="46.4385" lon="7.44956">
        <ele>1082.23</ele>
        <time>2020-07-22T09:48:38.532Z</time>
      </trkpt>
      <trkpt lat="46.4385" lon="7.44955">
        <ele>1082.23</ele>
        <time>2020-07-22T09:48:39.172Z</time>
      </trkpt>
      <trkpt lat="46.43854" lon="7.44962">
        <ele>1082.14</ele>
        <time>2020-07-22T09:48:41.235Z</time>
      </trkpt>
      <trkpt lat="46.43871" lon="7.44988">
        <ele>1081.84</ele>
        <time>2020-07-22T09:48:49.596Z</time>
      </trkpt>
      <trkpt lat="46.43875" lon="7.44994">
        <ele>1082.58</ele>
        <time>2020-07-22T09:49:08.879Z</time>
      </trkpt>
      <trkpt lat="46.43879" lon="7.45001">
        <ele>1082.9</ele>
        <time>2020-07-22T09:49:19.134Z</time>
      </trkpt>
      <trkpt lat="46.43885" lon="7.44994">
        <ele>1083.67</ele>
        <time>2020-07-22T09:49:37.743Z</time>
      </trkpt>
      <trkpt lat="46.43893" lon="7.44985">
        <ele>1083.67</ele>
        <time>2020-07-22T09:49:47.150Z</time>
      </trkpt>
      <trkpt lat="46.43897" lon="7.44982">
        <ele>1083.27</ele>
        <time>2020-07-22T09:49:48.127Z</time>
      </trkpt>
      <trkpt lat="46.43908" lon="7.44972">
        <ele>1082.19</ele>
        <time>2020-07-22T09:49:50.941Z</time>
      </trkpt>
      <trkpt lat="46.43912" lon="7.44969">
        <ele>1082.14</ele>
        <time>2020-07-22T09:49:52.486Z</time>
      </trkpt>
      <trkpt lat="46.43915" lon="7.44964">
        <ele>1081.48</ele>
        <time>2020-07-22T09:49:53.477Z</time>
      </trkpt>
      <trkpt lat="46.43915" lon="7.44964">
        <ele>1081.48</ele>
        <time>2020-07-22T09:49:53.477Z</time>
      </trkpt>
      <trkpt lat="46.4392" lon="7.44958">
        <ele>1080.82</ele>
        <time>2020-07-22T09:49:54.884Z</time>
      </trkpt>
      <trkpt lat="46.43928" lon="7.44946">
        <ele>1080.57</ele>
        <time>2020-07-22T09:49:58.350Z</time>
      </trkpt>
      <trkpt lat="46.43932" lon="7.44938">
        <ele>1080.26</ele>
        <time>2020-07-22T09:49:59.961Z</time>
      </trkpt>
      <trkpt lat="46.43937" lon="7.44924">
        <ele>1079.74</ele>
        <time>2020-07-22T09:50:02.478Z</time>
      </trkpt>
      <trkpt lat="46.43942" lon="7.44908">
        <ele>1079.56</ele>
        <time>2020-07-22T09:50:06.438Z</time>
      </trkpt>
      <trkpt lat="46.43951" lon="7.44911">
        <ele>1079.04</ele>
        <time>2020-07-22T09:50:08.428Z</time>
      </trkpt>
      <trkpt lat="46.4396" lon="7.44915">
        <ele>1078.65</ele>
        <time>2020-07-22T09:50:10.740Z</time>
      </trkpt>
      <trkpt lat="46.43965" lon="7.44919">
        <ele>1078.6</ele>
        <time>2020-07-22T09:50:12.761Z</time>
      </trkpt>
      <trkpt lat="46.43978" lon="7.44933">
        <ele>1078.28</ele>
        <time>2020-07-22T09:50:17.751Z</time>
      </trkpt>
      <trkpt lat="46.43979" lon="7.44933">
        <ele>1078.22</ele>
        <time>2020-07-22T09:50:17.960Z</time>
      </trkpt>
      <trkpt lat="46.43983" lon="7.44927">
        <ele>1077.67</ele>
        <time>2020-07-22T09:50:19.207Z</time>
      </trkpt>
      <trkpt lat="46.43988" lon="7.44919">
        <ele>1077.49</ele>
        <time>2020-07-22T09:50:21.388Z</time>
      </trkpt>
      <trkpt lat="46.44003" lon="7.44897">
        <ele>1076.33</ele>
        <time>2020-07-22T09:50:26.059Z</time>
      </trkpt>
      <trkpt lat="46.44003" lon="7.44897">
        <ele>1076.33</ele>
        <time>2020-07-22T09:50:26.059Z</time>
      </trkpt>
      <trkpt lat="46.44043" lon="7.4484">
        <ele>1075.17</ele>
        <time>2020-07-22T09:50:43.150Z</time>
      </trkpt>
      <trkpt lat="46.44076" lon="7.44791">
        <ele>1073.25</ele>
        <time>2020-07-22T09:50:54.831Z</time>
      </trkpt>
      <trkpt lat="46.44083" lon="7.44783">
        <ele>1072.97</ele>
        <time>2020-07-22T09:50:57.246Z</time>
      </trkpt>
      <trkpt lat="46.44088" lon="7.4478">
        <ele>1073</ele>
        <time>2020-07-22T09:51:02.543Z</time>
      </trkpt>
      <trkpt lat="46.44096" lon="7.44778">
        <ele>1072.57</ele>
        <time>2020-07-22T09:51:04.342Z</time>
      </trkpt>
      <trkpt lat="46.44137" lon="7.44777">
        <ele>1071.86</ele>
        <time>2020-07-22T09:51:17.355Z</time>
      </trkpt>
      <trkpt lat="46.44155" lon="7.44776">
        <ele>1071.57</ele>
        <time>2020-07-22T09:51:23.157Z</time>
      </trkpt>
      <trkpt lat="46.44167" lon="7.44775">
        <ele>1071.4</ele>
        <time>2020-07-22T09:51:27.124Z</time>
      </trkpt>
      <trkpt lat="46.4418" lon="7.44771">
        <ele>1071.21</ele>
        <time>2020-07-22T09:51:31.501Z</time>
      </trkpt>
      <trkpt lat="46.44192" lon="7.44766">
        <ele>1071.05</ele>
        <time>2020-07-22T09:51:35.691Z</time>
      </trkpt>
      <trkpt lat="46.44221" lon="7.44751">
        <ele>1070.32</ele>
        <time>2020-07-22T09:51:44.759Z</time>
      </trkpt>
      <trkpt lat="46.44221" lon="7.44751">
        <ele>1070.32</ele>
        <time>2020-07-22T09:51:44.759Z</time>
      </trkpt>
      <trkpt lat="46.44258" lon="7.44733">
        <ele>1069.59</ele>
        <time>2020-07-22T09:51:56.938Z</time>
      </trkpt>
      <trkpt lat="46.44274" lon="7.44723">
        <ele>1069.3</ele>
        <time>2020-07-22T09:52:02.511Z</time>
      </trkpt>
      <trkpt lat="46.44282" lon="7.44724">
        <ele>1069.3</ele>
        <time>2020-07-22T09:52:09.973Z</time>
      </trkpt>
      <trkpt lat="46.44293" lon="7.44721">
        <ele>1069.15</ele>
        <time>2020-07-22T09:52:13.702Z</time>
      </trkpt>
      <trkpt lat="46.44308" lon="7.44718">
        <ele>1069.09</ele>
        <time>2020-07-22T09:52:26.968Z</time>
      </trkpt>
      <trkpt lat="46.44316" lon="7.44715">
        <ele>1068.96</ele>
        <time>2020-07-22T09:52:29.642Z</time>
      </trkpt>
      <trkpt lat="46.44364" lon="7.44689">
        <ele>1067.89</ele>
        <time>2020-07-22T09:52:45.227Z</time>
      </trkpt>
      <trkpt lat="46.44381" lon="7.44681">
        <ele>1067.71</ele>
        <time>2020-07-22T09:52:51.444Z</time>
      </trkpt>
      <trkpt lat="46.44393" lon="7.44674">
        <ele>1067.41</ele>
        <time>2020-07-22T09:52:55.275Z</time>
      </trkpt>
      <trkpt lat="46.44419" lon="7.44661">
        <ele>1067.18</ele>
        <time>2020-07-22T09:53:05.063Z</time>
      </trkpt>
      <trkpt lat="46.44456" lon="7.44642">
        <ele>1066.78</ele>
        <time>2020-07-22T09:53:18.694Z</time>
      </trkpt>
      <trkpt lat="46.44466" lon="7.44637">
        <ele>1066.62</ele>
        <time>2020-07-22T09:53:22.141Z</time>
      </trkpt>
      <trkpt lat="46.44466" lon="7.44637">
        <ele>1066.62</ele>
        <time>2020-07-22T09:53:22.141Z</time>
      </trkpt>
      <trkpt lat="46.44525" lon="7.4461">
        <ele>1066.45</ele>
        <time>2020-07-22T09:54:17.311Z</time>
      </trkpt>
      <trkpt lat="46.44572" lon="7.44589">
        <ele>1066.28</ele>
        <time>2020-07-22T09:55:00.714Z</time>
      </trkpt>
      <trkpt lat="46.44613" lon="7.44571">
        <ele>1066.2</ele>
        <time>2020-07-22T09:55:39.415Z</time>
      </trkpt>
      <trkpt lat="46.44625" lon="7.44565">
        <ele>1066.04</ele>
        <time>2020-07-22T09:55:43.687Z</time>
      </trkpt>
      <trkpt lat="46.44632" lon="7.44559">
        <ele>1066.07</ele>
        <time>2020-07-22T09:55:51.506Z</time>
      </trkpt>
      <trkpt lat="46.4464" lon="7.44549">
        <ele>1066.11</ele>
        <time>2020-07-22T09:56:01.671Z</time>
      </trkpt>
      <trkpt lat="46.44648" lon="7.44536">
        <ele>1065.89</ele>
        <time>2020-07-22T09:56:05.437Z</time>
      </trkpt>
      <trkpt lat="46.44665" lon="7.44506">
        <ele>1065.89</ele>
        <time>2020-07-22T09:56:30.309Z</time>
      </trkpt>
      <trkpt lat="46.4468" lon="7.44477">
        <ele>1065.81</ele>
        <time>2020-07-22T09:56:52.443Z</time>
      </trkpt>
      <trkpt lat="46.44705" lon="7.44434">
        <ele>1065.58</ele>
        <time>2020-07-22T09:57:25.468Z</time>
      </trkpt>
      <trkpt lat="46.4471" lon="7.44429">
        <ele>1065.56</ele>
        <time>2020-07-22T09:57:30.840Z</time>
      </trkpt>
      <trkpt lat="46.44723" lon="7.4447">
        <ele>1065.17</ele>
        <time>2020-07-22T09:57:41.314Z</time>
      </trkpt>
      <trkpt lat="46.44727" lon="7.44483">
        <ele>1065.16</ele>
        <time>2020-07-22T09:57:50.291Z</time>
      </trkpt>
      <trkpt lat="46.44727" lon="7.44482">
        <ele>1065.16</ele>
        <time>2020-07-22T09:57:50.931Z</time>
      </trkpt>
      <trkpt lat="46.44732" lon="7.445">
        <ele>1065.14</ele>
        <time>2020-07-22T09:58:03.080Z</time>
      </trkpt>
      <trkpt lat="46.44742" lon="7.44531">
        <ele>1065.28</ele>
        <time>2020-07-22T09:58:26.259Z</time>
      </trkpt>
      <trkpt lat="46.44762" lon="7.44594">
        <ele>1065.38</ele>
        <time>2020-07-22T09:59:11.543Z</time>
      </trkpt>
      <trkpt lat="46.44772" lon="7.44628">
        <ele>1065.4</ele>
        <time>2020-07-22T09:59:35.387Z</time>
      </trkpt>
      <trkpt lat="46.44783" lon="7.44663">
        <ele>1065.43</ele>
        <time>2020-07-22T10:00:00.278Z</time>
      </trkpt>
      <trkpt lat="46.44783" lon="7.44662">
        <ele>1065.43</ele>
        <time>2020-07-22T10:00:00.918Z</time>
      </trkpt>
      <trkpt lat="46.44784" lon="7.44666">
        <ele>1065.46</ele>
        <time>2020-07-22T10:00:03.925Z</time>
      </trkpt>
      <trkpt lat="46.44804" lon="7.44731">
        <ele>1065.4</ele>
        <time>2020-07-22T10:00:48.669Z</time>
      </trkpt>
      <trkpt lat="46.44811" lon="7.44755">
        <ele>1065.59</ele>
        <time>2020-07-22T10:01:07.148Z</time>
      </trkpt>
      <trkpt lat="46.44823" lon="7.4479">
        <ele>1065.71</ele>
        <time>2020-07-22T10:01:33.246Z</time>
      </trkpt>
      <trkpt lat="46.44836" lon="7.44832">
        <ele>1066.06</ele>
        <time>2020-07-22T10:02:06.043Z</time>
      </trkpt>
      <trkpt lat="46.44848" lon="7.44871">
        <ele>1066.09</ele>
        <time>2020-07-22T10:02:33.650Z</time>
      </trkpt>
      <trkpt lat="46.44861" lon="7.44912">
        <ele>1066.3</ele>
        <time>2020-07-22T10:03:04.455Z</time>
      </trkpt>
      <trkpt lat="46.44881" lon="7.44979">
        <ele>1068.05</ele>
        <time>2020-07-22T10:04:13.073Z</time>
      </trkpt>
      <trkpt lat="46.4489" lon="7.45005">
        <ele>1068.39</ele>
        <time>2020-07-22T10:04:35.131Z</time>
      </trkpt>
      <trkpt lat="46.44884" lon="7.45018">
        <ele>1068.6</ele>
        <time>2020-07-22T10:04:47.326Z</time>
      </trkpt>
      <trkpt lat="46.44876" lon="7.45035">
        <ele>1068.86</ele>
        <time>2020-07-22T10:05:03.168Z</time>
      </trkpt>
      <trkpt lat="46.44892" lon="7.45052">
        <ele>1068.08</ele>
        <time>2020-07-22T10:05:08.136Z</time>
      </trkpt>
      <trkpt lat="46.44914" lon="7.45074">
        <ele>1067.71</ele>
        <time>2020-07-22T10:05:16.985Z</time>
      </trkpt>
      <trkpt lat="46.44913" lon="7.45074">
        <ele>1067.71</ele>
        <time>2020-07-22T10:05:17.915Z</time>
      </trkpt>
      <trkpt lat="46.44931" lon="7.45091">
        <ele>1067.34</ele>
        <time>2020-07-22T10:05:24.737Z</time>
      </trkpt>
      <trkpt lat="46.44941" lon="7.45104">
        <ele>1067.56</ele>
        <time>2020-07-22T10:05:39.417Z</time>
      </trkpt>
      <trkpt lat="46.4495" lon="7.45119">
        <ele>1067.87</ele>
        <time>2020-07-22T10:05:55.481Z</time>
      </trkpt>
      <trkpt lat="46.44972" lon="7.45168">
        <ele>1069.38</ele>
        <time>2020-07-22T10:06:52.502Z</time>
      </trkpt>
      <trkpt lat="46.44976" lon="7.45177">
        <ele>1069.4</ele>
        <time>2020-07-22T10:06:59.534Z</time>
      </trkpt>
      <trkpt lat="46.44983" lon="7.45192">
        <ele>1069.4</ele>
        <time>2020-07-22T10:07:11.135Z</time>
      </trkpt>
      <trkpt lat="46.44984" lon="7.45195">
        <ele>1069.37</ele>
        <time>2020-07-22T10:07:11.903Z</time>
      </trkpt>
      <trkpt lat="46.44972" lon="7.45216">
        <ele>1069.06</ele>
        <time>2020-07-22T10:07:17.928Z</time>
      </trkpt>
      <trkpt lat="46.44964" lon="7.45229">
        <ele>1069.15</ele>
        <time>2020-07-22T10:07:29.912Z</time>
      </trkpt>
      <trkpt lat="46.44956" lon="7.45244">
        <ele>1069.06</ele>
        <time>2020-07-22T10:07:40.898Z</time>
      </trkpt>
      <trkpt lat="46.44947" lon="7.45258">
        <ele>1069.04</ele>
        <time>2020-07-22T10:07:52.880Z</time>
      </trkpt>
      <trkpt lat="46.44938" lon="7.45269">
        <ele>1069.1</ele>
        <time>2020-07-22T10:08:04.351Z</time>
      </trkpt>
      <trkpt lat="46.44928" lon="7.45279">
        <ele>1069.24</ele>
        <time>2020-07-22T10:08:16.969Z</time>
      </trkpt>
      <trkpt lat="46.44918" lon="7.45289">
        <ele>1069.18</ele>
        <time>2020-07-22T10:08:27.461Z</time>
      </trkpt>
      <trkpt lat="46.44911" lon="7.45294">
        <ele>1069.2</ele>
        <time>2020-07-22T10:08:34.886Z</time>
      </trkpt>
      <trkpt lat="46.44906" lon="7.45298">
        <ele>1069.46</ele>
        <time>2020-07-22T10:08:43.900Z</time>
      </trkpt>
      <trkpt lat="46.44889" lon="7.45306">
        <ele>1069.45</ele>
        <time>2020-07-22T10:09:00.367Z</time>
      </trkpt>
      <trkpt lat="46.44883" lon="7.45309">
        <ele>1069.44</ele>
        <time>2020-07-22T10:09:06.126Z</time>
      </trkpt>
      <trkpt lat="46.44883" lon="7.45309">
        <ele>1069.44</ele>
        <time>2020-07-22T10:09:06.126Z</time>
      </trkpt>
      <trkpt lat="46.44872" lon="7.45313">
        <ele>1069.43</ele>
        <time>2020-07-22T10:09:16.524Z</time>
      </trkpt>
      <trkpt lat="46.4485" lon="7.45321">
        <ele>1069.49</ele>
        <time>2020-07-22T10:09:38.125Z</time>
      </trkpt>
      <trkpt lat="46.44826" lon="7.45329">
        <ele>1069.6</ele>
        <time>2020-07-22T10:10:01.986Z</time>
      </trkpt>
      <trkpt lat="46.44801" lon="7.45338">
        <ele>1069.79</ele>
        <time>2020-07-22T10:10:27.658Z</time>
      </trkpt>
      <trkpt lat="46.44763" lon="7.45352">
        <ele>1069.99</ele>
        <time>2020-07-22T10:11:05.879Z</time>
      </trkpt>
      <trkpt lat="46.44763" lon="7.45362">
        <ele>1069.66</ele>
        <time>2020-07-22T10:11:07.475Z</time>
      </trkpt>
      <trkpt lat="46.44764" lon="7.45369">
        <ele>1070.05</ele>
        <time>2020-07-22T10:11:17.371Z</time>
      </trkpt>
      <trkpt lat="46.44768" lon="7.45382">
        <ele>1070.35</ele>
        <time>2020-07-22T10:11:30.035Z</time>
      </trkpt>
      <trkpt lat="46.44775" lon="7.45403">
        <ele>1071.33</ele>
        <time>2020-07-22T10:11:58.178Z</time>
      </trkpt>
      <trkpt lat="46.44788" lon="7.45438">
        <ele>1073.34</ele>
        <time>2020-07-22T10:12:50.745Z</time>
      </trkpt>
      <trkpt lat="46.44791" lon="7.45448">
        <ele>1073.94</ele>
        <time>2020-07-22T10:13:05.925Z</time>
      </trkpt>
      <trkpt lat="46.44792" lon="7.45454">
        <ele>1074.48</ele>
        <time>2020-07-22T10:13:19.867Z</time>
      </trkpt>
      <trkpt lat="46.44793" lon="7.4546">
        <ele>1074.96</ele>
        <time>2020-07-22T10:13:31.618Z</time>
      </trkpt>
      <trkpt lat="46.44793" lon="7.45465">
        <ele>1075.57</ele>
        <time>2020-07-22T10:13:43.967Z</time>
      </trkpt>
      <trkpt lat="46.44793" lon="7.45471">
        <ele>1076.36</ele>
        <time>2020-07-22T10:13:58.786Z</time>
      </trkpt>
      <trkpt lat="46.44792" lon="7.45479">
        <ele>1076.85</ele>
        <time>2020-07-22T10:14:10.852Z</time>
      </trkpt>
      <trkpt lat="46.44792" lon="7.45479">
        <ele>1076.85</ele>
        <time>2020-07-22T10:14:10.852Z</time>
      </trkpt>
      <trkpt lat="46.44792" lon="7.4548">
        <ele>1077.34</ele>
        <time>2020-07-22T10:14:13.321Z</time>
      </trkpt>
      <trkpt lat="46.44792" lon="7.45489">
        <ele>1078.13</ele>
        <time>2020-07-22T10:14:33.766Z</time>
      </trkpt>
      <trkpt lat="46.44792" lon="7.45494">
        <ele>1078.66</ele>
        <time>2020-07-22T10:14:46.115Z</time>
      </trkpt>
      <trkpt lat="46.44793" lon="7.45501">
        <ele>1079.2</ele>
        <time>2020-07-22T10:14:59.252Z</time>
      </trkpt>
      <trkpt lat="46.44799" lon="7.45522">
        <ele>1081.12</ele>
        <time>2020-07-22T10:15:47.784Z</time>
      </trkpt>
      <trkpt lat="46.448" lon="7.45529">
        <ele>1081.65</ele>
        <time>2020-07-22T10:16:00.640Z</time>
      </trkpt>
      <trkpt lat="46.44802" lon="7.45542">
        <ele>1082.98</ele>
        <time>2020-07-22T10:16:33.538Z</time>
      </trkpt>
      <trkpt lat="46.44803" lon="7.45568">
        <ele>1086.21</ele>
        <time>2020-07-22T10:17:37.854Z</time>
      </trkpt>
      <trkpt lat="46.44806" lon="7.45579">
        <ele>1087.96</ele>
        <time>2020-07-22T10:18:07.073Z</time>
      </trkpt>
      <trkpt lat="46.44807" lon="7.45586">
        <ele>1089.3</ele>
        <time>2020-07-22T10:18:24.730Z</time>
      </trkpt>
      <trkpt lat="46.44806" lon="7.45593">
        <ele>1090.64</ele>
        <time>2020-07-22T10:18:42.386Z</time>
      </trkpt>
      <trkpt lat="46.44803" lon="7.456">
        <ele>1091.93</ele>
        <time>2020-07-22T10:19:02.747Z</time>
      </trkpt>
      <trkpt lat="46.44799" lon="7.45608">
        <ele>1093.63</ele>
        <time>2020-07-22T10:19:27.160Z</time>
      </trkpt>
      <trkpt lat="46.44796" lon="7.45611">
        <ele>1094.35</ele>
        <time>2020-07-22T10:19:40.219Z</time>
      </trkpt>
      <trkpt lat="46.44788" lon="7.4562">
        <ele>1096.5</ele>
        <time>2020-07-22T10:20:16.502Z</time>
      </trkpt>
      <trkpt lat="46.44785" lon="7.45624">
        <ele>1097.53</ele>
        <time>2020-07-22T10:20:31.105Z</time>
      </trkpt>
      <trkpt lat="46.44784" lon="7.45628">
        <ele>1098.31</ele>
        <time>2020-07-22T10:20:41.615Z</time>
      </trkpt>
      <trkpt lat="46.44782" lon="7.45632">
        <ele>1099.22</ele>
        <time>2020-07-22T10:20:53.821Z</time>
      </trkpt>
      <trkpt lat="46.44782" lon="7.45636">
        <ele>1100.13</ele>
        <time>2020-07-22T10:21:03.701Z</time>
      </trkpt>
      <trkpt lat="46.44782" lon="7.45639">
        <ele>1100.61</ele>
        <time>2020-07-22T10:21:11.110Z</time>
      </trkpt>
      <trkpt lat="46.44783" lon="7.45641">
        <ele>1101.11</ele>
        <time>2020-07-22T10:21:17.214Z</time>
      </trkpt>
      <trkpt lat="46.44785" lon="7.45644">
        <ele>1101.69</ele>
        <time>2020-07-22T10:21:27.524Z</time>
      </trkpt>
      <trkpt lat="46.44787" lon="7.45645">
        <ele>1102.13</ele>
        <time>2020-07-22T10:21:35.106Z</time>
      </trkpt>
      <trkpt lat="46.4479" lon="7.45646">
        <ele>1102.66</ele>
        <time>2020-07-22T10:21:46.140Z</time>
      </trkpt>
      <trkpt lat="46.44794" lon="7.45647">
        <ele>1103.66</ele>
        <time>2020-07-22T10:22:00.690Z</time>
      </trkpt>
      <trkpt lat="46.44799" lon="7.45648">
        <ele>1106.22</ele>
        <time>2020-07-22T10:22:18.782Z</time>
      </trkpt>
      <trkpt lat="46.44806" lon="7.45648">
        <ele>1107.73</ele>
        <time>2020-07-22T10:22:43.874Z</time>
      </trkpt>
      <trkpt lat="46.44816" lon="7.45648">
        <ele>1109.66</ele>
        <time>2020-07-22T10:23:19.720Z</time>
      </trkpt>
      <trkpt lat="46.44829" lon="7.45645">
        <ele>1112.52</ele>
        <time>2020-07-22T10:24:06.906Z</time>
      </trkpt>
      <trkpt lat="46.44838" lon="7.45645">
        <ele>1114.16</ele>
        <time>2020-07-22T10:24:39.167Z</time>
      </trkpt>
      <trkpt lat="46.44841" lon="7.45643">
        <ele>1114.84</ele>
        <time>2020-07-22T10:24:51.001Z</time>
      </trkpt>
      <trkpt lat="46.44846" lon="7.45639">
        <ele>1116.16</ele>
        <time>2020-07-22T10:25:11.467Z</time>
      </trkpt>
      <trkpt lat="46.44857" lon="7.45627">
        <ele>1119.88</ele>
        <time>2020-07-22T10:26:00.794Z</time>
      </trkpt>
      <trkpt lat="46.44863" lon="7.45622">
        <ele>1121.96</ele>
        <time>2020-07-22T10:26:25.595Z</time>
      </trkpt>
      <trkpt lat="46.44873" lon="7.45628">
        <ele>1126.47</ele>
        <time>2020-07-22T10:27:04.383Z</time>
      </trkpt>
      <trkpt lat="46.44881" lon="7.45638">
        <ele>1131.06</ele>
        <time>2020-07-22T10:27:42.229Z</time>
      </trkpt>
      <trkpt lat="46.44884" lon="7.4564">
        <ele>1132.3</ele>
        <time>2020-07-22T10:27:54.063Z</time>
      </trkpt>
      <trkpt lat="46.44883" lon="7.4564">
        <ele>1132.3</ele>
        <time>2020-07-22T10:27:54.993Z</time>
      </trkpt>
      <trkpt lat="46.44888" lon="7.45643">
        <ele>1133.54</ele>
        <time>2020-07-22T10:28:14.387Z</time>
      </trkpt>
      <trkpt lat="46.44894" lon="7.4564">
        <ele>1134.21</ele>
        <time>2020-07-22T10:28:30.605Z</time>
      </trkpt>
      <trkpt lat="46.44908" lon="7.45637">
        <ele>1140.35</ele>
        <time>2020-07-22T10:29:21.334Z</time>
      </trkpt>
      <trkpt lat="46.44919" lon="7.45636">
        <ele>1144.24</ele>
        <time>2020-07-22T10:30:00.842Z</time>
      </trkpt>
      <trkpt lat="46.44925" lon="7.45632">
        <ele>1145.84</ele>
        <time>2020-07-22T10:30:24.510Z</time>
      </trkpt>
      <trkpt lat="46.44931" lon="7.45623">
        <ele>1145.67</ele>
        <time>2020-07-22T10:30:27.171Z</time>
      </trkpt>
      <trkpt lat="46.44936" lon="7.45622">
        <ele>1147.79</ele>
        <time>2020-07-22T10:30:45.263Z</time>
      </trkpt>
      <trkpt lat="46.44942" lon="7.45624">
        <ele>1150.63</ele>
        <time>2020-07-22T10:31:07.331Z</time>
      </trkpt>
      <trkpt lat="46.44948" lon="7.45627">
        <ele>1153.7</ele>
        <time>2020-07-22T10:31:30.079Z</time>
      </trkpt>
      <trkpt lat="46.44955" lon="7.45628">
        <ele>1157.18</ele>
        <time>2020-07-22T10:31:55.292Z</time>
      </trkpt>
      <trkpt lat="46.44963" lon="7.45627">
        <ele>1158.84</ele>
        <time>2020-07-22T10:32:24.075Z</time>
      </trkpt>
      <trkpt lat="46.44976" lon="7.45625">
        <ele>1160.47</ele>
        <time>2020-07-22T10:33:05.676Z</time>
      </trkpt>
      <trkpt lat="46.44982" lon="7.45626">
        <ele>1162.49</ele>
        <time>2020-07-22T10:33:27.325Z</time>
      </trkpt>
      <trkpt lat="46.44988" lon="7.4563">
        <ele>1165.86</ele>
        <time>2020-07-22T10:33:50.993Z</time>
      </trkpt>
      <trkpt lat="46.44996" lon="7.45632">
        <ele>1169.11</ele>
        <time>2020-07-22T10:34:20.093Z</time>
      </trkpt>
      <trkpt lat="46.45006" lon="7.45631">
        <ele>1170.73</ele>
        <time>2020-07-22T10:34:56.024Z</time>
      </trkpt>
      <trkpt lat="46.45013" lon="7.45634">
        <ele>1174.2</ele>
        <time>2020-07-22T10:35:22.187Z</time>
      </trkpt>
      <trkpt lat="46.45016" lon="7.45639">
        <ele>1176.54</ele>
        <time>2020-07-22T10:35:38.562Z</time>
      </trkpt>
      <trkpt lat="46.45016" lon="7.45646">
        <ele>1178.84</ele>
        <time>2020-07-22T10:35:55.850Z</time>
      </trkpt>
      <trkpt lat="46.45014" lon="7.4565">
        <ele>1180.91</ele>
        <time>2020-07-22T10:36:08.056Z</time>
      </trkpt>
      <trkpt lat="46.45008" lon="7.45656">
        <ele>1181.99</ele>
        <time>2020-07-22T10:36:34.174Z</time>
      </trkpt>
      <trkpt lat="46.45008" lon="7.45656">
        <ele>1182.84</ele>
        <time>2020-07-22T10:36:34.174Z</time>
      </trkpt>
      <trkpt lat="46.45004" lon="7.45661">
        <ele>1183.69</ele>
        <time>2020-07-22T10:36:53.097Z</time>
      </trkpt>
      <trkpt lat="46.45001" lon="7.45668">
        <ele>1186.45</ele>
        <time>2020-07-22T10:37:13.457Z</time>
      </trkpt>
      <trkpt lat="46.45002" lon="7.45674">
        <ele>1188.1</ele>
        <time>2020-07-22T10:37:28.703Z</time>
      </trkpt>
      <trkpt lat="46.45006" lon="7.45677">
        <ele>1190.11</ele>
        <time>2020-07-22T10:37:44.843Z</time>
      </trkpt>
      <trkpt lat="46.45011" lon="7.45679">
        <ele>1191.6</ele>
        <time>2020-07-22T10:38:03.434Z</time>
      </trkpt>
      <trkpt lat="46.45017" lon="7.45677">
        <ele>1191.45</ele>
        <time>2020-07-22T10:38:05.234Z</time>
      </trkpt>
      <trkpt lat="46.45026" lon="7.45674">
        <ele>1191.24</ele>
        <time>2020-07-22T10:38:07.984Z</time>
      </trkpt>
      <trkpt lat="46.45044" lon="7.4567">
        <ele>1192.99</ele>
        <time>2020-07-22T10:38:50.382Z</time>
      </trkpt>
      <trkpt lat="46.4505" lon="7.45671">
        <ele>1194.36</ele>
        <time>2020-07-22T10:39:12.031Z</time>
      </trkpt>
      <trkpt lat="46.45056" lon="7.45673">
        <ele>1194.85</ele>
        <time>2020-07-22T10:39:24.441Z</time>
      </trkpt>
      <trkpt lat="46.45062" lon="7.45674">
        <ele>1195.02</ele>
        <time>2020-07-22T10:39:32.004Z</time>
      </trkpt>
      <trkpt lat="46.45065" lon="7.45676">
        <ele>1195.66</ele>
        <time>2020-07-22T10:39:43.838Z</time>
      </trkpt>
      <trkpt lat="46.45069" lon="7.45678">
        <ele>1196.3</ele>
        <time>2020-07-22T10:39:59.003Z</time>
      </trkpt>
      <trkpt lat="46.45076" lon="7.45679">
        <ele>1196.14</ele>
        <time>2020-07-22T10:40:01.097Z</time>
      </trkpt>
      <trkpt lat="46.45081" lon="7.45682">
        <ele>1197.27</ele>
        <time>2020-07-22T10:40:20.491Z</time>
      </trkpt>
      <trkpt lat="46.45085" lon="7.45686">
        <ele>1198.49</ele>
        <time>2020-07-22T10:40:37.903Z</time>
      </trkpt>
      <trkpt lat="46.4509" lon="7.45686">
        <ele>1198.51</ele>
        <time>2020-07-22T10:40:42.727Z</time>
      </trkpt>
      <trkpt lat="46.45095" lon="7.45685">
        <ele>1198.85</ele>
        <time>2020-07-22T10:40:51.982Z</time>
      </trkpt>
      <trkpt lat="46.45099" lon="7.45685">
        <ele>1200.45</ele>
        <time>2020-07-22T10:41:06.320Z</time>
      </trkpt>
      <trkpt lat="46.45101" lon="7.45684">
        <ele>1201.57</ele>
        <time>2020-07-22T10:41:13.903Z</time>
      </trkpt>
      <trkpt lat="46.45106" lon="7.45682">
        <ele>1202.85</ele>
        <time>2020-07-22T10:41:32.494Z</time>
      </trkpt>
      <trkpt lat="46.45112" lon="7.45678">
        <ele>1204.76</ele>
        <time>2020-07-22T10:41:56.162Z</time>
      </trkpt>
      <trkpt lat="46.45117" lon="7.45677">
        <ele>1206.2</ele>
        <time>2020-07-22T10:42:14.254Z</time>
      </trkpt>
      <trkpt lat="46.45125" lon="7.45679">
        <ele>1207.59</ele>
        <time>2020-07-22T10:42:43.353Z</time>
      </trkpt>
      <trkpt lat="46.45133" lon="7.45683">
        <ele>1209.11</ele>
        <time>2020-07-22T10:43:13.684Z</time>
      </trkpt>
      <trkpt lat="46.45138" lon="7.45683">
        <ele>1210.12</ele>
        <time>2020-07-22T10:43:31.607Z</time>
      </trkpt>
      <trkpt lat="46.45141" lon="7.4568">
        <ele>1211.53</ele>
        <time>2020-07-22T10:43:44.666Z</time>
      </trkpt>
      <trkpt lat="46.45143" lon="7.45673">
        <ele>1211.64</ele>
        <time>2020-07-22T10:43:50.678Z</time>
      </trkpt>
      <trkpt lat="46.45146" lon="7.45665">
        <ele>1213.53</ele>
        <time>2020-07-22T10:44:13.173Z</time>
      </trkpt>
      <trkpt lat="46.4515" lon="7.45661">
        <ele>1215.86</ele>
        <time>2020-07-22T10:44:30.585Z</time>
      </trkpt>
      <trkpt lat="46.45152" lon="7.4566">
        <ele>1217.09</ele>
        <time>2020-07-22T10:44:38.168Z</time>
      </trkpt>
      <trkpt lat="46.45155" lon="7.45663">
        <ele>1218.97</ele>
        <time>2020-07-22T10:44:51.227Z</time>
      </trkpt>
      <trkpt lat="46.45158" lon="7.45664">
        <ele>1220.26</ele>
        <time>2020-07-22T10:45:02.260Z</time>
      </trkpt>
      <trkpt lat="46.45162" lon="7.4566">
        <ele>1220.74</ele>
        <time>2020-07-22T10:45:13.866Z</time>
      </trkpt>
      <trkpt lat="46.45166" lon="7.45651">
        <ele>1219.93</ele>
        <time>2020-07-22T10:45:15.466Z</time>
      </trkpt>
      <trkpt lat="46.4517" lon="7.45646">
        <ele>1219.82</ele>
        <time>2020-07-22T10:45:17.073Z</time>
      </trkpt>
      <trkpt lat="46.45178" lon="7.45641">
        <ele>1219.89</ele>
        <time>2020-07-22T10:45:25.811Z</time>
      </trkpt>
      <trkpt lat="46.45184" lon="7.45635">
        <ele>1218.05</ele>
        <time>2020-07-22T10:45:27.390Z</time>
      </trkpt>
      <trkpt lat="46.45192" lon="7.45633">
        <ele>1216.13</ele>
        <time>2020-07-22T10:45:29.151Z</time>
      </trkpt>
      <trkpt lat="46.45197" lon="7.45635">
        <ele>1216.56</ele>
        <time>2020-07-22T10:45:39.895Z</time>
      </trkpt>
      <trkpt lat="46.452" lon="7.45639">
        <ele>1216.44</ele>
        <time>2020-07-22T10:45:41.022Z</time>
      </trkpt>
      <trkpt lat="46.45212" lon="7.45652">
        <ele>1219.57</ele>
        <time>2020-07-22T10:46:34.698Z</time>
      </trkpt>
      <trkpt lat="46.45216" lon="7.45658">
        <ele>1221.09</ele>
        <time>2020-07-22T10:46:55.317Z</time>
      </trkpt>
      <trkpt lat="46.45221" lon="7.45658">
        <ele>1220.32</ele>
        <time>2020-07-22T10:46:56.402Z</time>
      </trkpt>
      <trkpt lat="46.45226" lon="7.45656">
        <ele>1219.1</ele>
        <time>2020-07-22T10:46:57.526Z</time>
      </trkpt>
      <trkpt lat="46.4523" lon="7.45651">
        <ele>1215.56</ele>
        <time>2020-07-22T10:46:58.671Z</time>
      </trkpt>
      <trkpt lat="46.45233" lon="7.45642">
        <ele>1216.28</ele>
        <time>2020-07-22T10:47:16.086Z</time>
      </trkpt>
      <trkpt lat="46.45233" lon="7.45634">
        <ele>1216.73</ele>
        <time>2020-07-22T10:47:27.385Z</time>
      </trkpt>
      <trkpt lat="46.45241" lon="7.45651">
        <ele>1218.07</ele>
        <time>2020-07-22T10:47:59.912Z</time>
      </trkpt>
      <trkpt lat="46.45247" lon="7.45658">
        <ele>1222.23</ele>
        <time>2020-07-22T10:48:27.506Z</time>
      </trkpt>
      <trkpt lat="46.45251" lon="7.45661">
        <ele>1225.03</ele>
        <time>2020-07-22T10:48:43.646Z</time>
      </trkpt>
      <trkpt lat="46.45257" lon="7.45665">
        <ele>1227.06</ele>
        <time>2020-07-22T10:49:07.314Z</time>
      </trkpt>
      <trkpt lat="46.45261" lon="7.45668">
        <ele>1230</ele>
        <time>2020-07-22T10:49:23.453Z</time>
      </trkpt>
      <trkpt lat="46.45265" lon="7.45673">
        <ele>1232.14</ele>
        <time>2020-07-22T10:49:42.376Z</time>
      </trkpt>
      <trkpt lat="46.45265" lon="7.45679">
        <ele>1232.54</ele>
        <time>2020-07-22T10:49:52.061Z</time>
      </trkpt>
      <trkpt lat="46.45267" lon="7.45687">
        <ele>1233.15</ele>
        <time>2020-07-22T10:50:06.811Z</time>
      </trkpt>
      <trkpt lat="46.45271" lon="7.45694">
        <ele>1233.92</ele>
        <time>2020-07-22T10:50:26.301Z</time>
      </trkpt>
      <trkpt lat="46.45277" lon="7.457">
        <ele>1234.64</ele>
        <time>2020-07-22T10:50:43.710Z</time>
      </trkpt>
      <trkpt lat="46.4527" lon="7.45705">
        <ele>1234.09</ele>
        <time>2020-07-22T10:50:45.401Z</time>
      </trkpt>
      <trkpt lat="46.45265" lon="7.45708">
        <ele>1233.51</ele>
        <time>2020-07-22T10:50:46.574Z</time>
      </trkpt>
      <trkpt lat="46.4526" lon="7.45708">
        <ele>1233.91</ele>
        <time>2020-07-22T10:50:56.687Z</time>
      </trkpt>
      <trkpt lat="46.4525" lon="7.45703">
        <ele>1233.98</ele>
        <time>2020-07-22T10:51:07.151Z</time>
      </trkpt>
      <trkpt lat="46.45245" lon="7.45698">
        <ele>1234.07</ele>
        <time>2020-07-22T10:51:13.680Z</time>
      </trkpt>
      <trkpt lat="46.45241" lon="7.45691">
        <ele>1233.9</ele>
        <time>2020-07-22T10:51:15.457Z</time>
      </trkpt>
      <trkpt lat="46.45236" lon="7.45684">
        <ele>1233.59</ele>
        <time>2020-07-22T10:51:17.114Z</time>
      </trkpt>
      <trkpt lat="46.45234" lon="7.45682">
        <ele>1233.31</ele>
        <time>2020-07-22T10:51:17.641Z</time>
      </trkpt>
      <trkpt lat="46.45235" lon="7.45688">
        <ele>1234.14</ele>
        <time>2020-07-22T10:51:32.886Z</time>
      </trkpt>
      <trkpt lat="46.45236" lon="7.45692">
        <ele>1235.04</ele>
        <time>2020-07-22T10:51:43.395Z</time>
      </trkpt>
      <trkpt lat="46.45238" lon="7.45696">
        <ele>1236.13</ele>
        <time>2020-07-22T10:51:55.601Z</time>
      </trkpt>
      <trkpt lat="46.45241" lon="7.45702">
        <ele>1237.75</ele>
        <time>2020-07-22T10:52:13.909Z</time>
      </trkpt>
      <trkpt lat="46.45242" lon="7.45704">
        <ele>1238.38</ele>
        <time>2020-07-22T10:52:20.012Z</time>
      </trkpt>
      <trkpt lat="46.45242" lon="7.45707">
        <ele>1238.96</ele>
        <time>2020-07-22T10:52:27.421Z</time>
      </trkpt>
      <trkpt lat="46.45242" lon="7.45711">
        <ele>1239.78</ele>
        <time>2020-07-22T10:52:37.300Z</time>
      </trkpt>
      <trkpt lat="46.45241" lon="7.45714">
        <ele>1240.32</ele>
        <time>2020-07-22T10:52:45.530Z</time>
      </trkpt>
      <trkpt lat="46.45236" lon="7.45723">
        <ele>1242.08</ele>
        <time>2020-07-22T10:53:14.083Z</time>
      </trkpt>
      <trkpt lat="46.4523" lon="7.45733">
        <ele>1243.63</ele>
        <time>2020-07-22T10:53:46.832Z</time>
      </trkpt>
      <trkpt lat="46.45221" lon="7.45748">
        <ele>1245.5</ele>
        <time>2020-07-22T10:54:35.955Z</time>
      </trkpt>
      <trkpt lat="46.45216" lon="7.45755">
        <ele>1246.46</ele>
        <time>2020-07-22T10:55:00.857Z</time>
      </trkpt>
      <trkpt lat="46.45214" lon="7.45758">
        <ele>1247.2</ele>
        <time>2020-07-22T10:55:11.167Z</time>
      </trkpt>
      <trkpt lat="46.4521" lon="7.45761">
        <ele>1248.39</ele>
        <time>2020-07-22T10:55:27.306Z</time>
      </trkpt>
      <trkpt lat="46.45205" lon="7.45765">
        <ele>1249.8</ele>
        <time>2020-07-22T10:55:47.771Z</time>
      </trkpt>
      <trkpt lat="46.45197" lon="7.45772">
        <ele>1251.4</ele>
        <time>2020-07-22T10:56:21.256Z</time>
      </trkpt>
      <trkpt lat="46.45194" lon="7.45774">
        <ele>1251.87</ele>
        <time>2020-07-22T10:56:33.090Z</time>
      </trkpt>
      <trkpt lat="46.45191" lon="7.45775">
        <ele>1252.51</ele>
        <time>2020-07-22T10:56:44.124Z</time>
      </trkpt>
      <trkpt lat="46.45186" lon="7.45776">
        <ele>1253.56</ele>
        <time>2020-07-22T10:57:02.216Z</time>
      </trkpt>
      <trkpt lat="46.45182" lon="7.45779">
        <ele>1254.27</ele>
        <time>2020-07-22T10:57:18.356Z</time>
      </trkpt>
      <trkpt lat="46.45176" lon="7.45785">
        <ele>1255.16</ele>
        <time>2020-07-22T10:57:40.811Z</time>
      </trkpt>
      <trkpt lat="46.45171" lon="7.4579">
        <ele>1255.8</ele>
        <time>2020-07-22T10:57:56.301Z</time>
      </trkpt>
      <trkpt lat="46.45171" lon="7.4579">
        <ele>1255.8</ele>
        <time>2020-07-22T10:57:56.301Z</time>
      </trkpt>
      <trkpt lat="46.4517" lon="7.45791">
        <ele>1256.44</ele>
        <time>2020-07-22T10:58:00.654Z</time>
      </trkpt>
      <trkpt lat="46.45163" lon="7.45797">
        <ele>1257.37</ele>
        <time>2020-07-22T10:58:23.507Z</time>
      </trkpt>
      <trkpt lat="46.45156" lon="7.45803">
        <ele>1258.63</ele>
        <time>2020-07-22T10:58:52.648Z</time>
      </trkpt>
      <trkpt lat="46.45151" lon="7.45807">
        <ele>1259.77</ele>
        <time>2020-07-22T10:59:13.113Z</time>
      </trkpt>
      <trkpt lat="46.45143" lon="7.45813">
        <ele>1261.38</ele>
        <time>2020-07-22T10:59:45.392Z</time>
      </trkpt>
      <trkpt lat="46.45137" lon="7.45816">
        <ele>1262.34</ele>
        <time>2020-07-22T11:00:08.141Z</time>
      </trkpt>
      <trkpt lat="46.45119" lon="7.45821">
        <ele>1265.39</ele>
        <time>2020-07-22T11:01:13.834Z</time>
      </trkpt>
      <trkpt lat="46.45115" lon="7.45823">
        <ele>1265.98</ele>
        <time>2020-07-22T11:01:29.000Z</time>
      </trkpt>
      <trkpt lat="46.45109" lon="7.45825">
        <ele>1266.6</ele>
        <time>2020-07-22T11:01:43.982Z</time>
      </trkpt>
      <trkpt lat="46.45105" lon="7.4583">
        <ele>1268.35</ele>
        <time>2020-07-22T11:02:02.904Z</time>
      </trkpt>
      <trkpt lat="46.45101" lon="7.45834">
        <ele>1269.61</ele>
        <time>2020-07-22T11:02:20.317Z</time>
      </trkpt>
      <trkpt lat="46.45094" lon="7.45837">
        <ele>1270.57</ele>
        <time>2020-07-22T11:02:45.779Z</time>
      </trkpt>
      <trkpt lat="46.45083" lon="7.45842">
        <ele>1272.6</ele>
        <time>2020-07-22T11:03:27.098Z</time>
      </trkpt>
      <trkpt lat="46.45067" lon="7.4585">
        <ele>1275.26</ele>
        <time>2020-07-22T11:04:27.759Z</time>
      </trkpt>
      <trkpt lat="46.45054" lon="7.45859">
        <ele>1277.74</ele>
        <time>2020-07-22T11:05:19.389Z</time>
      </trkpt>
      <trkpt lat="46.45043" lon="7.45866">
        <ele>1280.33</ele>
        <time>2020-07-22T11:06:02.443Z</time>
      </trkpt>
      <trkpt lat="46.45037" lon="7.45872">
        <ele>1281.28</ele>
        <time>2020-07-22T11:06:27.458Z</time>
      </trkpt>
      <trkpt lat="46.45029" lon="7.45882">
        <ele>1282.16</ele>
        <time>2020-07-22T11:06:49.412Z</time>
      </trkpt>
      <trkpt lat="46.45021" lon="7.45894">
        <ele>1281.03</ele>
        <time>2020-07-22T11:06:51.906Z</time>
      </trkpt>
      <trkpt lat="46.45018" lon="7.45903">
        <ele>1280.31</ele>
        <time>2020-07-22T11:06:53.400Z</time>
      </trkpt>
      <trkpt lat="46.45018" lon="7.45909">
        <ele>1283.86</ele>
        <time>2020-07-22T11:07:08.218Z</time>
      </trkpt>
      <trkpt lat="46.45016" lon="7.45919">
        <ele>1283.41</ele>
        <time>2020-07-22T11:07:09.687Z</time>
      </trkpt>
      <trkpt lat="46.4501" lon="7.4594">
        <ele>1287.03</ele>
        <time>2020-07-22T11:08:05.835Z</time>
      </trkpt>
      <trkpt lat="46.45007" lon="7.45959">
        <ele>1290.82</ele>
        <time>2020-07-22T11:08:53.976Z</time>
      </trkpt>
      <trkpt lat="46.45002" lon="7.45986">
        <ele>1295.5</ele>
        <time>2020-07-22T11:10:03.026Z</time>
      </trkpt>
      <trkpt lat="46.45002" lon="7.45989">
        <ele>1296.77</ele>
        <time>2020-07-22T11:10:10.435Z</time>
      </trkpt>
      <trkpt lat="46.45002" lon="7.45989">
        <ele>1296.77</ele>
        <time>2020-07-22T11:10:10.435Z</time>
      </trkpt>
      <trkpt lat="46.44998" lon="7.46003">
        <ele>1298.05</ele>
        <time>2020-07-22T11:10:42.790Z</time>
      </trkpt>
      <trkpt lat="46.44996" lon="7.46019">
        <ele>1298.84</ele>
        <time>2020-07-22T11:11:03.823Z</time>
      </trkpt>
      <trkpt lat="46.44996" lon="7.46036">
        <ele>1302</ele>
        <time>2020-07-22T11:11:45.809Z</time>
      </trkpt>
      <trkpt lat="46.44994" lon="7.4605">
        <ele>1304.28</ele>
        <time>2020-07-22T11:12:21.121Z</time>
      </trkpt>
      <trkpt lat="46.4499" lon="7.46058">
        <ele>1304.92</ele>
        <time>2020-07-22T11:12:36.667Z</time>
      </trkpt>
      <trkpt lat="46.44984" lon="7.46067">
        <ele>1305.12</ele>
        <time>2020-07-22T11:12:46.847Z</time>
      </trkpt>
      <trkpt lat="46.44982" lon="7.46075">
        <ele>1305.47</ele>
        <time>2020-07-22T11:12:57.021Z</time>
      </trkpt>
      <trkpt lat="46.44981" lon="7.46084">
        <ele>1306.91</ele>
        <time>2020-07-22T11:13:19.536Z</time>
      </trkpt>
      <trkpt lat="46.44981" lon="7.46089">
        <ele>1307.76</ele>
        <time>2020-07-22T11:13:31.885Z</time>
      </trkpt>
      <trkpt lat="46.44981" lon="7.46094">
        <ele>1308.88</ele>
        <time>2020-07-22T11:13:44.234Z</time>
      </trkpt>
      <trkpt lat="46.44983" lon="7.46099">
        <ele>1310.48</ele>
        <time>2020-07-22T11:13:58.513Z</time>
      </trkpt>
      <trkpt lat="46.44982" lon="7.46104">
        <ele>1311.92</ele>
        <time>2020-07-22T11:14:11.372Z</time>
      </trkpt>
      <trkpt lat="46.4496" lon="7.46115">
        <ele>1311.05</ele>
        <time>2020-07-22T11:14:17.312Z</time>
      </trkpt>
      <trkpt lat="46.44958" lon="7.46114">
        <ele>1313.64</ele>
        <time>2020-07-22T11:14:24.894Z</time>
      </trkpt>
      <trkpt lat="46.44956" lon="7.46114">
        <ele>1314.66</ele>
        <time>2020-07-22T11:14:32.064Z</time>
      </trkpt>
      <trkpt lat="46.4495" lon="7.46117">
        <ele>1315.29</ele>
        <time>2020-07-22T11:14:47.293Z</time>
      </trkpt>
      <trkpt lat="46.44944" lon="7.46118">
        <ele>1315.91</ele>
        <time>2020-07-22T11:15:02.277Z</time>
      </trkpt>
      <trkpt lat="46.44939" lon="7.46117">
        <ele>1313.59</ele>
        <time>2020-07-22T11:15:03.371Z</time>
      </trkpt>
      <trkpt lat="46.4493" lon="7.46118">
        <ele>1312.28</ele>
        <time>2020-07-22T11:15:05.328Z</time>
      </trkpt>
      <trkpt lat="46.44918" lon="7.46117">
        <ele>1312.75</ele>
        <time>2020-07-22T11:15:22.732Z</time>
      </trkpt>
      <trkpt lat="46.44908" lon="7.46118">
        <ele>1310.34</ele>
        <time>2020-07-22T11:15:24.906Z</time>
      </trkpt>
      <trkpt lat="46.44901" lon="7.46123">
        <ele>1313.26</ele>
        <time>2020-07-22T11:15:52.872Z</time>
      </trkpt>
      <trkpt lat="46.44895" lon="7.46131">
        <ele>1316.94</ele>
        <time>2020-07-22T11:16:22.078Z</time>
      </trkpt>
      <trkpt lat="46.44887" lon="7.46142">
        <ele>1321.3</ele>
        <time>2020-07-22T11:17:01.580Z</time>
      </trkpt>
      <trkpt lat="46.44881" lon="7.46149">
        <ele>1322.13</ele>
        <time>2020-07-22T11:17:21.719Z</time>
      </trkpt>
      <trkpt lat="46.44877" lon="7.46157">
        <ele>1326.36</ele>
        <time>2020-07-22T11:17:46.132Z</time>
      </trkpt>
      <trkpt lat="46.44875" lon="7.46168">
        <ele>1331.63</ele>
        <time>2020-07-22T11:18:14.230Z</time>
      </trkpt>
      <trkpt lat="46.44872" lon="7.46177">
        <ele>1334.39</ele>
        <time>2020-07-22T11:18:38.923Z</time>
      </trkpt>
      <trkpt lat="46.44867" lon="7.46183">
        <ele>1335.86</ele>
        <time>2020-07-22T11:19:02.178Z</time>
      </trkpt>
      <trkpt lat="46.4486" lon="7.46187">
        <ele>1339.49</ele>
        <time>2020-07-22T11:19:29.145Z</time>
      </trkpt>
      <trkpt lat="46.44853" lon="7.46189">
        <ele>1340.5</ele>
        <time>2020-07-22T11:19:54.719Z</time>
      </trkpt>
      <trkpt lat="46.44851" lon="7.46188">
        <ele>1340.54</ele>
        <time>2020-07-22T11:19:57.097Z</time>
      </trkpt>
      <trkpt lat="46.44849" lon="7.46183">
        <ele>1339.39</ele>
        <time>2020-07-22T11:19:57.961Z</time>
      </trkpt>
      <trkpt lat="46.44846" lon="7.46179">
        <ele>1339.07</ele>
        <time>2020-07-22T11:19:58.844Z</time>
      </trkpt>
      <trkpt lat="46.4484" lon="7.46179">
        <ele>1342.82</ele>
        <time>2020-07-22T11:20:20.352Z</time>
      </trkpt>
      <trkpt lat="46.44837" lon="7.46179">
        <ele>1342.63</ele>
        <time>2020-07-22T11:20:20.963Z</time>
      </trkpt>
      <trkpt lat="46.44835" lon="7.46182">
        <ele>1343.14</ele>
        <time>2020-07-22T11:20:31.273Z</time>
      </trkpt>
      <trkpt lat="46.44831" lon="7.46189">
        <ele>1344.64</ele>
        <time>2020-07-22T11:20:53.734Z</time>
      </trkpt>
      <trkpt lat="46.44827" lon="7.46194">
        <ele>1345.66</ele>
        <time>2020-07-22T11:21:12.657Z</time>
      </trkpt>
      <trkpt lat="46.44824" lon="7.46199">
        <ele>1347.12</ele>
        <time>2020-07-22T11:21:29.032Z</time>
      </trkpt>
      <trkpt lat="46.44822" lon="7.46202">
        <ele>1347.89</ele>
        <time>2020-07-22T11:21:39.342Z</time>
      </trkpt>
      <trkpt lat="46.44818" lon="7.46205">
        <ele>1349.27</ele>
        <time>2020-07-22T11:21:55.482Z</time>
      </trkpt>
      <trkpt lat="46.44814" lon="7.4621">
        <ele>1350.62</ele>
        <time>2020-07-22T11:22:14.406Z</time>
      </trkpt>
      <trkpt lat="46.4481" lon="7.46214">
        <ele>1352.06</ele>
        <time>2020-07-22T11:22:31.818Z</time>
      </trkpt>
      <trkpt lat="46.44804" lon="7.46223">
        <ele>1354.33</ele>
        <time>2020-07-22T11:23:02.748Z</time>
      </trkpt>
      <trkpt lat="46.44801" lon="7.46226">
        <ele>1355.15</ele>
        <time>2020-07-22T11:23:15.808Z</time>
      </trkpt>
      <trkpt lat="46.44799" lon="7.46229">
        <ele>1355.8</ele>
        <time>2020-07-22T11:23:26.118Z</time>
      </trkpt>
      <trkpt lat="46.44795" lon="7.46241">
        <ele>1358.68</ele>
        <time>2020-07-22T11:23:59.042Z</time>
      </trkpt>
      <trkpt lat="46.44787" lon="7.4626">
        <ele>1364</ele>
        <time>2020-07-22T11:24:54.037Z</time>
      </trkpt>
      <trkpt lat="46.44772" lon="7.46291">
        <ele>1370.36</ele>
        <time>2020-07-22T11:26:27.597Z</time>
      </trkpt>
      <trkpt lat="46.44766" lon="7.46298">
        <ele>1369.78</ele>
        <time>2020-07-22T11:26:29.266Z</time>
      </trkpt>
      <trkpt lat="46.44759" lon="7.46303">
        <ele>1370.55</ele>
        <time>2020-07-22T11:26:47.884Z</time>
      </trkpt>
      <trkpt lat="46.44753" lon="7.46306">
        <ele>1370.93</ele>
        <time>2020-07-22T11:26:58.910Z</time>
      </trkpt>
      <trkpt lat="46.44746" lon="7.46307">
        <ele>1367.43</ele>
        <time>2020-07-22T11:27:00.435Z</time>
      </trkpt>
      <trkpt lat="46.44737" lon="7.46311">
        <ele>1370.29</ele>
        <time>2020-07-22T11:27:34.176Z</time>
      </trkpt>
      <trkpt lat="46.44725" lon="7.46319">
        <ele>1373.15</ele>
        <time>2020-07-22T11:28:21.512Z</time>
      </trkpt>
      <trkpt lat="46.44719" lon="7.46334">
        <ele>1374.21</ele>
        <time>2020-07-22T11:28:47.529Z</time>
      </trkpt>
      <trkpt lat="46.44718" lon="7.46336">
        <ele>1376.09</ele>
        <time>2020-07-22T11:28:53.632Z</time>
      </trkpt>
      <trkpt lat="46.44718" lon="7.46336">
        <ele>1376.09</ele>
        <time>2020-07-22T11:28:53.632Z</time>
      </trkpt>
      <trkpt lat="46.44715" lon="7.46348">
        <ele>1377.96</ele>
        <time>2020-07-22T11:29:25.161Z</time>
      </trkpt>
      <trkpt lat="46.44713" lon="7.46366">
        <ele>1384.65</ele>
        <time>2020-07-22T11:30:10.193Z</time>
      </trkpt>
      <trkpt lat="46.44712" lon="7.46378">
        <ele>1390.1</ele>
        <time>2020-07-22T11:30:40.048Z</time>
      </trkpt>
      <trkpt lat="46.4471" lon="7.46386">
        <ele>1393.33</ele>
        <time>2020-07-22T11:31:01.067Z</time>
      </trkpt>
      <trkpt lat="46.44703" lon="7.46399">
        <ele>1397.08</ele>
        <time>2020-07-22T11:31:41.817Z</time>
      </trkpt>
      <trkpt lat="46.44699" lon="7.46406">
        <ele>1398.16</ele>
        <time>2020-07-22T11:32:04.278Z</time>
      </trkpt>
      <trkpt lat="46.44695" lon="7.46411">
        <ele>1397.58</ele>
        <time>2020-07-22T11:32:05.423Z</time>
      </trkpt>
      <trkpt lat="46.44692" lon="7.46416">
        <ele>1398.09</ele>
        <time>2020-07-22T11:32:17.876Z</time>
      </trkpt>
      <trkpt lat="46.44689" lon="7.46419">
        <ele>1398.12</ele>
        <time>2020-07-22T11:32:21.538Z</time>
      </trkpt>
      <trkpt lat="46.44686" lon="7.46421">
        <ele>1396.36</ele>
        <time>2020-07-22T11:32:22.254Z</time>
      </trkpt>
      <trkpt lat="46.44684" lon="7.46423">
        <ele>1395.28</ele>
        <time>2020-07-22T11:32:22.780Z</time>
      </trkpt>
      <trkpt lat="46.44682" lon="7.46429">
        <ele>1392.6</ele>
        <time>2020-07-22T11:32:23.776Z</time>
      </trkpt>
      <trkpt lat="46.44681" lon="7.46434">
        <ele>1391.16</ele>
        <time>2020-07-22T11:32:24.554Z</time>
      </trkpt>
      <trkpt lat="46.44681" lon="7.46439">
        <ele>1391.16</ele>
        <time>2020-07-22T11:32:27.756Z</time>
      </trkpt>
      <trkpt lat="46.44682" lon="7.46446">
        <ele>1391.53</ele>
        <time>2020-07-22T11:32:37.337Z</time>
      </trkpt>
      <trkpt lat="46.44684" lon="7.46461">
        <ele>1392.34</ele>
        <time>2020-07-22T11:32:58.111Z</time>
      </trkpt>
      <trkpt lat="46.44685" lon="7.46469">
        <ele>1392.8</ele>
        <time>2020-07-22T11:33:09.640Z</time>
      </trkpt>
      <trkpt lat="46.44685" lon="7.46477">
        <ele>1393.31</ele>
        <time>2020-07-22T11:33:22.057Z</time>
      </trkpt>
      <trkpt lat="46.44688" lon="7.46484">
        <ele>1395.93</ele>
        <time>2020-07-22T11:33:42.418Z</time>
      </trkpt>
      <trkpt lat="46.44691" lon="7.46491">
        <ele>1398.11</ele>
        <time>2020-07-22T11:34:02.778Z</time>
      </trkpt>
      <trkpt lat="46.44694" lon="7.46514">
        <ele>1402.61</ele>
        <time>2020-07-22T11:35:00.595Z</time>
      </trkpt>
      <trkpt lat="46.44694" lon="7.46519">
        <ele>1403.53</ele>
        <time>2020-07-22T11:35:12.944Z</time>
      </trkpt>
      <trkpt lat="46.44696" lon="7.46524">
        <ele>1405.25</ele>
        <time>2020-07-22T11:35:27.224Z</time>
      </trkpt>
      <trkpt lat="46.44696" lon="7.46531">
        <ele>1407.29</ele>
        <time>2020-07-22T11:35:44.513Z</time>
      </trkpt>
      <trkpt lat="46.44697" lon="7.46537">
        <ele>1409.89</ele>
        <time>2020-07-22T11:35:59.760Z</time>
      </trkpt>
      <trkpt lat="46.44698" lon="7.46543">
        <ele>1411.83</ele>
        <time>2020-07-22T11:36:15.006Z</time>
      </trkpt>
      <trkpt lat="46.44697" lon="7.46549">
        <ele>1413.96</ele>
        <time>2020-07-22T11:36:30.253Z</time>
      </trkpt>
      <trkpt lat="46.44695" lon="7.46554">
        <ele>1414.31</ele>
        <time>2020-07-22T11:36:38.862Z</time>
      </trkpt>
      <trkpt lat="46.44695" lon="7.46563">
        <ele>1415.64</ele>
        <time>2020-07-22T11:37:01.091Z</time>
      </trkpt>
      <trkpt lat="46.44695" lon="7.46578">
        <ele>1418.25</ele>
        <time>2020-07-22T11:37:38.139Z</time>
      </trkpt>
      <trkpt lat="46.44691" lon="7.46586">
        <ele>1419.03</ele>
        <time>2020-07-22T11:37:57.313Z</time>
      </trkpt>
      <trkpt lat="46.44686" lon="7.46594">
        <ele>1419.67</ele>
        <time>2020-07-22T11:38:13.139Z</time>
      </trkpt>
      <trkpt lat="46.44682" lon="7.46599">
        <ele>1420.05</ele>
        <time>2020-07-22T11:38:23.161Z</time>
      </trkpt>
      <trkpt lat="46.44668" lon="7.46616">
        <ele>1420.25</ele>
        <time>2020-07-22T11:38:42.018Z</time>
      </trkpt>
      <trkpt lat="46.44655" lon="7.46631">
        <ele>1422.93</ele>
        <time>2020-07-22T11:39:41.550Z</time>
      </trkpt>
      <trkpt lat="46.44645" lon="7.46639">
        <ele>1423.82</ele>
        <time>2020-07-22T11:40:04.264Z</time>
      </trkpt>
      <trkpt lat="46.44637" lon="7.46642">
        <ele>1424.47</ele>
        <time>2020-07-22T11:40:20.797Z</time>
      </trkpt>
      <trkpt lat="46.4463" lon="7.46642">
        <ele>1425.34</ele>
        <time>2020-07-22T11:40:42.958Z</time>
      </trkpt>
      <trkpt lat="46.44621" lon="7.46638">
        <ele>1426.7</ele>
        <time>2020-07-22T11:41:16.699Z</time>
      </trkpt>
      <trkpt lat="46.44616" lon="7.4663">
        <ele>1427.09</ele>
        <time>2020-07-22T11:41:28.986Z</time>
      </trkpt>
      <trkpt lat="46.4461" lon="7.46612">
        <ele>1429.14</ele>
        <time>2020-07-22T11:42:18.374Z</time>
      </trkpt>
      <trkpt lat="46.44605" lon="7.46596">
        <ele>1429.96</ele>
        <time>2020-07-22T11:42:40.632Z</time>
      </trkpt>
      <trkpt lat="46.44603" lon="7.46585">
        <ele>1430.88</ele>
        <time>2020-07-22T11:43:03.435Z</time>
      </trkpt>
      <trkpt lat="46.44603" lon="7.46574">
        <ele>1431.45</ele>
        <time>2020-07-22T11:43:18.188Z</time>
      </trkpt>
      <trkpt lat="46.44603" lon="7.46559">
        <ele>1432.35</ele>
        <time>2020-07-22T11:43:40.373Z</time>
      </trkpt>
      <trkpt lat="46.44602" lon="7.46549">
        <ele>1432.82</ele>
        <time>2020-07-22T11:43:53.153Z</time>
      </trkpt>
      <trkpt lat="46.446" lon="7.46543">
        <ele>1433.13</ele>
        <time>2020-07-22T11:44:01.582Z</time>
      </trkpt>
      <trkpt lat="46.44594" lon="7.4654">
        <ele>1433.78</ele>
        <time>2020-07-22T11:44:17.290Z</time>
      </trkpt>
      <trkpt lat="46.44585" lon="7.4654">
        <ele>1434.5</ele>
        <time>2020-07-22T11:44:35.493Z</time>
      </trkpt>
      <trkpt lat="46.44579" lon="7.4654">
        <ele>1435.19</ele>
        <time>2020-07-22T11:44:52.476Z</time>
      </trkpt>
      <trkpt lat="46.44571" lon="7.46539">
        <ele>1435.72</ele>
        <time>2020-07-22T11:45:07.053Z</time>
      </trkpt>
      <trkpt lat="46.4456" lon="7.46537">
        <ele>1436.98</ele>
        <time>2020-07-22T11:45:37.958Z</time>
      </trkpt>
      <trkpt lat="46.44547" lon="7.46538">
        <ele>1438.09</ele>
        <time>2020-07-22T11:46:05.470Z</time>
      </trkpt>
      <trkpt lat="46.4454" lon="7.46539">
        <ele>1438.62</ele>
        <time>2020-07-22T11:46:19.176Z</time>
      </trkpt>
      <trkpt lat="46.44534" lon="7.46543">
        <ele>1439.31</ele>
        <time>2020-07-22T11:46:35.866Z</time>
      </trkpt>
      <trkpt lat="46.44498" lon="7.46571">
        <ele>1443.15</ele>
        <time>2020-07-22T11:48:09.137Z</time>
      </trkpt>
      <trkpt lat="46.44488" lon="7.4658">
        <ele>1444.5</ele>
        <time>2020-07-22T11:48:42.340Z</time>
      </trkpt>
      <trkpt lat="46.44461" lon="7.46609">
        <ele>1447.71</ele>
        <time>2020-07-22T11:50:00.155Z</time>
      </trkpt>
      <trkpt lat="46.44455" lon="7.46616">
        <ele>1448.77</ele>
        <time>2020-07-22T11:50:27.751Z</time>
      </trkpt>
      <trkpt lat="46.44434" lon="7.46638">
        <ele>1451.66</ele>
        <time>2020-07-22T11:51:38.309Z</time>
      </trkpt>
      <trkpt lat="46.44429" lon="7.46645">
        <ele>1452.09</ele>
        <time>2020-07-22T11:51:50.552Z</time>
      </trkpt>
      <trkpt lat="46.44402" lon="7.46682">
        <ele>1456.78</ele>
        <time>2020-07-22T11:53:51.218Z</time>
      </trkpt>
      <trkpt lat="46.44392" lon="7.46696">
        <ele>1457.81</ele>
        <time>2020-07-22T11:54:18.037Z</time>
      </trkpt>
      <trkpt lat="46.44383" lon="7.46711">
        <ele>1459.43</ele>
        <time>2020-07-22T11:54:58.301Z</time>
      </trkpt>
      <trkpt lat="46.44376" lon="7.46723">
        <ele>1460.46</ele>
        <time>2020-07-22T11:55:23.284Z</time>
      </trkpt>
      <trkpt lat="46.44369" lon="7.46736">
        <ele>1461.93</ele>
        <time>2020-07-22T11:56:01.740Z</time>
      </trkpt>
      <trkpt lat="46.44366" lon="7.46743">
        <ele>1462.74</ele>
        <time>2020-07-22T11:56:22.102Z</time>
      </trkpt>
      <trkpt lat="46.44366" lon="7.46743">
        <ele>1462.74</ele>
        <time>2020-07-22T11:56:22.102Z</time>
      </trkpt>
      <trkpt lat="46.44356" lon="7.46762">
        <ele>1463.55</ele>
        <time>2020-07-22T11:56:48.728Z</time>
      </trkpt>
      <trkpt lat="46.44353" lon="7.46768">
        <ele>1464.29</ele>
        <time>2020-07-22T11:57:07.038Z</time>
      </trkpt>
      <trkpt lat="46.44359" lon="7.46772">
        <ele>1465.56</ele>
        <time>2020-07-22T11:57:30.707Z</time>
      </trkpt>
      <trkpt lat="46.44366" lon="7.46775">
        <ele>1466.99</ele>
        <time>2020-07-22T11:57:56.870Z</time>
      </trkpt>
      <trkpt lat="46.44379" lon="7.4678">
        <ele>1468.48</ele>
        <time>2020-07-22T11:58:33.192Z</time>
      </trkpt>
      <trkpt lat="46.44383" lon="7.46785">
        <ele>1468.33</ele>
        <time>2020-07-22T11:58:34.669Z</time>
      </trkpt>
      <trkpt lat="46.44392" lon="7.46812">
        <ele>1469.8</ele>
        <time>2020-07-22T11:59:13.649Z</time>
      </trkpt>
      <trkpt lat="46.44395" lon="7.46819">
        <ele>1470.48</ele>
        <time>2020-07-22T11:59:30.641Z</time>
      </trkpt>
      <trkpt lat="46.44398" lon="7.46824">
        <ele>1471.48</ele>
        <time>2020-07-22T11:59:47.017Z</time>
      </trkpt>
      <trkpt lat="46.44403" lon="7.46827">
        <ele>1472.73</ele>
        <time>2020-07-22T12:00:06.411Z</time>
      </trkpt>
      <trkpt lat="46.44408" lon="7.46828">
        <ele>1473.85</ele>
        <time>2020-07-22T12:00:24.504Z</time>
      </trkpt>
      <trkpt lat="46.44413" lon="7.46831">
        <ele>1475.53</ele>
        <time>2020-07-22T12:00:43.898Z</time>
      </trkpt>
      <trkpt lat="46.44416" lon="7.46832">
        <ele>1476.07</ele>
        <time>2020-07-22T12:00:54.932Z</time>
      </trkpt>
      <trkpt lat="46.44423" lon="7.46833">
        <ele>1476.38</ele>
        <time>2020-07-22T12:01:05.894Z</time>
      </trkpt>
      <trkpt lat="46.44429" lon="7.46834">
        <ele>1478.18</ele>
        <time>2020-07-22T12:01:27.543Z</time>
      </trkpt>
      <trkpt lat="46.44436" lon="7.46834">
        <ele>1479.44</ele>
        <time>2020-07-22T12:01:52.635Z</time>
      </trkpt>
      <trkpt lat="46.44446" lon="7.46835">
        <ele>1481.41</ele>
        <time>2020-07-22T12:02:28.566Z</time>
      </trkpt>
      <trkpt lat="46.44453" lon="7.46834">
        <ele>1482.45</ele>
        <time>2020-07-22T12:02:53.780Z</time>
      </trkpt>
      <trkpt lat="46.44459" lon="7.46833">
        <ele>1483.79</ele>
        <time>2020-07-22T12:03:15.429Z</time>
      </trkpt>
      <trkpt lat="46.44464" lon="7.46832">
        <ele>1485.05</ele>
        <time>2020-07-22T12:03:33.521Z</time>
      </trkpt>
      <trkpt lat="46.44468" lon="7.46833">
        <ele>1485.76</ele>
        <time>2020-07-22T12:03:48.071Z</time>
      </trkpt>
      <trkpt lat="46.44472" lon="7.46834">
        <ele>1486.64</ele>
        <time>2020-07-22T12:04:02.621Z</time>
      </trkpt>
      <trkpt lat="46.44474" lon="7.46831">
        <ele>1486.87</ele>
        <time>2020-07-22T12:04:08.436Z</time>
      </trkpt>
      <trkpt lat="46.44482" lon="7.46826">
        <ele>1485.57</ele>
        <time>2020-07-22T12:04:10.325Z</time>
      </trkpt>
      <trkpt lat="46.44489" lon="7.46817">
        <ele>1485.22</ele>
        <time>2020-07-22T12:04:12.712Z</time>
      </trkpt>
      <trkpt lat="46.44496" lon="7.46806">
        <ele>1484.39</ele>
        <time>2020-07-22T12:04:14.949Z</time>
      </trkpt>
      <trkpt lat="46.44503" lon="7.468">
        <ele>1483.8</ele>
        <time>2020-07-22T12:04:16.711Z</time>
      </trkpt>
      <trkpt lat="46.44507" lon="7.46798">
        <ele>1484.45</ele>
        <time>2020-07-22T12:04:31.877Z</time>
      </trkpt>
      <trkpt lat="46.44507" lon="7.46798">
        <ele>1484.45</ele>
        <time>2020-07-22T12:04:31.877Z</time>
      </trkpt>
      <trkpt lat="46.44518" lon="7.46792">
        <ele>1485.1</ele>
        <time>2020-07-22T12:04:51.662Z</time>
      </trkpt>
      <trkpt lat="46.44526" lon="7.46784">
        <ele>1484.51</ele>
        <time>2020-07-22T12:04:53.682Z</time>
      </trkpt>
      <trkpt lat="46.44531" lon="7.46777">
        <ele>1482.54</ele>
        <time>2020-07-22T12:04:55.189Z</time>
      </trkpt>
      <trkpt lat="46.44537" lon="7.46771">
        <ele>1481.79</ele>
        <time>2020-07-22T12:04:56.769Z</time>
      </trkpt>
      <trkpt lat="46.44554" lon="7.46769">
        <ele>1483.61</ele>
        <time>2020-07-22T12:05:40.871Z</time>
      </trkpt>
      <trkpt lat="46.44581" lon="7.46766">
        <ele>1486.72</ele>
        <time>2020-07-22T12:06:57.386Z</time>
      </trkpt>
      <trkpt lat="46.44587" lon="7.46768">
        <ele>1487.17</ele>
        <time>2020-07-22T12:07:09.174Z</time>
      </trkpt>
      <trkpt lat="46.44586" lon="7.46768">
        <ele>1487.17</ele>
        <time>2020-07-22T12:07:10.103Z</time>
      </trkpt>
      <trkpt lat="46.44588" lon="7.46768">
        <ele>1487.63</ele>
        <time>2020-07-22T12:07:17.272Z</time>
      </trkpt>
      <trkpt lat="46.44594" lon="7.4677">
        <ele>1488.82</ele>
        <time>2020-07-22T12:07:39.340Z</time>
      </trkpt>
      <trkpt lat="46.44597" lon="7.46773">
        <ele>1488.78</ele>
        <time>2020-07-22T12:07:40.592Z</time>
      </trkpt>
      <trkpt lat="46.44598" lon="7.46777">
        <ele>1488.93</ele>
        <time>2020-07-22T12:07:45.393Z</time>
      </trkpt>
      <trkpt lat="46.44603" lon="7.4678">
        <ele>1489.28</ele>
        <time>2020-07-22T12:07:55.121Z</time>
      </trkpt>
      <trkpt lat="46.44607" lon="7.46784">
        <ele>1490.22</ele>
        <time>2020-07-22T12:08:12.534Z</time>
      </trkpt>
      <trkpt lat="46.44615" lon="7.46791">
        <ele>1492.92</ele>
        <time>2020-07-22T12:08:46.020Z</time>
      </trkpt>
      <trkpt lat="46.44623" lon="7.46795">
        <ele>1494.64</ele>
        <time>2020-07-22T12:09:16.351Z</time>
      </trkpt>
      <trkpt lat="46.44633" lon="7.46798">
        <ele>1496.69</ele>
        <time>2020-07-22T12:09:52.955Z</time>
      </trkpt>
      <trkpt lat="46.44646" lon="7.46805">
        <ele>1499.56</ele>
        <time>2020-07-22T12:10:42.658Z</time>
      </trkpt>
      <trkpt lat="46.44657" lon="7.46811">
        <ele>1501.88</ele>
        <time>2020-07-22T12:11:24.782Z</time>
      </trkpt>
      <trkpt lat="46.44665" lon="7.46817">
        <ele>1503.84</ele>
        <time>2020-07-22T12:11:57.062Z</time>
      </trkpt>
      <trkpt lat="46.44671" lon="7.46824">
        <ele>1505.41</ele>
        <time>2020-07-22T12:12:24.657Z</time>
      </trkpt>
      <trkpt lat="46.44681" lon="7.46838">
        <ele>1508.58</ele>
        <time>2020-07-22T12:13:14.463Z</time>
      </trkpt>
      <trkpt lat="46.4469" lon="7.4685">
        <ele>1510.76</ele>
        <time>2020-07-22T12:13:58.272Z</time>
      </trkpt>
      <trkpt lat="46.44697" lon="7.46859">
        <ele>1510.6</ele>
        <time>2020-07-22T12:14:01.247Z</time>
      </trkpt>
      <trkpt lat="46.44696" lon="7.46859">
        <ele>1510.6</ele>
        <time>2020-07-22T12:14:02.176Z</time>
      </trkpt>
      <trkpt lat="46.44697" lon="7.4686">
        <ele>1510.45</ele>
        <time>2020-07-22T12:14:02.440Z</time>
      </trkpt>
      <trkpt lat="46.44705" lon="7.46872">
        <ele>1507.88</ele>
        <time>2020-07-22T12:14:04.934Z</time>
      </trkpt>
      <trkpt lat="46.44711" lon="7.46886">
        <ele>1505.35</ele>
        <time>2020-07-22T12:14:07.397Z</time>
      </trkpt>
      <trkpt lat="46.44714" lon="7.46897">
        <ele>1503.75</ele>
        <time>2020-07-22T12:14:09.165Z</time>
      </trkpt>
      <trkpt lat="46.44715" lon="7.46924">
        <ele>1504.59</ele>
        <time>2020-07-22T12:14:38.495Z</time>
      </trkpt>
      <trkpt lat="46.44715" lon="7.46939">
        <ele>1506.12</ele>
        <time>2020-07-22T12:15:15.544Z</time>
      </trkpt>
      <trkpt lat="46.44715" lon="7.46949">
        <ele>1505.4</ele>
        <time>2020-07-22T12:15:17.038Z</time>
      </trkpt>
      <trkpt lat="46.44715" lon="7.46962">
        <ele>1505.95</ele>
        <time>2020-07-22T12:15:32.768Z</time>
      </trkpt>
      <trkpt lat="46.44715" lon="7.46979">
        <ele>1505.68</ele>
        <time>2020-07-22T12:15:36.244Z</time>
      </trkpt>
      <trkpt lat="46.44715" lon="7.46993">
        <ele>1506.38</ele>
        <time>2020-07-22T12:15:54.639Z</time>
      </trkpt>
      <trkpt lat="46.44713" lon="7.47004">
        <ele>1507.72</ele>
        <time>2020-07-22T12:16:22.738Z</time>
      </trkpt>
      <trkpt lat="46.44714" lon="7.47017">
        <ele>1508.3</ele>
        <time>2020-07-22T12:16:38.904Z</time>
      </trkpt>
      <trkpt lat="46.44716" lon="7.47026">
        <ele>1508.61</ele>
        <time>2020-07-22T12:16:49.327Z</time>
      </trkpt>
      <trkpt lat="46.44718" lon="7.47032">
        <ele>1509.04</ele>
        <time>2020-07-22T12:16:59.777Z</time>
      </trkpt>
      <trkpt lat="46.44722" lon="7.47035">
        <ele>1510</ele>
        <time>2020-07-22T12:17:15.917Z</time>
      </trkpt>
      <trkpt lat="46.44731" lon="7.47031">
        <ele>1509.67</ele>
        <time>2020-07-22T12:17:18.376Z</time>
      </trkpt>
      <trkpt lat="46.44734" lon="7.47027">
        <ele>1510</ele>
        <time>2020-07-22T12:17:26.684Z</time>
      </trkpt>
      <trkpt lat="46.44736" lon="7.47023">
        <ele>1510.15</ele>
        <time>2020-07-22T12:17:31.989Z</time>
      </trkpt>
      <trkpt lat="46.44745" lon="7.47006">
        <ele>1511.17</ele>
        <time>2020-07-22T12:17:59.417Z</time>
      </trkpt>
      <trkpt lat="46.44752" lon="7.46996">
        <ele>1510.76</ele>
        <time>2020-07-22T12:18:01.822Z</time>
      </trkpt>
      <trkpt lat="46.44752" lon="7.46992">
        <ele>1511.13</ele>
        <time>2020-07-22T12:18:11.701Z</time>
      </trkpt>
      <trkpt lat="46.44752" lon="7.46987">
        <ele>1511.29</ele>
        <time>2020-07-22T12:18:17.172Z</time>
      </trkpt>
      <trkpt lat="46.44753" lon="7.46983">
        <ele>1511.28</ele>
        <time>2020-07-22T12:18:19.762Z</time>
      </trkpt>
      <trkpt lat="46.44757" lon="7.46979">
        <ele>1511.23</ele>
        <time>2020-07-22T12:18:21.446Z</time>
      </trkpt>
      <trkpt lat="46.44761" lon="7.46977">
        <ele>1511.64</ele>
        <time>2020-07-22T12:18:31.372Z</time>
      </trkpt>
      <trkpt lat="46.44764" lon="7.46975">
        <ele>1513.13</ele>
        <time>2020-07-22T12:18:43.206Z</time>
      </trkpt>
      <trkpt lat="46.44767" lon="7.46972">
        <ele>1513.8</ele>
        <time>2020-07-22T12:18:56.266Z</time>
      </trkpt>
      <trkpt lat="46.44772" lon="7.46957">
        <ele>1517.38</ele>
        <time>2020-07-22T12:19:37.421Z</time>
      </trkpt>
      <trkpt lat="46.44772" lon="7.46957">
        <ele>1517.38</ele>
        <time>2020-07-22T12:19:37.421Z</time>
      </trkpt>
      <trkpt lat="46.44777" lon="7.46957">
        <ele>1518.02</ele>
        <time>2020-07-22T12:19:54.039Z</time>
      </trkpt>
      <trkpt lat="46.44782" lon="7.46956">
        <ele>1518.71</ele>
        <time>2020-07-22T12:20:12.131Z</time>
      </trkpt>
      <trkpt lat="46.44785" lon="7.46955">
        <ele>1519.78</ele>
        <time>2020-07-22T12:20:23.165Z</time>
      </trkpt>
      <trkpt lat="46.44788" lon="7.46954">
        <ele>1520.51</ele>
        <time>2020-07-22T12:20:34.199Z</time>
      </trkpt>
      <trkpt lat="46.44795" lon="7.46948">
        <ele>1522.39</ele>
        <time>2020-07-22T12:21:03.340Z</time>
      </trkpt>
      <trkpt lat="46.44798" lon="7.46943">
        <ele>1523.21</ele>
        <time>2020-07-22T12:21:19.715Z</time>
      </trkpt>
      <trkpt lat="46.448" lon="7.4694">
        <ele>1523.33</ele>
        <time>2020-07-22T12:21:24.042Z</time>
      </trkpt>
      <trkpt lat="46.448" lon="7.46932">
        <ele>1523.91</ele>
        <time>2020-07-22T12:21:38.078Z</time>
      </trkpt>
      <trkpt lat="46.44802" lon="7.46922">
        <ele>1524.41</ele>
        <time>2020-07-22T12:21:51.463Z</time>
      </trkpt>
      <trkpt lat="46.44803" lon="7.46915">
        <ele>1524.94</ele>
        <time>2020-07-22T12:22:04.319Z</time>
      </trkpt>
      <trkpt lat="46.44806" lon="7.46903">
        <ele>1525.05</ele>
        <time>2020-07-22T12:22:13.551Z</time>
      </trkpt>
      <trkpt lat="46.44808" lon="7.46897">
        <ele>1524.77</ele>
        <time>2020-07-22T12:22:14.504Z</time>
      </trkpt>
      <trkpt lat="46.44811" lon="7.46891">
        <ele>1524.42</ele>
        <time>2020-07-22T12:22:15.612Z</time>
      </trkpt>
      <trkpt lat="46.44815" lon="7.46883">
        <ele>1524</ele>
        <time>2020-07-22T12:22:17.018Z</time>
      </trkpt>
      <trkpt lat="46.44817" lon="7.46877">
        <ele>1523.76</ele>
        <time>2020-07-22T12:22:18.042Z</time>
      </trkpt>
      <trkpt lat="46.4482" lon="7.46872">
        <ele>1523.32</ele>
        <time>2020-07-22T12:22:19.033Z</time>
      </trkpt>
      <trkpt lat="46.44822" lon="7.46868">
        <ele>1523.04</ele>
        <time>2020-07-22T12:22:19.771Z</time>
      </trkpt>
      <trkpt lat="46.44823" lon="7.46862">
        <ele>1523.11</ele>
        <time>2020-07-22T12:22:24.425Z</time>
      </trkpt>
      <trkpt lat="46.44823" lon="7.46858">
        <ele>1523.31</ele>
        <time>2020-07-22T12:22:29.681Z</time>
      </trkpt>
      <trkpt lat="46.44822" lon="7.46852">
        <ele>1523.63</ele>
        <time>2020-07-22T12:22:37.962Z</time>
      </trkpt>
      <trkpt lat="46.44821" lon="7.46846">
        <ele>1523.64</ele>
        <time>2020-07-22T12:22:42.002Z</time>
      </trkpt>
      <trkpt lat="46.44822" lon="7.46842">
        <ele>1523.61</ele>
        <time>2020-07-22T12:22:43.019Z</time>
      </trkpt>
      <trkpt lat="46.44823" lon="7.46836">
        <ele>1523.54</ele>
        <time>2020-07-22T12:22:44.383Z</time>
      </trkpt>
      <trkpt lat="46.44824" lon="7.46831">
        <ele>1523.43</ele>
        <time>2020-07-22T12:22:45.363Z</time>
      </trkpt>
      <trkpt lat="46.44825" lon="7.46824">
        <ele>1523.78</ele>
        <time>2020-07-22T12:22:54.648Z</time>
      </trkpt>
      <trkpt lat="46.44827" lon="7.46816">
        <ele>1523.84</ele>
        <time>2020-07-22T12:23:00.661Z</time>
      </trkpt>
      <trkpt lat="46.44827" lon="7.4681">
        <ele>1524.01</ele>
        <time>2020-07-22T12:23:06.825Z</time>
      </trkpt>
      <trkpt lat="46.44828" lon="7.468">
        <ele>1524.25</ele>
        <time>2020-07-22T12:23:16.281Z</time>
      </trkpt>
      <trkpt lat="46.44826" lon="7.46793">
        <ele>1525.43</ele>
        <time>2020-07-22T12:23:34.997Z</time>
      </trkpt>
      <trkpt lat="46.44827" lon="7.46787">
        <ele>1526.16</ele>
        <time>2020-07-22T12:23:50.244Z</time>
      </trkpt>
      <trkpt lat="46.44829" lon="7.46782">
        <ele>1526.71</ele>
        <time>2020-07-22T12:24:04.523Z</time>
      </trkpt>
      <trkpt lat="46.44832" lon="7.4678">
        <ele>1526.99</ele>
        <time>2020-07-22T12:24:11.473Z</time>
      </trkpt>
      <trkpt lat="46.44845" lon="7.46778">
        <ele>1528.21</ele>
        <time>2020-07-22T12:24:41.137Z</time>
      </trkpt>
      <trkpt lat="46.4485" lon="7.46777">
        <ele>1527.97</ele>
        <time>2020-07-22T12:24:42.309Z</time>
      </trkpt>
      <trkpt lat="46.44851" lon="7.46774">
        <ele>1526.71</ele>
        <time>2020-07-22T12:24:42.807Z</time>
      </trkpt>
      <trkpt lat="46.44854" lon="7.46765">
        <ele>1525.46</ele>
        <time>2020-07-22T12:24:44.301Z</time>
      </trkpt>
      <trkpt lat="46.44865" lon="7.46759">
        <ele>1524.46</ele>
        <time>2020-07-22T12:24:46.849Z</time>
      </trkpt>
      <trkpt lat="46.44875" lon="7.46756">
        <ele>1524.04</ele>
        <time>2020-07-22T12:24:49.364Z</time>
      </trkpt>
      <trkpt lat="46.44909" lon="7.46749">
        <ele>1522.04</ele>
        <time>2020-07-22T12:24:56.651Z</time>
      </trkpt>
      <trkpt lat="46.44922" lon="7.46745">
        <ele>1521.39</ele>
        <time>2020-07-22T12:24:59.701Z</time>
      </trkpt>
      <trkpt lat="46.44953" lon="7.46734">
        <ele>1520.14</ele>
        <time>2020-07-22T12:25:07.709Z</time>
      </trkpt>
      <trkpt lat="46.44966" lon="7.46729">
        <ele>1520.33</ele>
        <time>2020-07-22T12:25:22.065Z</time>
      </trkpt>
      <trkpt lat="46.44973" lon="7.46723">
        <ele>1520.63</ele>
        <time>2020-07-22T12:25:33.478Z</time>
      </trkpt>
      <trkpt lat="46.44977" lon="7.46716">
        <ele>1520.88</ele>
        <time>2020-07-22T12:25:42.655Z</time>
      </trkpt>
      <trkpt lat="46.44977" lon="7.46716">
        <ele>1520.88</ele>
        <time>2020-07-22T12:25:42.655Z</time>
      </trkpt>
      <trkpt lat="46.44983" lon="7.46708">
        <ele>1521.14</ele>
        <time>2020-07-22T12:25:53.354Z</time>
      </trkpt>
      <trkpt lat="46.44993" lon="7.46696">
        <ele>1521.59</ele>
        <time>2020-07-22T12:26:11.027Z</time>
      </trkpt>
      <trkpt lat="46.45" lon="7.4669">
        <ele>1521.64</ele>
        <time>2020-07-22T12:26:19.033Z</time>
      </trkpt>
      <trkpt lat="46.45008" lon="7.46688">
        <ele>1521.46</ele>
        <time>2020-07-22T12:26:21.466Z</time>
      </trkpt>
      <trkpt lat="46.45018" lon="7.46689">
        <ele>1521.49</ele>
        <time>2020-07-22T12:26:31.044Z</time>
      </trkpt>
      <trkpt lat="46.45024" lon="7.46689">
        <ele>1522.05</ele>
        <time>2020-07-22T12:26:44.660Z</time>
      </trkpt>
      <trkpt lat="46.45029" lon="7.46687">
        <ele>1522.64</ele>
        <time>2020-07-22T12:26:59.135Z</time>
      </trkpt>
      <trkpt lat="46.45039" lon="7.46681">
        <ele>1522.86</ele>
        <time>2020-07-22T12:27:11.492Z</time>
      </trkpt>
      <trkpt lat="46.45049" lon="7.46671">
        <ele>1522.69</ele>
        <time>2020-07-22T12:27:15.507Z</time>
      </trkpt>
      <trkpt lat="46.45061" lon="7.46654">
        <ele>1521.12</ele>
        <time>2020-07-22T12:27:19.143Z</time>
      </trkpt>
      <trkpt lat="46.45072" lon="7.46646">
        <ele>1520.83</ele>
        <time>2020-07-22T12:27:22.773Z</time>
      </trkpt>
      <trkpt lat="46.45086" lon="7.46634">
        <ele>1520.44</ele>
        <time>2020-07-22T12:27:27.547Z</time>
      </trkpt>
      <trkpt lat="46.45097" lon="7.46625">
        <ele>1520.03</ele>
        <time>2020-07-22T12:27:30.933Z</time>
      </trkpt>
      <trkpt lat="46.45109" lon="7.46619">
        <ele>1519.35</ele>
        <time>2020-07-22T12:27:33.731Z</time>
      </trkpt>
      <trkpt lat="46.45115" lon="7.46612">
        <ele>1518.48</ele>
        <time>2020-07-22T12:27:35.401Z</time>
      </trkpt>
      <trkpt lat="46.45122" lon="7.46601">
        <ele>1516.93</ele>
        <time>2020-07-22T12:27:37.638Z</time>
      </trkpt>
      <trkpt lat="46.45129" lon="7.46594">
        <ele>1516.18</ele>
        <time>2020-07-22T12:27:39.481Z</time>
      </trkpt>
      <trkpt lat="46.45137" lon="7.4659">
        <ele>1515.43</ele>
        <time>2020-07-22T12:27:41.315Z</time>
      </trkpt>
      <trkpt lat="46.45144" lon="7.46594">
        <ele>1514.86</ele>
        <time>2020-07-22T12:27:42.947Z</time>
      </trkpt>
      <trkpt lat="46.45149" lon="7.46597">
        <ele>1514.36</ele>
        <time>2020-07-22T12:27:44.120Z</time>
      </trkpt>
      <trkpt lat="46.45153" lon="7.46598">
        <ele>1514.02</ele>
        <time>2020-07-22T12:27:45.000Z</time>
      </trkpt>
      <trkpt lat="46.45162" lon="7.46593">
        <ele>1514.08</ele>
        <time>2020-07-22T12:27:54.497Z</time>
      </trkpt>
      <trkpt lat="46.45166" lon="7.46587">
        <ele>1514.49</ele>
        <time>2020-07-22T12:28:05.359Z</time>
      </trkpt>
      <trkpt lat="46.45172" lon="7.46574">
        <ele>1514.34</ele>
        <time>2020-07-22T12:28:08.927Z</time>
      </trkpt>
      <trkpt lat="46.4518" lon="7.46561">
        <ele>1513.26</ele>
        <time>2020-07-22T12:28:11.531Z</time>
      </trkpt>
      <trkpt lat="46.45189" lon="7.4655">
        <ele>1512.28</ele>
        <time>2020-07-22T12:28:14.082Z</time>
      </trkpt>
      <trkpt lat="46.45204" lon="7.46539">
        <ele>1510.78</ele>
        <time>2020-07-22T12:28:17.726Z</time>
      </trkpt>
      <trkpt lat="46.45221" lon="7.46528">
        <ele>1508.93</ele>
        <time>2020-07-22T12:28:21.762Z</time>
      </trkpt>
      <trkpt lat="46.45241" lon="7.46517">
        <ele>1507.04</ele>
        <time>2020-07-22T12:28:26.399Z</time>
      </trkpt>
      <trkpt lat="46.45263" lon="7.46504">
        <ele>1506.26</ele>
        <time>2020-07-22T12:28:32.744Z</time>
      </trkpt>
      <trkpt lat="46.45284" lon="7.4649">
        <ele>1504.71</ele>
        <time>2020-07-22T12:28:37.755Z</time>
      </trkpt>
      <trkpt lat="46.45295" lon="7.46484">
        <ele>1503.82</ele>
        <time>2020-07-22T12:28:40.303Z</time>
      </trkpt>
      <trkpt lat="46.45295" lon="7.46484">
        <ele>1503.82</ele>
        <time>2020-07-22T12:28:40.303Z</time>
      </trkpt>
      <trkpt lat="46.45304" lon="7.46478">
        <ele>1502.93</ele>
        <time>2020-07-22T12:28:42.451Z</time>
      </trkpt>
      <trkpt lat="46.45347" lon="7.46456">
        <ele>1499.5</ele>
        <time>2020-07-22T12:28:52.336Z</time>
      </trkpt>
      <trkpt lat="46.45356" lon="7.46452">
        <ele>1498.32</ele>
        <time>2020-07-22T12:28:54.377Z</time>
      </trkpt>
      <trkpt lat="46.45361" lon="7.46451">
        <ele>1497.29</ele>
        <time>2020-07-22T12:28:55.472Z</time>
      </trkpt>
      <trkpt lat="46.45366" lon="7.46447">
        <ele>1496.39</ele>
        <time>2020-07-22T12:28:56.710Z</time>
      </trkpt>
      <trkpt lat="46.4537" lon="7.46439">
        <ele>1495.63</ele>
        <time>2020-07-22T12:28:58.186Z</time>
      </trkpt>
      <trkpt lat="46.45385" lon="7.4644">
        <ele>1498.15</ele>
        <time>2020-07-22T12:29:52.012Z</time>
      </trkpt>
      <trkpt lat="46.45394" lon="7.46441">
        <ele>1498.9</ele>
        <time>2020-07-22T12:30:10.740Z</time>
      </trkpt>
      <trkpt lat="46.45405" lon="7.46442">
        <ele>1500.82</ele>
        <time>2020-07-22T12:30:50.248Z</time>
      </trkpt>
      <trkpt lat="46.45419" lon="7.46441">
        <ele>1502.65</ele>
        <time>2020-07-22T12:31:38.487Z</time>
      </trkpt>
      <trkpt lat="46.45436" lon="7.46442">
        <ele>1504.53</ele>
        <time>2020-07-22T12:32:24.291Z</time>
      </trkpt>
      <trkpt lat="46.4545" lon="7.46445">
        <ele>1506.67</ele>
        <time>2020-07-22T12:33:15.019Z</time>
      </trkpt>
      <trkpt lat="46.45457" lon="7.46445">
        <ele>1507.55</ele>
        <time>2020-07-22T12:33:37.593Z</time>
      </trkpt>
      <trkpt lat="46.45464" lon="7.46445">
        <ele>1508.43</ele>
        <time>2020-07-22T12:34:00.167Z</time>
      </trkpt>
      <trkpt lat="46.45503" lon="7.46444">
        <ele>1513.47</ele>
        <time>2020-07-22T12:36:11.944Z</time>
      </trkpt>
      <trkpt lat="46.4552" lon="7.46444">
        <ele>1515.76</ele>
        <time>2020-07-22T12:37:12.882Z</time>
      </trkpt>
      <trkpt lat="46.45531" lon="7.46446">
        <ele>1517.14</ele>
        <time>2020-07-22T12:37:48.068Z</time>
      </trkpt>
      <trkpt lat="46.45551" lon="7.46452">
        <ele>1519.99</ele>
        <time>2020-07-22T12:39:01.276Z</time>
      </trkpt>
      <trkpt lat="46.45558" lon="7.46454">
        <ele>1520.95</ele>
        <time>2020-07-22T12:39:26.849Z</time>
      </trkpt>
      <trkpt lat="46.45567" lon="7.46454">
        <ele>1521.95</ele>
        <time>2020-07-22T12:39:51.241Z</time>
      </trkpt>
      <trkpt lat="46.45577" lon="7.46452">
        <ele>1523.08</ele>
        <time>2020-07-22T12:40:18.850Z</time>
      </trkpt>
      <trkpt lat="46.45587" lon="7.46447">
        <ele>1524.31</ele>
        <time>2020-07-22T12:40:49.235Z</time>
      </trkpt>
      <trkpt lat="46.45602" lon="7.46438">
        <ele>1525.89</ele>
        <time>2020-07-22T12:41:27.472Z</time>
      </trkpt>
      <trkpt lat="46.45614" lon="7.46428">
        <ele>1527.12</ele>
        <time>2020-07-22T12:41:57.647Z</time>
      </trkpt>
      <trkpt lat="46.45626" lon="7.4642">
        <ele>1528.44</ele>
        <time>2020-07-22T12:42:29.548Z</time>
      </trkpt>
      <trkpt lat="46.45635" lon="7.46415">
        <ele>1529.41</ele>
        <time>2020-07-22T12:42:52.988Z</time>
      </trkpt>
      <trkpt lat="46.45647" lon="7.46411">
        <ele>1530.4</ele>
        <time>2020-07-22T12:43:17.973Z</time>
      </trkpt>
      <trkpt lat="46.45658" lon="7.46409">
        <ele>1531.58</ele>
        <time>2020-07-22T12:43:46.559Z</time>
      </trkpt>
      <trkpt lat="46.4567" lon="7.46409">
        <ele>1532.45</ele>
        <time>2020-07-22T12:44:09.431Z</time>
      </trkpt>
      <trkpt lat="46.45679" lon="7.46412">
        <ele>1533.51</ele>
        <time>2020-07-22T12:44:35.506Z</time>
      </trkpt>
      <trkpt lat="46.45689" lon="7.46417">
        <ele>1534.59</ele>
        <time>2020-07-22T12:45:01.604Z</time>
      </trkpt>
      <trkpt lat="46.45699" lon="7.46426">
        <ele>1535.7</ele>
        <time>2020-07-22T12:45:28.553Z</time>
      </trkpt>
      <trkpt lat="46.45703" lon="7.46434">
        <ele>1536.36</ele>
        <time>2020-07-22T12:45:44.531Z</time>
      </trkpt>
      <trkpt lat="46.45709" lon="7.46444">
        <ele>1537.07</ele>
        <time>2020-07-22T12:46:02.671Z</time>
      </trkpt>
      <trkpt lat="46.45713" lon="7.46453">
        <ele>1537.8</ele>
        <time>2020-07-22T12:46:20.320Z</time>
      </trkpt>
      <trkpt lat="46.45717" lon="7.46465">
        <ele>1538.58</ele>
        <time>2020-07-22T12:46:39.673Z</time>
      </trkpt>
      <trkpt lat="46.45719" lon="7.46475">
        <ele>1539.19</ele>
        <time>2020-07-22T12:46:54.803Z</time>
      </trkpt>
      <trkpt lat="46.45721" lon="7.46487">
        <ele>1540.01</ele>
        <time>2020-07-22T12:47:14.664Z</time>
      </trkpt>
      <trkpt lat="46.45722" lon="7.465">
        <ele>1540.84</ele>
        <time>2020-07-22T12:47:34.887Z</time>
      </trkpt>
      <trkpt lat="46.45722" lon="7.46512">
        <ele>1541.63</ele>
        <time>2020-07-22T12:47:54.037Z</time>
      </trkpt>
      <trkpt lat="46.45722" lon="7.46525">
        <ele>1542.48</ele>
        <time>2020-07-22T12:48:14.659Z</time>
      </trkpt>
      <trkpt lat="46.45721" lon="7.46537">
        <ele>1543.29</ele>
        <time>2020-07-22T12:48:34.262Z</time>
      </trkpt>
      <trkpt lat="46.45718" lon="7.46554">
        <ele>1544.52</ele>
        <time>2020-07-22T12:49:03.984Z</time>
      </trkpt>
      <trkpt lat="46.45717" lon="7.46562">
        <ele>1544.97</ele>
        <time>2020-07-22T12:49:15.344Z</time>
      </trkpt>
      <trkpt lat="46.45714" lon="7.46575">
        <ele>1545.84</ele>
        <time>2020-07-22T12:49:36.541Z</time>
      </trkpt>
      <trkpt lat="46.45712" lon="7.46583">
        <ele>1546.33</ele>
        <time>2020-07-22T12:49:48.755Z</time>
      </trkpt>
      <trkpt lat="46.45709" lon="7.46591">
        <ele>1546.97</ele>
        <time>2020-07-22T12:50:04.220Z</time>
      </trkpt>
      <trkpt lat="46.45705" lon="7.46599">
        <ele>1547.63</ele>
        <time>2020-07-22T12:50:20.198Z</time>
      </trkpt>
      <trkpt lat="46.45701" lon="7.46605">
        <ele>1548.34</ele>
        <time>2020-07-22T12:50:38.214Z</time>
      </trkpt>
      <trkpt lat="46.45697" lon="7.4661">
        <ele>1548.91</ele>
        <time>2020-07-22T12:50:52.047Z</time>
      </trkpt>
      <trkpt lat="46.4569" lon="7.46615">
        <ele>1549.62</ele>
        <time>2020-07-22T12:51:09.382Z</time>
      </trkpt>
      <trkpt lat="46.45684" lon="7.46618">
        <ele>1550.18</ele>
        <time>2020-07-22T12:51:23.143Z</time>
      </trkpt>
      <trkpt lat="46.45676" lon="7.4662">
        <ele>1550.8</ele>
        <time>2020-07-22T12:51:39.090Z</time>
      </trkpt>
      <trkpt lat="46.45658" lon="7.46622">
        <ele>1552.65</ele>
        <time>2020-07-22T12:52:23.798Z</time>
      </trkpt>
      <trkpt lat="46.45653" lon="7.46624">
        <ele>1553.11</ele>
        <time>2020-07-22T12:52:35.089Z</time>
      </trkpt>
      <trkpt lat="46.45653" lon="7.46624">
        <ele>1553.11</ele>
        <time>2020-07-22T12:52:35.089Z</time>
      </trkpt>
      <trkpt lat="46.4565" lon="7.46625">
        <ele>1553.56</ele>
        <time>2020-07-22T12:52:46.122Z</time>
      </trkpt>
      <trkpt lat="46.45643" lon="7.46628">
        <ele>1554.1</ele>
        <time>2020-07-22T12:53:00.194Z</time>
      </trkpt>
      <trkpt lat="46.4564" lon="7.46632">
        <ele>1554.51</ele>
        <time>2020-07-22T12:53:10.102Z</time>
      </trkpt>
      <trkpt lat="46.45637" lon="7.46635">
        <ele>1554.95</ele>
        <time>2020-07-22T12:53:21.141Z</time>
      </trkpt>
      <trkpt lat="46.45635" lon="7.46639">
        <ele>1555.34</ele>
        <time>2020-07-22T12:53:30.729Z</time>
      </trkpt>
      <trkpt lat="46.45634" lon="7.46643">
        <ele>1555.77</ele>
        <time>2020-07-22T12:53:41.237Z</time>
      </trkpt>
      <trkpt lat="46.45634" lon="7.46649">
        <ele>1556.18</ele>
        <time>2020-07-22T12:53:51.148Z</time>
      </trkpt>
      <trkpt lat="46.45634" lon="7.46655">
        <ele>1556.67</ele>
        <time>2020-07-22T12:54:03.341Z</time>
      </trkpt>
      <trkpt lat="46.45637" lon="7.46662">
        <ele>1557.3</ele>
        <time>2020-07-22T12:54:18.702Z</time>
      </trkpt>
      <trkpt lat="46.45639" lon="7.46666">
        <ele>1557.7</ele>
        <time>2020-07-22T12:54:28.620Z</time>
      </trkpt>
      <trkpt lat="46.45643" lon="7.46671">
        <ele>1558.13</ele>
        <time>2020-07-22T12:54:39.425Z</time>
      </trkpt>
      <trkpt lat="46.45646" lon="7.46673">
        <ele>1558.48</ele>
        <time>2020-07-22T12:54:47.901Z</time>
      </trkpt>
      <trkpt lat="46.4565" lon="7.46674">
        <ele>1558.8</ele>
        <time>2020-07-22T12:54:56.033Z</time>
      </trkpt>
      <trkpt lat="46.45656" lon="7.46675">
        <ele>1559.28</ele>
        <time>2020-07-22T12:55:08.197Z</time>
      </trkpt>
      <trkpt lat="46.45665" lon="7.46674">
        <ele>1560.36</ele>
        <time>2020-07-22T12:55:35.177Z</time>
      </trkpt>
      <trkpt lat="46.4566" lon="7.46683">
        <ele>1562.36</ele>
        <time>2020-07-22T12:56:03.729Z</time>
      </trkpt>
      <trkpt lat="46.45657" lon="7.4669">
        <ele>1564.08</ele>
        <time>2020-07-22T12:56:24.087Z</time>
      </trkpt>
      <trkpt lat="46.45658" lon="7.46696">
        <ele>1565.97</ele>
        <time>2020-07-22T12:56:39.331Z</time>
      </trkpt>
      <trkpt lat="46.45654" lon="7.46703">
        <ele>1567.27</ele>
        <time>2020-07-22T12:57:01.790Z</time>
      </trkpt>
      <trkpt lat="46.45649" lon="7.46712">
        <ele>1569.74</ele>
        <time>2020-07-22T12:57:30.342Z</time>
      </trkpt>
      <trkpt lat="46.45647" lon="7.46717">
        <ele>1571.04</ele>
        <time>2020-07-22T12:57:44.619Z</time>
      </trkpt>
      <trkpt lat="46.45645" lon="7.46722">
        <ele>1572.35</ele>
        <time>2020-07-22T12:57:58.897Z</time>
      </trkpt>
      <trkpt lat="46.45648" lon="7.46728">
        <ele>1573.69</ele>
        <time>2020-07-22T12:58:17.205Z</time>
      </trkpt>
      <trkpt lat="46.45648" lon="7.46734">
        <ele>1574.48</ele>
        <time>2020-07-22T12:58:32.022Z</time>
      </trkpt>
      <trkpt lat="46.45636" lon="7.46737">
        <ele>1576.24</ele>
        <time>2020-07-22T12:59:15.670Z</time>
      </trkpt>
      <trkpt lat="46.45625" lon="7.46743">
        <ele>1577.73</ele>
        <time>2020-07-22T12:59:54.106Z</time>
      </trkpt>
      <trkpt lat="46.45611" lon="7.46752">
        <ele>1579.77</ele>
        <time>2020-07-22T13:00:48.833Z</time>
      </trkpt>
      <trkpt lat="46.45606" lon="7.46756">
        <ele>1580.73</ele>
        <time>2020-07-22T13:01:09.298Z</time>
      </trkpt>
      <trkpt lat="46.45606" lon="7.46757">
        <ele>1580.73</ele>
        <time>2020-07-22T13:01:09.938Z</time>
      </trkpt>
      <trkpt lat="46.456" lon="7.46762">
        <ele>1581.69</ele>
        <time>2020-07-22T13:01:34.738Z</time>
      </trkpt>
      <trkpt lat="46.45592" lon="7.46768">
        <ele>1582.77</ele>
        <time>2020-07-22T13:02:01.747Z</time>
      </trkpt>
      <trkpt lat="46.45582" lon="7.46771">
        <ele>1584.02</ele>
        <time>2020-07-22T13:02:33.322Z</time>
      </trkpt>
      <trkpt lat="46.45573" lon="7.4677">
        <ele>1585.38</ele>
        <time>2020-07-22T13:03:05.677Z</time>
      </trkpt>
      <trkpt lat="46.45576" lon="7.46778">
        <ele>1586</ele>
        <time>2020-07-22T13:03:20.668Z</time>
      </trkpt>
      <trkpt lat="46.45581" lon="7.46783">
        <ele>1586.29</ele>
        <time>2020-07-22T13:03:30.392Z</time>
      </trkpt>
      <trkpt lat="46.45587" lon="7.46785">
        <ele>1587.48</ele>
        <time>2020-07-22T13:03:52.459Z</time>
      </trkpt>
      <trkpt lat="46.45591" lon="7.46786">
        <ele>1588.33</ele>
        <time>2020-07-22T13:04:07.009Z</time>
      </trkpt>
      <trkpt lat="46.45592" lon="7.46789">
        <ele>1588.86</ele>
        <time>2020-07-22T13:04:15.239Z</time>
      </trkpt>
      <trkpt lat="46.45592" lon="7.46793">
        <ele>1589.67</ele>
        <time>2020-07-22T13:04:25.117Z</time>
      </trkpt>
      <trkpt lat="46.45587" lon="7.46799">
        <ele>1591.05</ele>
        <time>2020-07-22T13:04:48.371Z</time>
      </trkpt>
      <trkpt lat="46.45584" lon="7.46806">
        <ele>1592.81</ele>
        <time>2020-07-22T13:05:08.730Z</time>
      </trkpt>
      <trkpt lat="46.45582" lon="7.46813">
        <ele>1594.31</ele>
        <time>2020-07-22T13:05:27.444Z</time>
      </trkpt>
      <trkpt lat="46.45581" lon="7.46819">
        <ele>1596.51</ele>
        <time>2020-07-22T13:05:42.688Z</time>
      </trkpt>
      <trkpt lat="46.45577" lon="7.46826">
        <ele>1598.57</ele>
        <time>2020-07-22T13:06:05.147Z</time>
      </trkpt>
      <trkpt lat="46.45569" lon="7.46835">
        <ele>1602.02</ele>
        <time>2020-07-22T13:06:41.429Z</time>
      </trkpt>
      <trkpt lat="46.4556" lon="7.46843">
        <ele>1605.96</ele>
        <time>2020-07-22T13:07:19.258Z</time>
      </trkpt>
      <trkpt lat="46.45551" lon="7.46852">
        <ele>1608.91</ele>
        <time>2020-07-22T13:07:58.435Z</time>
      </trkpt>
      <trkpt lat="46.45545" lon="7.46859">
        <ele>1611.78</ele>
        <time>2020-07-22T13:08:26.028Z</time>
      </trkpt>
      <trkpt lat="46.45541" lon="7.46865">
        <ele>1613.1</ele>
        <time>2020-07-22T13:08:46.647Z</time>
      </trkpt>
      <trkpt lat="46.45535" lon="7.46875">
        <ele>1615.51</ele>
        <time>2020-07-22T13:09:19.395Z</time>
      </trkpt>
      <trkpt lat="46.45529" lon="7.46881">
        <ele>1617.52</ele>
        <time>2020-07-22T13:09:45.512Z</time>
      </trkpt>
      <trkpt lat="46.45524" lon="7.46881">
        <ele>1618.92</ele>
        <time>2020-07-22T13:10:03.435Z</time>
      </trkpt>
      <trkpt lat="46.45518" lon="7.46879">
        <ele>1620.46</ele>
        <time>2020-07-22T13:10:25.503Z</time>
      </trkpt>
      <trkpt lat="46.45508" lon="7.46873">
        <ele>1622.84</ele>
        <time>2020-07-22T13:11:04.290Z</time>
      </trkpt>
      <trkpt lat="46.45501" lon="7.46869">
        <ele>1624.44</ele>
        <time>2020-07-22T13:11:31.257Z</time>
      </trkpt>
      <trkpt lat="46.45497" lon="7.46869">
        <ele>1625.53</ele>
        <time>2020-07-22T13:11:45.595Z</time>
      </trkpt>
      <trkpt lat="46.45491" lon="7.46864">
        <ele>1627.25</ele>
        <time>2020-07-22T13:12:10.395Z</time>
      </trkpt>
      <trkpt lat="46.45486" lon="7.46862">
        <ele>1628.89</ele>
        <time>2020-07-22T13:12:28.986Z</time>
      </trkpt>
      <trkpt lat="46.45483" lon="7.46865">
        <ele>1629.94</ele>
        <time>2020-07-22T13:12:42.045Z</time>
      </trkpt>
      <trkpt lat="46.4548" lon="7.46868">
        <ele>1631.49</ele>
        <time>2020-07-22T13:12:55.104Z</time>
      </trkpt>
      <trkpt lat="46.45478" lon="7.46876">
        <ele>1633.31</ele>
        <time>2020-07-22T13:13:16.121Z</time>
      </trkpt>
      <trkpt lat="46.45475" lon="7.4688">
        <ele>1634.42</ele>
        <time>2020-07-22T13:13:30.723Z</time>
      </trkpt>
      <trkpt lat="46.45472" lon="7.46877">
        <ele>1635.49</ele>
        <time>2020-07-22T13:13:43.782Z</time>
      </trkpt>
      <trkpt lat="46.4547" lon="7.46874">
        <ele>1636.16</ele>
        <time>2020-07-22T13:13:54.091Z</time>
      </trkpt>
      <trkpt lat="46.45466" lon="7.46873">
        <ele>1637.41</ele>
        <time>2020-07-22T13:14:08.641Z</time>
      </trkpt>
      <trkpt lat="46.45463" lon="7.4687">
        <ele>1638.37</ele>
        <time>2020-07-22T13:14:21.699Z</time>
      </trkpt>
      <trkpt lat="46.45455" lon="7.46877">
        <ele>1641.26</ele>
        <time>2020-07-22T13:14:55.184Z</time>
      </trkpt>
      <trkpt lat="46.45453" lon="7.46882">
        <ele>1642.45</ele>
        <time>2020-07-22T13:15:09.462Z</time>
      </trkpt>
      <trkpt lat="46.45452" lon="7.46883">
        <ele>1643.11</ele>
        <time>2020-07-22T13:15:13.815Z</time>
      </trkpt>
      <trkpt lat="46.45447" lon="7.46881">
        <ele>1644.59</ele>
        <time>2020-07-22T13:15:32.406Z</time>
      </trkpt>
      <trkpt lat="46.45443" lon="7.46883">
        <ele>1646</ele>
        <time>2020-07-22T13:15:47.571Z</time>
      </trkpt>
      <trkpt lat="46.45439" lon="7.46889">
        <ele>1647.65</ele>
        <time>2020-07-22T13:16:08.190Z</time>
      </trkpt>
      <trkpt lat="46.45434" lon="7.46892">
        <ele>1649.44</ele>
        <time>2020-07-22T13:16:27.584Z</time>
      </trkpt>
      <trkpt lat="46.45429" lon="7.46894">
        <ele>1650.92</ele>
        <time>2020-07-22T13:16:46.175Z</time>
      </trkpt>
      <trkpt lat="46.45424" lon="7.46892">
        <ele>1652.12</ele>
        <time>2020-07-22T13:17:04.766Z</time>
      </trkpt>
      <trkpt lat="46.45421" lon="7.46893">
        <ele>1652.8</ele>
        <time>2020-07-22T13:17:15.800Z</time>
      </trkpt>
      <trkpt lat="46.45417" lon="7.46896">
        <ele>1654.19</ele>
        <time>2020-07-22T13:17:31.939Z</time>
      </trkpt>
      <trkpt lat="46.45413" lon="7.46895">
        <ele>1654.75</ele>
        <time>2020-07-22T13:17:46.489Z</time>
      </trkpt>
      <trkpt lat="46.45397" lon="7.46897">
        <ele>1656.86</ele>
        <time>2020-07-22T13:18:42.402Z</time>
      </trkpt>
      <trkpt lat="46.45393" lon="7.46902">
        <ele>1657.76</ele>
        <time>2020-07-22T13:19:01.324Z</time>
      </trkpt>
      <trkpt lat="46.45389" lon="7.46904">
        <ele>1657.75</ele>
        <time>2020-07-22T13:19:05.119Z</time>
      </trkpt>
      <trkpt lat="46.45386" lon="7.46905">
        <ele>1657.79</ele>
        <time>2020-07-22T13:19:08.366Z</time>
      </trkpt>
      <trkpt lat="46.45387" lon="7.46923">
        <ele>1657.89</ele>
        <time>2020-07-22T13:19:20.847Z</time>
      </trkpt>
      <trkpt lat="46.45388" lon="7.46943">
        <ele>1657.86</ele>
        <time>2020-07-22T13:19:33.272Z</time>
      </trkpt>
      <trkpt lat="46.45388" lon="7.46949">
        <ele>1657.56</ele>
        <time>2020-07-22T13:19:34.168Z</time>
      </trkpt>
      <trkpt lat="46.45385" lon="7.46955">
        <ele>1657.77</ele>
        <time>2020-07-22T13:19:41.783Z</time>
      </trkpt>
      <trkpt lat="46.45376" lon="7.46967">
        <ele>1658.33</ele>
        <time>2020-07-22T13:20:01.113Z</time>
      </trkpt>
      <trkpt lat="46.45367" lon="7.46978">
        <ele>1658.88</ele>
        <time>2020-07-22T13:20:19.833Z</time>
      </trkpt>
      <trkpt lat="46.45345" lon="7.47004">
        <ele>1656.94</ele>
        <time>2020-07-22T13:20:25.984Z</time>
      </trkpt>
      <trkpt lat="46.45321" lon="7.47034">
        <ele>1654.98</ele>
        <time>2020-07-22T13:20:32.512Z</time>
      </trkpt>
      <trkpt lat="46.45321" lon="7.47034">
        <ele>1655.25</ele>
        <time>2020-07-22T13:20:32.512Z</time>
      </trkpt>
      <trkpt lat="46.45321" lon="7.47034">
        <ele>1654.76</ele>
        <time>2020-07-22T13:20:32.512Z</time>
      </trkpt>
      <trkpt lat="46.45321" lon="7.47034">
        <ele>1654.98</ele>
        <time>2020-07-22T13:20:32.512Z</time>
      </trkpt>
      <trkpt lat="46.45345" lon="7.47004">
        <ele>1656.94</ele>
        <time>2020-07-22T13:21:28.327Z</time>
      </trkpt>
      <trkpt lat="46.45367" lon="7.46978">
        <ele>1658.88</ele>
        <time>2020-07-22T13:22:20.741Z</time>
      </trkpt>
      <trkpt lat="46.45376" lon="7.46967">
        <ele>1658.33</ele>
        <time>2020-07-22T13:22:23.494Z</time>
      </trkpt>
      <trkpt lat="46.45385" lon="7.46955">
        <ele>1657.77</ele>
        <time>2020-07-22T13:22:26.377Z</time>
      </trkpt>
      <trkpt lat="46.45388" lon="7.46949">
        <ele>1657.56</ele>
        <time>2020-07-22T13:22:27.635Z</time>
      </trkpt>
      <trkpt lat="46.45388" lon="7.46943">
        <ele>1657.86</ele>
        <time>2020-07-22T13:22:35.518Z</time>
      </trkpt>
      <trkpt lat="46.45387" lon="7.46923">
        <ele>1657.89</ele>
        <time>2020-07-22T13:22:48.617Z</time>
      </trkpt>
      <trkpt lat="46.45386" lon="7.46905">
        <ele>1657.79</ele>
        <time>2020-07-22T13:22:53.065Z</time>
      </trkpt>
      <trkpt lat="46.45389" lon="7.46904">
        <ele>1657.75</ele>
        <time>2020-07-22T13:22:54.096Z</time>
      </trkpt>
      <trkpt lat="46.45393" lon="7.46902">
        <ele>1657.76</ele>
        <time>2020-07-22T13:22:58.115Z</time>
      </trkpt>
      <trkpt lat="46.45397" lon="7.46897">
        <ele>1656.86</ele>
        <time>2020-07-22T13:22:59.259Z</time>
      </trkpt>
      <trkpt lat="46.45413" lon="7.46895">
        <ele>1654.75</ele>
        <time>2020-07-22T13:23:02.741Z</time>
      </trkpt>
      <trkpt lat="46.45417" lon="7.46896">
        <ele>1654.19</ele>
        <time>2020-07-22T13:23:03.621Z</time>
      </trkpt>
      <trkpt lat="46.45421" lon="7.46893">
        <ele>1652.8</ele>
        <time>2020-07-22T13:23:04.598Z</time>
      </trkpt>
      <trkpt lat="46.45424" lon="7.46892">
        <ele>1652.12</ele>
        <time>2020-07-22T13:23:05.265Z</time>
      </trkpt>
      <trkpt lat="46.45429" lon="7.46894">
        <ele>1650.92</ele>
        <time>2020-07-22T13:23:06.390Z</time>
      </trkpt>
      <trkpt lat="46.45434" lon="7.46892">
        <ele>1649.44</ele>
        <time>2020-07-22T13:23:07.514Z</time>
      </trkpt>
      <trkpt lat="46.45439" lon="7.46889">
        <ele>1647.65</ele>
        <time>2020-07-22T13:23:08.687Z</time>
      </trkpt>
      <trkpt lat="46.45443" lon="7.46883">
        <ele>1646</ele>
        <time>2020-07-22T13:23:09.935Z</time>
      </trkpt>
      <trkpt lat="46.45447" lon="7.46881">
        <ele>1644.59</ele>
        <time>2020-07-22T13:23:10.852Z</time>
      </trkpt>
      <trkpt lat="46.45452" lon="7.46883">
        <ele>1643.11</ele>
        <time>2020-07-22T13:23:11.976Z</time>
      </trkpt>
      <trkpt lat="46.45453" lon="7.46882">
        <ele>1642.45</ele>
        <time>2020-07-22T13:23:12.240Z</time>
      </trkpt>
      <trkpt lat="46.45455" lon="7.46877">
        <ele>1641.26</ele>
        <time>2020-07-22T13:23:13.103Z</time>
      </trkpt>
      <trkpt lat="46.45463" lon="7.4687">
        <ele>1638.37</ele>
        <time>2020-07-22T13:23:15.129Z</time>
      </trkpt>
      <trkpt lat="46.45466" lon="7.46873">
        <ele>1637.41</ele>
        <time>2020-07-22T13:23:15.919Z</time>
      </trkpt>
      <trkpt lat="46.4547" lon="7.46874">
        <ele>1636.16</ele>
        <time>2020-07-22T13:23:16.799Z</time>
      </trkpt>
      <trkpt lat="46.45472" lon="7.46877">
        <ele>1635.49</ele>
        <time>2020-07-22T13:23:17.422Z</time>
      </trkpt>
      <trkpt lat="46.45475" lon="7.4688">
        <ele>1634.42</ele>
        <time>2020-07-22T13:23:18.212Z</time>
      </trkpt>
      <trkpt lat="46.45478" lon="7.46876">
        <ele>1633.31</ele>
        <time>2020-07-22T13:23:19.096Z</time>
      </trkpt>
      <trkpt lat="46.4548" lon="7.46868">
        <ele>1631.49</ele>
        <time>2020-07-22T13:23:20.367Z</time>
      </trkpt>
      <trkpt lat="46.45483" lon="7.46865">
        <ele>1629.94</ele>
        <time>2020-07-22T13:23:21.157Z</time>
      </trkpt>
      <trkpt lat="46.45486" lon="7.46862">
        <ele>1628.89</ele>
        <time>2020-07-22T13:23:21.947Z</time>
      </trkpt>
      <trkpt lat="46.45491" lon="7.46864">
        <ele>1627.25</ele>
        <time>2020-07-22T13:23:23.071Z</time>
      </trkpt>
      <trkpt lat="46.45497" lon="7.46869">
        <ele>1625.53</ele>
        <time>2020-07-22T13:23:24.571Z</time>
      </trkpt>
      <trkpt lat="46.45498" lon="7.46869">
        <ele>1624.99</ele>
        <time>2020-07-22T13:23:24.788Z</time>
      </trkpt>
      <trkpt lat="46.45497" lon="7.46869">
        <ele>1624.99</ele>
        <time>2020-07-22T13:23:25.718Z</time>
      </trkpt>
      <trkpt lat="46.45501" lon="7.46869">
        <ele>1624.44</ele>
        <time>2020-07-22T13:23:26.585Z</time>
      </trkpt>
      <trkpt lat="46.45508" lon="7.46873">
        <ele>1622.84</ele>
        <time>2020-07-22T13:23:28.216Z</time>
      </trkpt>
      <trkpt lat="46.45518" lon="7.46879">
        <ele>1620.46</ele>
        <time>2020-07-22T13:23:30.562Z</time>
      </trkpt>
      <trkpt lat="46.45524" lon="7.46881">
        <ele>1618.92</ele>
        <time>2020-07-22T13:23:31.897Z</time>
      </trkpt>
      <trkpt lat="46.45529" lon="7.46881">
        <ele>1617.52</ele>
        <time>2020-07-22T13:23:32.981Z</time>
      </trkpt>
      <trkpt lat="46.45535" lon="7.46875">
        <ele>1615.51</ele>
        <time>2020-07-22T13:23:34.561Z</time>
      </trkpt>
      <trkpt lat="46.45541" lon="7.46865">
        <ele>1613.1</ele>
        <time>2020-07-22T13:23:36.542Z</time>
      </trkpt>
      <trkpt lat="46.45545" lon="7.46859">
        <ele>1611.78</ele>
        <time>2020-07-22T13:23:37.789Z</time>
      </trkpt>
      <trkpt lat="46.45551" lon="7.46852">
        <ele>1608.91</ele>
        <time>2020-07-22T13:23:39.458Z</time>
      </trkpt>
      <trkpt lat="46.4556" lon="7.46843">
        <ele>1605.96</ele>
        <time>2020-07-22T13:23:41.828Z</time>
      </trkpt>
      <trkpt lat="46.45569" lon="7.46835">
        <ele>1602.02</ele>
        <time>2020-07-22T13:23:44.116Z</time>
      </trkpt>
      <trkpt lat="46.45577" lon="7.46826">
        <ele>1598.57</ele>
        <time>2020-07-22T13:23:46.311Z</time>
      </trkpt>
      <trkpt lat="46.45581" lon="7.46819">
        <ele>1596.51</ele>
        <time>2020-07-22T13:23:47.669Z</time>
      </trkpt>
      <trkpt lat="46.45582" lon="7.46813">
        <ele>1594.31</ele>
        <time>2020-07-22T13:23:48.591Z</time>
      </trkpt>
      <trkpt lat="46.45584" lon="7.46806">
        <ele>1592.81</ele>
        <time>2020-07-22T13:23:49.723Z</time>
      </trkpt>
      <trkpt lat="46.45587" lon="7.46799">
        <ele>1591.05</ele>
        <time>2020-07-22T13:23:50.955Z</time>
      </trkpt>
      <trkpt lat="46.45592" lon="7.46793">
        <ele>1589.67</ele>
        <time>2020-07-22T13:23:52.361Z</time>
      </trkpt>
      <trkpt lat="46.45592" lon="7.46789">
        <ele>1588.86</ele>
        <time>2020-07-22T13:23:52.959Z</time>
      </trkpt>
      <trkpt lat="46.45591" lon="7.46786">
        <ele>1588.33</ele>
        <time>2020-07-22T13:23:53.457Z</time>
      </trkpt>
      <trkpt lat="46.45587" lon="7.46785">
        <ele>1587.48</ele>
        <time>2020-07-22T13:23:54.337Z</time>
      </trkpt>
      <trkpt lat="46.45581" lon="7.46783">
        <ele>1586.29</ele>
        <time>2020-07-22T13:23:55.672Z</time>
      </trkpt>
      <trkpt lat="46.45576" lon="7.46778">
        <ele>1586</ele>
        <time>2020-07-22T13:23:57.079Z</time>
      </trkpt>
      <trkpt lat="46.45573" lon="7.4677">
        <ele>1585.38</ele>
        <time>2020-07-22T13:23:58.440Z</time>
      </trkpt>
      <trkpt lat="46.45582" lon="7.46771">
        <ele>1584.02</ele>
        <time>2020-07-22T13:24:00.397Z</time>
      </trkpt>
      <trkpt lat="46.45592" lon="7.46768">
        <ele>1582.77</ele>
        <time>2020-07-22T13:24:02.611Z</time>
      </trkpt>
      <trkpt lat="46.456" lon="7.46762">
        <ele>1581.69</ele>
        <time>2020-07-22T13:24:04.564Z</time>
      </trkpt>
      <trkpt lat="46.45611" lon="7.46752">
        <ele>1579.77</ele>
        <time>2020-07-22T13:24:07.378Z</time>
      </trkpt>
      <trkpt lat="46.45625" lon="7.46743">
        <ele>1577.73</ele>
        <time>2020-07-22T13:24:10.698Z</time>
      </trkpt>
      <trkpt lat="46.45636" lon="7.46737">
        <ele>1576.24</ele>
        <time>2020-07-22T13:24:13.246Z</time>
      </trkpt>
      <trkpt lat="46.45648" lon="7.46734">
        <ele>1574.48</ele>
        <time>2020-07-22T13:24:15.886Z</time>
      </trkpt>
      <trkpt lat="46.45648" lon="7.46728">
        <ele>1573.69</ele>
        <time>2020-07-22T13:24:16.782Z</time>
      </trkpt>
      <trkpt lat="46.45645" lon="7.46722">
        <ele>1572.35</ele>
        <time>2020-07-22T13:24:17.890Z</time>
      </trkpt>
      <trkpt lat="46.45647" lon="7.46717">
        <ele>1571.04</ele>
        <time>2020-07-22T13:24:18.754Z</time>
      </trkpt>
      <trkpt lat="46.45649" lon="7.46712">
        <ele>1569.74</ele>
        <time>2020-07-22T13:24:19.617Z</time>
      </trkpt>
      <trkpt lat="46.45654" lon="7.46703">
        <ele>1567.27</ele>
        <time>2020-07-22T13:24:21.344Z</time>
      </trkpt>
      <trkpt lat="46.45658" lon="7.46696">
        <ele>1565.97</ele>
        <time>2020-07-22T13:24:22.703Z</time>
      </trkpt>
      <trkpt lat="46.45657" lon="7.46692">
        <ele>1565.03</ele>
        <time>2020-07-22T13:24:23.338Z</time>
      </trkpt>
      <trkpt lat="46.45657" lon="7.46691">
        <ele>1565.03</ele>
        <time>2020-07-22T13:24:23.979Z</time>
      </trkpt>
      <trkpt lat="46.45657" lon="7.4669">
        <ele>1564.08</ele>
        <time>2020-07-22T13:24:24.128Z</time>
      </trkpt>
      <trkpt lat="46.4566" lon="7.46683">
        <ele>1562.36</ele>
        <time>2020-07-22T13:24:25.359Z</time>
      </trkpt>
      <trkpt lat="46.45665" lon="7.46674">
        <ele>1560.36</ele>
        <time>2020-07-22T13:24:27.086Z</time>
      </trkpt>
      <trkpt lat="46.45656" lon="7.46675">
        <ele>1559.28</ele>
        <time>2020-07-22T13:24:29.044Z</time>
      </trkpt>
      <trkpt lat="46.4565" lon="7.46674">
        <ele>1558.8</ele>
        <time>2020-07-22T13:24:30.353Z</time>
      </trkpt>
      <trkpt lat="46.45646" lon="7.46673">
        <ele>1558.48</ele>
        <time>2020-07-22T13:24:31.233Z</time>
      </trkpt>
      <trkpt lat="46.45643" lon="7.46671">
        <ele>1558.13</ele>
        <time>2020-07-22T13:24:31.949Z</time>
      </trkpt>
      <trkpt lat="46.45639" lon="7.46666">
        <ele>1557.7</ele>
        <time>2020-07-22T13:24:33.094Z</time>
      </trkpt>
      <trkpt lat="46.45637" lon="7.46662">
        <ele>1557.3</ele>
        <time>2020-07-22T13:24:33.832Z</time>
      </trkpt>
      <trkpt lat="46.45634" lon="7.46655">
        <ele>1556.67</ele>
        <time>2020-07-22T13:24:35.063Z</time>
      </trkpt>
      <trkpt lat="46.45634" lon="7.46649">
        <ele>1556.18</ele>
        <time>2020-07-22T13:24:35.960Z</time>
      </trkpt>
      <trkpt lat="46.45634" lon="7.46643">
        <ele>1555.77</ele>
        <time>2020-07-22T13:24:36.856Z</time>
      </trkpt>
      <trkpt lat="46.45635" lon="7.46639">
        <ele>1555.34</ele>
        <time>2020-07-22T13:24:37.491Z</time>
      </trkpt>
      <trkpt lat="46.45637" lon="7.46635">
        <ele>1554.95</ele>
        <time>2020-07-22T13:24:38.230Z</time>
      </trkpt>
      <trkpt lat="46.4564" lon="7.46632">
        <ele>1554.51</ele>
        <time>2020-07-22T13:24:39.020Z</time>
      </trkpt>
      <trkpt lat="46.45643" lon="7.46628">
        <ele>1554.1</ele>
        <time>2020-07-22T13:24:39.903Z</time>
      </trkpt>
      <trkpt lat="46.4565" lon="7.46625">
        <ele>1553.56</ele>
        <time>2020-07-22T13:24:41.485Z</time>
      </trkpt>
      <trkpt lat="46.45658" lon="7.46622">
        <ele>1552.65</ele>
        <time>2020-07-22T13:24:43.277Z</time>
      </trkpt>
      <trkpt lat="46.45676" lon="7.4662">
        <ele>1550.8</ele>
        <time>2020-07-22T13:24:47.191Z</time>
      </trkpt>
      <trkpt lat="46.45684" lon="7.46618">
        <ele>1550.18</ele>
        <time>2020-07-22T13:24:48.951Z</time>
      </trkpt>
      <trkpt lat="46.4569" lon="7.46615">
        <ele>1549.62</ele>
        <time>2020-07-22T13:24:50.327Z</time>
      </trkpt>
      <trkpt lat="46.45697" lon="7.4661">
        <ele>1548.91</ele>
        <time>2020-07-22T13:24:52.019Z</time>
      </trkpt>
      <trkpt lat="46.45701" lon="7.46605">
        <ele>1548.34</ele>
        <time>2020-07-22T13:24:53.164Z</time>
      </trkpt>
      <trkpt lat="46.45705" lon="7.46599">
        <ele>1547.63</ele>
        <time>2020-07-22T13:24:54.411Z</time>
      </trkpt>
      <trkpt lat="46.45709" lon="7.46591">
        <ele>1546.97</ele>
        <time>2020-07-22T13:24:55.887Z</time>
      </trkpt>
      <trkpt lat="46.45712" lon="7.46583">
        <ele>1546.33</ele>
        <time>2020-07-22T13:24:57.248Z</time>
      </trkpt>
      <trkpt lat="46.45714" lon="7.46575">
        <ele>1545.84</ele>
        <time>2020-07-22T13:24:58.519Z</time>
      </trkpt>
      <trkpt lat="46.45717" lon="7.46562">
        <ele>1544.97</ele>
        <time>2020-07-22T13:25:00.567Z</time>
      </trkpt>
      <trkpt lat="46.45718" lon="7.46554">
        <ele>1544.52</ele>
        <time>2020-07-22T13:25:01.781Z</time>
      </trkpt>
      <trkpt lat="46.45721" lon="7.46537">
        <ele>1543.29</ele>
        <time>2020-07-22T13:25:04.403Z</time>
      </trkpt>
      <trkpt lat="46.45722" lon="7.46525">
        <ele>1542.48</ele>
        <time>2020-07-22T13:25:06.208Z</time>
      </trkpt>
      <trkpt lat="46.45722" lon="7.46512">
        <ele>1541.63</ele>
        <time>2020-07-22T13:25:08.150Z</time>
      </trkpt>
      <trkpt lat="46.45722" lon="7.465">
        <ele>1540.84</ele>
        <time>2020-07-22T13:25:09.943Z</time>
      </trkpt>
      <trkpt lat="46.45721" lon="7.46487">
        <ele>1540.01</ele>
        <time>2020-07-22T13:25:11.897Z</time>
      </trkpt>
      <trkpt lat="46.45719" lon="7.46475">
        <ele>1539.19</ele>
        <time>2020-07-22T13:25:13.741Z</time>
      </trkpt>
      <trkpt lat="46.45717" lon="7.46465">
        <ele>1538.58</ele>
        <time>2020-07-22T13:25:15.296Z</time>
      </trkpt>
      <trkpt lat="46.45713" lon="7.46453">
        <ele>1537.8</ele>
        <time>2020-07-22T13:25:17.287Z</time>
      </trkpt>
      <trkpt lat="46.45709" lon="7.46444">
        <ele>1537.07</ele>
        <time>2020-07-22T13:25:18.887Z</time>
      </trkpt>
      <trkpt lat="46.45703" lon="7.46434">
        <ele>1536.36</ele>
        <time>2020-07-22T13:25:20.868Z</time>
      </trkpt>
      <trkpt lat="46.45699" lon="7.46426">
        <ele>1535.7</ele>
        <time>2020-07-22T13:25:22.345Z</time>
      </trkpt>
      <trkpt lat="46.45702" lon="7.46412">
        <ele>1535.22</ele>
        <time>2020-07-22T13:25:24.691Z</time>
      </trkpt>
      <trkpt lat="46.45707" lon="7.46395">
        <ele>1534.94</ele>
        <time>2020-07-22T13:25:28.516Z</time>
      </trkpt>
      <trkpt lat="46.4571" lon="7.46381">
        <ele>1534.55</ele>
        <time>2020-07-22T13:25:31.064Z</time>
      </trkpt>
      <trkpt lat="46.45712" lon="7.46366">
        <ele>1533.69</ele>
        <time>2020-07-22T13:25:33.346Z</time>
      </trkpt>
      <trkpt lat="46.45714" lon="7.46346">
        <ele>1532.45</ele>
        <time>2020-07-22T13:25:36.365Z</time>
      </trkpt>
      <trkpt lat="46.45714" lon="7.46345">
        <ele>1531.83</ele>
        <time>2020-07-22T13:25:36.514Z</time>
      </trkpt>
      <trkpt lat="46.45714" lon="7.46345">
        <ele>1531.83</ele>
        <time>2020-07-22T13:25:36.514Z</time>
      </trkpt>
      <trkpt lat="46.45714" lon="7.4633">
        <ele>1531.2</ele>
        <time>2020-07-22T13:25:38.660Z</time>
      </trkpt>
      <trkpt lat="46.45716" lon="7.46323">
        <ele>1530.56</ele>
        <time>2020-07-22T13:25:39.792Z</time>
      </trkpt>
      <trkpt lat="46.45728" lon="7.46304">
        <ele>1527.29</ele>
        <time>2020-07-22T13:25:43.642Z</time>
      </trkpt>
      <trkpt lat="46.4573" lon="7.46297">
        <ele>1526.12</ele>
        <time>2020-07-22T13:25:44.774Z</time>
      </trkpt>
      <trkpt lat="46.45732" lon="7.4629">
        <ele>1524.48</ele>
        <time>2020-07-22T13:25:45.906Z</time>
      </trkpt>
      <trkpt lat="46.45738" lon="7.4628">
        <ele>1522.03</ele>
        <time>2020-07-22T13:25:47.887Z</time>
      </trkpt>
      <trkpt lat="46.45751" lon="7.46267">
        <ele>1520.13</ele>
        <time>2020-07-22T13:25:51.310Z</time>
      </trkpt>
      <trkpt lat="46.45754" lon="7.46261">
        <ele>1519.57</ele>
        <time>2020-07-22T13:25:52.417Z</time>
      </trkpt>
      <trkpt lat="46.45761" lon="7.46247">
        <ele>1518.34</ele>
        <time>2020-07-22T13:25:55.001Z</time>
      </trkpt>
      <trkpt lat="46.45767" lon="7.46238">
        <ele>1517.11</ele>
        <time>2020-07-22T13:25:56.872Z</time>
      </trkpt>
      <trkpt lat="46.45773" lon="7.46235">
        <ele>1516.61</ele>
        <time>2020-07-22T13:25:58.248Z</time>
      </trkpt>
      <trkpt lat="46.45777" lon="7.46231">
        <ele>1516.22</ele>
        <time>2020-07-22T13:25:59.301Z</time>
      </trkpt>
      <trkpt lat="46.45777" lon="7.46225">
        <ele>1515.99</ele>
        <time>2020-07-22T13:26:00.197Z</time>
      </trkpt>
      <trkpt lat="46.45779" lon="7.46218">
        <ele>1515.51</ele>
        <time>2020-07-22T13:26:01.329Z</time>
      </trkpt>
      <trkpt lat="46.45782" lon="7.4621">
        <ele>1514.46</ele>
        <time>2020-07-22T13:26:02.689Z</time>
      </trkpt>
      <trkpt lat="46.45789" lon="7.46196">
        <ele>1512.58</ele>
        <time>2020-07-22T13:26:05.273Z</time>
      </trkpt>
      <trkpt lat="46.45797" lon="7.4618">
        <ele>1510.28</ele>
        <time>2020-07-22T13:26:08.226Z</time>
      </trkpt>
      <trkpt lat="46.45804" lon="7.46165">
        <ele>1507.53</ele>
        <time>2020-07-22T13:26:10.933Z</time>
      </trkpt>
      <trkpt lat="46.45808" lon="7.46158">
        <ele>1506.52</ele>
        <time>2020-07-22T13:26:12.291Z</time>
      </trkpt>
      <trkpt lat="46.45812" lon="7.46152">
        <ele>1505.27</ele>
        <time>2020-07-22T13:26:13.538Z</time>
      </trkpt>
      <trkpt lat="46.45815" lon="7.46144">
        <ele>1503.5</ele>
        <time>2020-07-22T13:26:14.899Z</time>
      </trkpt>
      <trkpt lat="46.45818" lon="7.46136">
        <ele>1501.75</ele>
        <time>2020-07-22T13:26:16.259Z</time>
      </trkpt>
      <trkpt lat="46.45819" lon="7.46129">
        <ele>1499.6</ele>
        <time>2020-07-22T13:26:17.327Z</time>
      </trkpt>
      <trkpt lat="46.4582" lon="7.46126">
        <ele>1498.82</ele>
        <time>2020-07-22T13:26:17.825Z</time>
      </trkpt>
      <trkpt lat="46.45821" lon="7.46121">
        <ele>1497.68</ele>
        <time>2020-07-22T13:26:18.603Z</time>
      </trkpt>
      <trkpt lat="46.45821" lon="7.46113">
        <ele>1495.78</ele>
        <time>2020-07-22T13:26:19.798Z</time>
      </trkpt>
      <trkpt lat="46.45823" lon="7.46095">
        <ele>1491.77</ele>
        <time>2020-07-22T13:26:22.521Z</time>
      </trkpt>
      <trkpt lat="46.45823" lon="7.46091">
        <ele>1490.72</ele>
        <time>2020-07-22T13:26:23.118Z</time>
      </trkpt>
      <trkpt lat="46.45822" lon="7.46086">
        <ele>1490.14</ele>
        <time>2020-07-22T13:26:23.896Z</time>
      </trkpt>
      <trkpt lat="46.45824" lon="7.46081">
        <ele>1488.73</ele>
        <time>2020-07-22T13:26:24.760Z</time>
      </trkpt>
      <trkpt lat="46.45826" lon="7.46077">
        <ele>1487.74</ele>
        <time>2020-07-22T13:26:25.498Z</time>
      </trkpt>
      <trkpt lat="46.45828" lon="7.4607">
        <ele>1485.76</ele>
        <time>2020-07-22T13:26:26.630Z</time>
      </trkpt>
      <trkpt lat="46.4583" lon="7.46066">
        <ele>1484.48</ele>
        <time>2020-07-22T13:26:27.368Z</time>
      </trkpt>
      <trkpt lat="46.4583" lon="7.46064">
        <ele>1484.2</ele>
        <time>2020-07-22T13:26:27.667Z</time>
      </trkpt>
      <trkpt lat="46.45833" lon="7.46059">
        <ele>1482.65</ele>
        <time>2020-07-22T13:26:28.657Z</time>
      </trkpt>
      <trkpt lat="46.45835" lon="7.46055">
        <ele>1481.38</ele>
        <time>2020-07-22T13:26:29.396Z</time>
      </trkpt>
      <trkpt lat="46.45835" lon="7.46052">
        <ele>1480.67</ele>
        <time>2020-07-22T13:26:29.844Z</time>
      </trkpt>
      <trkpt lat="46.45838" lon="7.46048">
        <ele>1479.4</ele>
        <time>2020-07-22T13:26:30.727Z</time>
      </trkpt>
      <trkpt lat="46.45841" lon="7.4604">
        <ele>1477.14</ele>
        <time>2020-07-22T13:26:32.087Z</time>
      </trkpt>
      <trkpt lat="46.4584" lon="7.46039">
        <ele>1476.57</ele>
        <time>2020-07-22T13:26:32.351Z</time>
      </trkpt>
      <trkpt lat="46.45841" lon="7.46037">
        <ele>1476.29</ele>
        <time>2020-07-22T13:26:32.720Z</time>
      </trkpt>
      <trkpt lat="46.45842" lon="7.46035">
        <ele>1475.72</ele>
        <time>2020-07-22T13:26:33.089Z</time>
      </trkpt>
      <trkpt lat="46.45841" lon="7.46034">
        <ele>1475.44</ele>
        <time>2020-07-22T13:26:33.352Z</time>
      </trkpt>
      <trkpt lat="46.4584" lon="7.46033">
        <ele>1475.16</ele>
        <time>2020-07-22T13:26:33.616Z</time>
      </trkpt>
      <trkpt lat="46.45841" lon="7.4603">
        <ele>1474.73</ele>
        <time>2020-07-22T13:26:34.113Z</time>
      </trkpt>
      <trkpt lat="46.45843" lon="7.4603">
        <ele>1474.45</ele>
        <time>2020-07-22T13:26:34.547Z</time>
      </trkpt>
      <trkpt lat="46.45842" lon="7.46025">
        <ele>1473.6</ele>
        <time>2020-07-22T13:26:35.325Z</time>
      </trkpt>
      <trkpt lat="46.45842" lon="7.4602">
        <ele>1472.33</ele>
        <time>2020-07-22T13:26:36.072Z</time>
      </trkpt>
      <trkpt lat="46.45843" lon="7.46015">
        <ele>1471.34</ele>
        <time>2020-07-22T13:26:36.849Z</time>
      </trkpt>
      <trkpt lat="46.45844" lon="7.46012">
        <ele>1469.93</ele>
        <time>2020-07-22T13:26:37.347Z</time>
      </trkpt>
      <trkpt lat="46.45845" lon="7.4601">
        <ele>1469.36</ele>
        <time>2020-07-22T13:26:37.716Z</time>
      </trkpt>
      <trkpt lat="46.45846" lon="7.46008">
        <ele>1468.52</ele>
        <time>2020-07-22T13:26:38.085Z</time>
      </trkpt>
      <trkpt lat="46.45847" lon="7.46005">
        <ele>1467.81</ele>
        <time>2020-07-22T13:26:38.583Z</time>
      </trkpt>
      <trkpt lat="46.45849" lon="7.46002">
        <ele>1466.68</ele>
        <time>2020-07-22T13:26:39.207Z</time>
      </trkpt>
      <trkpt lat="46.45851" lon="7.45999">
        <ele>1465.69</ele>
        <time>2020-07-22T13:26:39.830Z</time>
      </trkpt>
      <trkpt lat="46.45851" lon="7.45997">
        <ele>1464.7</ele>
        <time>2020-07-22T13:26:40.129Z</time>
      </trkpt>
      <trkpt lat="46.45855" lon="7.45994">
        <ele>1463.57</ele>
        <time>2020-07-22T13:26:41.105Z</time>
      </trkpt>
      <trkpt lat="46.45856" lon="7.45993">
        <ele>1463.29</ele>
        <time>2020-07-22T13:26:41.369Z</time>
      </trkpt>
      <trkpt lat="46.45858" lon="7.45993">
        <ele>1462.72</ele>
        <time>2020-07-22T13:26:41.802Z</time>
      </trkpt>
      <trkpt lat="46.4586" lon="7.45993">
        <ele>1462.3</ele>
        <time>2020-07-22T13:26:42.236Z</time>
      </trkpt>
      <trkpt lat="46.4586" lon="7.45991">
        <ele>1461.87</ele>
        <time>2020-07-22T13:26:42.535Z</time>
      </trkpt>
      <trkpt lat="46.45859" lon="7.45982">
        <ele>1460.04</ele>
        <time>2020-07-22T13:26:43.896Z</time>
      </trkpt>
      <trkpt lat="46.45859" lon="7.45979">
        <ele>1459.47</ele>
        <time>2020-07-22T13:26:44.344Z</time>
      </trkpt>
      <trkpt lat="46.45861" lon="7.45975">
        <ele>1458.34</ele>
        <time>2020-07-22T13:26:45.083Z</time>
      </trkpt>
      <trkpt lat="46.45862" lon="7.45965">
        <ele>1456.5</ele>
        <time>2020-07-22T13:26:46.592Z</time>
      </trkpt>
      <trkpt lat="46.45861" lon="7.45962">
        <ele>1455.94</ele>
        <time>2020-07-22T13:26:47.090Z</time>
      </trkpt>
      <trkpt lat="46.45861" lon="7.4596">
        <ele>1455.37</ele>
        <time>2020-07-22T13:26:47.389Z</time>
      </trkpt>
      <trkpt lat="46.45862" lon="7.45959">
        <ele>1454.95</ele>
        <time>2020-07-22T13:26:47.652Z</time>
      </trkpt>
      <trkpt lat="46.45864" lon="7.45958">
        <ele>1454.52</ele>
        <time>2020-07-22T13:26:48.111Z</time>
      </trkpt>
      <trkpt lat="46.45865" lon="7.45957">
        <ele>1454.1</ele>
        <time>2020-07-22T13:26:48.374Z</time>
      </trkpt>
      <trkpt lat="46.45863" lon="7.45951">
        <ele>1452.83</ele>
        <time>2020-07-22T13:26:49.369Z</time>
      </trkpt>
      <trkpt lat="46.45866" lon="7.45949">
        <ele>1452.12</ele>
        <time>2020-07-22T13:26:50.085Z</time>
      </trkpt>
      <trkpt lat="46.45867" lon="7.45946">
        <ele>1451.41</ele>
        <time>2020-07-22T13:26:50.583Z</time>
      </trkpt>
      <trkpt lat="46.45869" lon="7.45945">
        <ele>1450.71</ele>
        <time>2020-07-22T13:26:51.042Z</time>
      </trkpt>
      <trkpt lat="46.4587" lon="7.45942">
        <ele>1450</ele>
        <time>2020-07-22T13:26:51.540Z</time>
      </trkpt>
      <trkpt lat="46.45868" lon="7.45938">
        <ele>1448.87</ele>
        <time>2020-07-22T13:26:52.278Z</time>
      </trkpt>
      <trkpt lat="46.45871" lon="7.45934">
        <ele>1447.88</ele>
        <time>2020-07-22T13:26:53.161Z</time>
      </trkpt>
      <trkpt lat="46.45874" lon="7.45932">
        <ele>1446.75</ele>
        <time>2020-07-22T13:26:53.877Z</time>
      </trkpt>
      <trkpt lat="46.45875" lon="7.45929">
        <ele>1446.04</ele>
        <time>2020-07-22T13:26:54.375Z</time>
      </trkpt>
      <trkpt lat="46.45877" lon="7.45926">
        <ele>1444.96</ele>
        <time>2020-07-22T13:26:54.998Z</time>
      </trkpt>
      <trkpt lat="46.45878" lon="7.45921">
        <ele>1443.45</ele>
        <time>2020-07-22T13:26:55.776Z</time>
      </trkpt>
      <trkpt lat="46.45879" lon="7.45919">
        <ele>1442.85</ele>
        <time>2020-07-22T13:26:56.145Z</time>
      </trkpt>
      <trkpt lat="46.45877" lon="7.45916">
        <ele>1442.36</ele>
        <time>2020-07-22T13:26:56.769Z</time>
      </trkpt>
      <trkpt lat="46.45877" lon="7.45914">
        <ele>1441.68</ele>
        <time>2020-07-22T13:26:57.067Z</time>
      </trkpt>
      <trkpt lat="46.45879" lon="7.4591">
        <ele>1440.88</ele>
        <time>2020-07-22T13:26:57.806Z</time>
      </trkpt>
      <trkpt lat="46.45881" lon="7.45909">
        <ele>1440.27</ele>
        <time>2020-07-22T13:26:58.264Z</time>
      </trkpt>
      <trkpt lat="46.45883" lon="7.45909">
        <ele>1439.84</ele>
        <time>2020-07-22T13:26:58.698Z</time>
      </trkpt>
      <trkpt lat="46.45885" lon="7.45907">
        <ele>1439.13</ele>
        <time>2020-07-22T13:26:59.224Z</time>
      </trkpt>
      <trkpt lat="46.45886" lon="7.45905">
        <ele>1438.78</ele>
        <time>2020-07-22T13:26:59.594Z</time>
      </trkpt>
      <trkpt lat="46.45886" lon="7.459">
        <ele>1437.03</ele>
        <time>2020-07-22T13:27:00.340Z</time>
      </trkpt>
      <trkpt lat="46.45888" lon="7.45899">
        <ele>1436.43</ele>
        <time>2020-07-22T13:27:00.799Z</time>
      </trkpt>
      <trkpt lat="46.4589" lon="7.45897">
        <ele>1435.92</ele>
        <time>2020-07-22T13:27:01.326Z</time>
      </trkpt>
      <trkpt lat="46.45892" lon="7.45896">
        <ele>1435.35</ele>
        <time>2020-07-22T13:27:01.784Z</time>
      </trkpt>
      <trkpt lat="46.45894" lon="7.45898">
        <ele>1434.97</ele>
        <time>2020-07-22T13:27:02.311Z</time>
      </trkpt>
      <trkpt lat="46.45896" lon="7.45897">
        <ele>1434.41</ele>
        <time>2020-07-22T13:27:02.770Z</time>
      </trkpt>
      <trkpt lat="46.45902" lon="7.45891">
        <ele>1429.36</ele>
        <time>2020-07-22T13:27:04.349Z</time>
      </trkpt>
      <trkpt lat="46.45908" lon="7.45883">
        <ele>1422.65</ele>
        <time>2020-07-22T13:27:06.116Z</time>
      </trkpt>
      <trkpt lat="46.45909" lon="7.45877">
        <ele>1421.48</ele>
        <time>2020-07-22T13:27:07.038Z</time>
      </trkpt>
      <trkpt lat="46.4591" lon="7.45873">
        <ele>1420.92</ele>
        <time>2020-07-22T13:27:07.674Z</time>
      </trkpt>
      <trkpt lat="46.4591" lon="7.45868">
        <ele>1420.64</ele>
        <time>2020-07-22T13:27:08.420Z</time>
      </trkpt>
      <trkpt lat="46.45911" lon="7.4587">
        <ele>1420.21</ele>
        <time>2020-07-22T13:27:08.789Z</time>
      </trkpt>
      <trkpt lat="46.45912" lon="7.45873">
        <ele>1419.36</ele>
        <time>2020-07-22T13:27:09.287Z</time>
      </trkpt>
      <trkpt lat="46.45915" lon="7.45874">
        <ele>1417.96</ele>
        <time>2020-07-22T13:27:09.955Z</time>
      </trkpt>
      <trkpt lat="46.45921" lon="7.45865">
        <ele>1412.96</ele>
        <time>2020-07-22T13:27:11.825Z</time>
      </trkpt>
      <trkpt lat="46.45923" lon="7.45861">
        <ele>1411.71</ele>
        <time>2020-07-22T13:27:12.564Z</time>
      </trkpt>
      <trkpt lat="46.45924" lon="7.45854">
        <ele>1410.8</ele>
        <time>2020-07-22T13:27:13.632Z</time>
      </trkpt>
      <trkpt lat="46.45925" lon="7.45844">
        <ele>1410.94</ele>
        <time>2020-07-22T13:27:21.561Z</time>
      </trkpt>
      <trkpt lat="46.45925" lon="7.45836">
        <ele>1410.27</ele>
        <time>2020-07-22T13:27:22.756Z</time>
      </trkpt>
      <trkpt lat="46.4593" lon="7.45835">
        <ele>1409.69</ele>
        <time>2020-07-22T13:27:23.851Z</time>
      </trkpt>
      <trkpt lat="46.45933" lon="7.45835">
        <ele>1409.33</ele>
        <time>2020-07-22T13:27:24.501Z</time>
      </trkpt>
      <trkpt lat="46.45935" lon="7.45835">
        <ele>1408.23</ele>
        <time>2020-07-22T13:27:24.935Z</time>
      </trkpt>
      <trkpt lat="46.45936" lon="7.45832">
        <ele>1408.16</ele>
        <time>2020-07-22T13:27:25.563Z</time>
      </trkpt>
      <trkpt lat="46.45937" lon="7.45819">
        <ele>1408.31</ele>
        <time>2020-07-22T13:27:35.444Z</time>
      </trkpt>
      <trkpt lat="46.45939" lon="7.45812">
        <ele>1406.81</ele>
        <time>2020-07-22T13:27:36.576Z</time>
      </trkpt>
      <trkpt lat="46.4594" lon="7.45808">
        <ele>1405.99</ele>
        <time>2020-07-22T13:27:37.212Z</time>
      </trkpt>
      <trkpt lat="46.4594" lon="7.45805">
        <ele>1405.28</ele>
        <time>2020-07-22T13:27:37.660Z</time>
      </trkpt>
      <trkpt lat="46.45939" lon="7.45802">
        <ele>1404.78</ele>
        <time>2020-07-22T13:27:38.158Z</time>
      </trkpt>
      <trkpt lat="46.45936" lon="7.45799">
        <ele>1404</ele>
        <time>2020-07-22T13:27:38.947Z</time>
      </trkpt>
      <trkpt lat="46.45935" lon="7.45797">
        <ele>1403.46</ele>
        <time>2020-07-22T13:27:39.317Z</time>
      </trkpt>
      <trkpt lat="46.45936" lon="7.45795">
        <ele>1402.98</ele>
        <time>2020-07-22T13:27:39.686Z</time>
      </trkpt>
      <trkpt lat="46.45939" lon="7.45794">
        <ele>1402.05</ele>
        <time>2020-07-22T13:27:40.353Z</time>
      </trkpt>
      <trkpt lat="46.45939" lon="7.45792">
        <ele>1401.76</ele>
        <time>2020-07-22T13:27:40.652Z</time>
      </trkpt>
      <trkpt lat="46.45939" lon="7.45791">
        <ele>1401.38</ele>
        <time>2020-07-22T13:27:40.801Z</time>
      </trkpt>
      <trkpt lat="46.45936" lon="7.45789">
        <ele>1400.97</ele>
        <time>2020-07-22T13:27:41.517Z</time>
      </trkpt>
      <trkpt lat="46.45933" lon="7.45785">
        <ele>1400.18</ele>
        <time>2020-07-22T13:27:42.400Z</time>
      </trkpt>
      <trkpt lat="46.45931" lon="7.45783">
        <ele>1399.54</ele>
        <time>2020-07-22T13:27:42.927Z</time>
      </trkpt>
      <trkpt lat="46.45931" lon="7.4578">
        <ele>1399</ele>
        <time>2020-07-22T13:27:43.375Z</time>
      </trkpt>
      <trkpt lat="46.45933" lon="7.45779">
        <ele>1398.53</ele>
        <time>2020-07-22T13:27:43.834Z</time>
      </trkpt>
      <trkpt lat="46.45939" lon="7.45773">
        <ele>1397.23</ele>
        <time>2020-07-22T13:27:45.413Z</time>
      </trkpt>
      <trkpt lat="46.4594" lon="7.45771">
        <ele>1396.78</ele>
        <time>2020-07-22T13:27:45.782Z</time>
      </trkpt>
      <trkpt lat="46.4594" lon="7.4577">
        <ele>1396.51</ele>
        <time>2020-07-22T13:27:45.932Z</time>
      </trkpt>
      <trkpt lat="46.45938" lon="7.45767">
        <ele>1396.12</ele>
        <time>2020-07-22T13:27:46.555Z</time>
      </trkpt>
      <trkpt lat="46.45936" lon="7.45763">
        <ele>1395.51</ele>
        <time>2020-07-22T13:27:47.294Z</time>
      </trkpt>
      <trkpt lat="46.45932" lon="7.4576">
        <ele>1394.76</ele>
        <time>2020-07-22T13:27:48.270Z</time>
      </trkpt>
      <trkpt lat="46.45932" lon="7.45758">
        <ele>1394.53</ele>
        <time>2020-07-22T13:27:48.569Z</time>
      </trkpt>
      <trkpt lat="46.45935" lon="7.45757">
        <ele>1394.06</ele>
        <time>2020-07-22T13:27:49.236Z</time>
      </trkpt>
      <trkpt lat="46.45937" lon="7.45755">
        <ele>1393.53</ele>
        <time>2020-07-22T13:27:49.763Z</time>
      </trkpt>
      <trkpt lat="46.45937" lon="7.45753">
        <ele>1393.05</ele>
        <time>2020-07-22T13:27:50.061Z</time>
      </trkpt>
      <trkpt lat="46.45936" lon="7.45752">
        <ele>1392.72</ele>
        <time>2020-07-22T13:27:50.325Z</time>
      </trkpt>
      <trkpt lat="46.45935" lon="7.45752">
        <ele>1392.5</ele>
        <time>2020-07-22T13:27:50.541Z</time>
      </trkpt>
      <trkpt lat="46.45934" lon="7.45751">
        <ele>1392.12</ele>
        <time>2020-07-22T13:27:50.805Z</time>
      </trkpt>
      <trkpt lat="46.45932" lon="7.45747">
        <ele>1390.75</ele>
        <time>2020-07-22T13:27:51.543Z</time>
      </trkpt>
      <trkpt lat="46.4593" lon="7.45745">
        <ele>1390.07</ele>
        <time>2020-07-22T13:27:52.070Z</time>
      </trkpt>
      <trkpt lat="46.45928" lon="7.45739">
        <ele>1388.72</ele>
        <time>2020-07-22T13:27:53.065Z</time>
      </trkpt>
      <trkpt lat="46.45927" lon="7.45736">
        <ele>1387.97</ele>
        <time>2020-07-22T13:27:53.563Z</time>
      </trkpt>
      <trkpt lat="46.45925" lon="7.45732">
        <ele>1386.88</ele>
        <time>2020-07-22T13:27:54.301Z</time>
      </trkpt>
      <trkpt lat="46.45925" lon="7.45731">
        <ele>1386.53</ele>
        <time>2020-07-22T13:27:54.451Z</time>
      </trkpt>
      <trkpt lat="46.45927" lon="7.45731">
        <ele>1386.1</ele>
        <time>2020-07-22T13:27:54.884Z</time>
      </trkpt>
      <trkpt lat="46.45931" lon="7.45731">
        <ele>1385.47</ele>
        <time>2020-07-22T13:27:55.752Z</time>
      </trkpt>
      <trkpt lat="46.45934" lon="7.45733">
        <ele>1385.31</ele>
        <time>2020-07-22T13:27:56.512Z</time>
      </trkpt>
      <trkpt lat="46.45935" lon="7.45733">
        <ele>1384.54</ele>
        <time>2020-07-22T13:27:56.729Z</time>
      </trkpt>
      <trkpt lat="46.45936" lon="7.45732">
        <ele>1384.29</ele>
        <time>2020-07-22T13:27:56.992Z</time>
      </trkpt>
      <trkpt lat="46.45936" lon="7.45729">
        <ele>1383.45</ele>
        <time>2020-07-22T13:27:57.441Z</time>
      </trkpt>
      <trkpt lat="46.45935" lon="7.45724">
        <ele>1382.07</ele>
        <time>2020-07-22T13:27:58.218Z</time>
      </trkpt>
      <trkpt lat="46.45935" lon="7.45723">
        <ele>1381.98</ele>
        <time>2020-07-22T13:27:58.368Z</time>
      </trkpt>
      <trkpt lat="46.45933" lon="7.45722">
        <ele>1381.23</ele>
        <time>2020-07-22T13:27:58.826Z</time>
      </trkpt>
      <trkpt lat="46.45933" lon="7.45719">
        <ele>1380.49</ele>
        <time>2020-07-22T13:27:59.274Z</time>
      </trkpt>
      <trkpt lat="46.45933" lon="7.45718">
        <ele>1380.16</ele>
        <time>2020-07-22T13:27:59.424Z</time>
      </trkpt>
      <trkpt lat="46.45934" lon="7.45716">
        <ele>1379.59</ele>
        <time>2020-07-22T13:27:59.793Z</time>
      </trkpt>
      <trkpt lat="46.45934" lon="7.45715">
        <ele>1379.23</ele>
        <time>2020-07-22T13:27:59.942Z</time>
      </trkpt>
      <trkpt lat="46.45933" lon="7.45712">
        <ele>1378.19</ele>
        <time>2020-07-22T13:28:00.440Z</time>
      </trkpt>
      <trkpt lat="46.45933" lon="7.45705">
        <ele>1376.18</ele>
        <time>2020-07-22T13:28:01.486Z</time>
      </trkpt>
      <trkpt lat="46.45935" lon="7.45704">
        <ele>1375.89</ele>
        <time>2020-07-22T13:28:01.944Z</time>
      </trkpt>
      <trkpt lat="46.45937" lon="7.45701">
        <ele>1375.31</ele>
        <time>2020-07-22T13:28:02.568Z</time>
      </trkpt>
      <trkpt lat="46.4594" lon="7.45702">
        <ele>1374.97</ele>
        <time>2020-07-22T13:28:03.235Z</time>
      </trkpt>
      <trkpt lat="46.45941" lon="7.45701">
        <ele>1374.45</ele>
        <time>2020-07-22T13:28:03.498Z</time>
      </trkpt>
      <trkpt lat="46.45941" lon="7.45697">
        <ele>1373.21</ele>
        <time>2020-07-22T13:28:04.096Z</time>
      </trkpt>
      <trkpt lat="46.45941" lon="7.45694">
        <ele>1371.89</ele>
        <time>2020-07-22T13:28:04.544Z</time>
      </trkpt>
      <trkpt lat="46.45941" lon="7.45693">
        <ele>1371.71</ele>
        <time>2020-07-22T13:28:04.693Z</time>
      </trkpt>
      <trkpt lat="46.45943" lon="7.45693">
        <ele>1371.48</ele>
        <time>2020-07-22T13:28:05.127Z</time>
      </trkpt>
      <trkpt lat="46.45943" lon="7.45692">
        <ele>1371.04</ele>
        <time>2020-07-22T13:28:05.276Z</time>
      </trkpt>
      <trkpt lat="46.45942" lon="7.4569">
        <ele>1370.02</ele>
        <time>2020-07-22T13:28:05.646Z</time>
      </trkpt>
      <trkpt lat="46.45939" lon="7.45688">
        <ele>1368.74</ele>
        <time>2020-07-22T13:28:06.361Z</time>
      </trkpt>
      <trkpt lat="46.45937" lon="7.45687">
        <ele>1368.17</ele>
        <time>2020-07-22T13:28:06.820Z</time>
      </trkpt>
      <trkpt lat="46.45935" lon="7.45684">
        <ele>1368.26</ele>
        <time>2020-07-22T13:28:10.567Z</time>
      </trkpt>
      <trkpt lat="46.45939" lon="7.45682">
        <ele>1367.98</ele>
        <time>2020-07-22T13:28:11.410Z</time>
      </trkpt>
      <trkpt lat="46.45943" lon="7.45683">
        <ele>1367.31</ele>
        <time>2020-07-22T13:28:12.290Z</time>
      </trkpt>
      <trkpt lat="46.45948" lon="7.45686">
        <ele>1366.84</ele>
        <time>2020-07-22T13:28:13.463Z</time>
      </trkpt>
      <trkpt lat="46.45952" lon="7.45693">
        <ele>1365.82</ele>
        <time>2020-07-22T13:28:14.822Z</time>
      </trkpt>
      <trkpt lat="46.45952" lon="7.45674">
        <ele>1363.79</ele>
        <time>2020-07-22T13:28:17.660Z</time>
      </trkpt>
      <trkpt lat="46.45953" lon="7.45665">
        <ele>1359.99</ele>
        <time>2020-07-22T13:28:19.021Z</time>
      </trkpt>
      <trkpt lat="46.45954" lon="7.45658">
        <ele>1358.13</ele>
        <time>2020-07-22T13:28:20.089Z</time>
      </trkpt>
      <trkpt lat="46.45957" lon="7.45656">
        <ele>1357.13</ele>
        <time>2020-07-22T13:28:20.805Z</time>
      </trkpt>
      <trkpt lat="46.45958" lon="7.45657">
        <ele>1356.82</ele>
        <time>2020-07-22T13:28:21.068Z</time>
      </trkpt>
      <trkpt lat="46.4596" lon="7.45658">
        <ele>1356.12</ele>
        <time>2020-07-22T13:28:21.527Z</time>
      </trkpt>
      <trkpt lat="46.45961" lon="7.45663">
        <ele>1354.97</ele>
        <time>2020-07-22T13:28:22.305Z</time>
      </trkpt>
      <trkpt lat="46.45966" lon="7.45672">
        <ele>1353.95</ele>
        <time>2020-07-22T13:28:24.032Z</time>
      </trkpt>
      <trkpt lat="46.45967" lon="7.45673">
        <ele>1353.25</ele>
        <time>2020-07-22T13:28:24.295Z</time>
      </trkpt>
      <trkpt lat="46.45969" lon="7.45675">
        <ele>1352.55</ele>
        <time>2020-07-22T13:28:24.821Z</time>
      </trkpt>
      <trkpt lat="46.4597" lon="7.45654">
        <ele>1351.49</ele>
        <time>2020-07-22T13:28:27.966Z</time>
      </trkpt>
      <trkpt lat="46.45971" lon="7.45644">
        <ele>1350.37</ele>
        <time>2020-07-22T13:28:29.475Z</time>
      </trkpt>
      <trkpt lat="46.4597" lon="7.45638">
        <ele>1350.09</ele>
        <time>2020-07-22T13:28:30.325Z</time>
      </trkpt>
      <trkpt lat="46.45967" lon="7.45632">
        <ele>1349.58</ele>
        <time>2020-07-22T13:28:31.432Z</time>
      </trkpt>
      <trkpt lat="46.4597" lon="7.45628">
        <ele>1348.48</ele>
        <time>2020-07-22T13:28:32.316Z</time>
      </trkpt>
      <trkpt lat="46.45974" lon="7.45626">
        <ele>1346.53</ele>
        <time>2020-07-22T13:28:33.233Z</time>
      </trkpt>
      <trkpt lat="46.45978" lon="7.4562">
        <ele>1343.5</ele>
        <time>2020-07-22T13:28:34.480Z</time>
      </trkpt>
      <trkpt lat="46.45986" lon="7.45596">
        <ele>1336.4</ele>
        <time>2020-07-22T13:28:38.462Z</time>
      </trkpt>
      <trkpt lat="46.4599" lon="7.45595">
        <ele>1334.19</ele>
        <time>2020-07-22T13:28:39.342Z</time>
      </trkpt>
      <trkpt lat="46.45992" lon="7.45593">
        <ele>1332.79</ele>
        <time>2020-07-22T13:28:39.869Z</time>
      </trkpt>
      <trkpt lat="46.45995" lon="7.45585">
        <ele>1331.04</ele>
        <time>2020-07-22T13:28:41.230Z</time>
      </trkpt>
      <trkpt lat="46.45994" lon="7.45581">
        <ele>1330.87</ele>
        <time>2020-07-22T13:28:41.853Z</time>
      </trkpt>
      <trkpt lat="46.45993" lon="7.45577">
        <ele>1330.6</ele>
        <time>2020-07-22T13:28:42.488Z</time>
      </trkpt>
      <trkpt lat="46.45995" lon="7.45576">
        <ele>1329.12</ele>
        <time>2020-07-22T13:28:42.947Z</time>
      </trkpt>
      <trkpt lat="46.45997" lon="7.45578">
        <ele>1328.49</ele>
        <time>2020-07-22T13:28:43.474Z</time>
      </trkpt>
      <trkpt lat="46.46" lon="7.45579">
        <ele>1327.16</ele>
        <time>2020-07-22T13:28:44.141Z</time>
      </trkpt>
      <trkpt lat="46.46" lon="7.45573">
        <ele>1326.15</ele>
        <time>2020-07-22T13:28:45.037Z</time>
      </trkpt>
      <trkpt lat="46.45999" lon="7.45566">
        <ele>1325.25</ele>
        <time>2020-07-22T13:28:46.105Z</time>
      </trkpt>
      <trkpt lat="46.46002" lon="7.45564">
        <ele>1323.97</ele>
        <time>2020-07-22T13:28:46.821Z</time>
      </trkpt>
      <trkpt lat="46.46002" lon="7.45559">
        <ele>1322.71</ele>
        <time>2020-07-22T13:28:47.568Z</time>
      </trkpt>
      <trkpt lat="46.46003" lon="7.4555">
        <ele>1320.8</ele>
        <time>2020-07-22T13:28:48.929Z</time>
      </trkpt>
      <trkpt lat="46.46004" lon="7.45549">
        <ele>1320.23</ele>
        <time>2020-07-22T13:28:49.193Z</time>
      </trkpt>
      <trkpt lat="46.46007" lon="7.45551">
        <ele>1319.65</ele>
        <time>2020-07-22T13:28:49.908Z</time>
      </trkpt>
      <trkpt lat="46.4601" lon="7.45551">
        <ele>1317.01</ele>
        <time>2020-07-22T13:28:50.559Z</time>
      </trkpt>
      <trkpt lat="46.4601" lon="7.45546">
        <ele>1316.89</ele>
        <time>2020-07-22T13:28:51.461Z</time>
      </trkpt>
      <trkpt lat="46.46012" lon="7.45542">
        <ele>1314.96</ele>
        <time>2020-07-22T13:28:52.199Z</time>
      </trkpt>
      <trkpt lat="46.46012" lon="7.45535">
        <ele>1313.02</ele>
        <time>2020-07-22T13:28:53.244Z</time>
      </trkpt>
      <trkpt lat="46.46013" lon="7.45533">
        <ele>1312.6</ele>
        <time>2020-07-22T13:28:53.613Z</time>
      </trkpt>
      <trkpt lat="46.46016" lon="7.4553">
        <ele>1310.8</ele>
        <time>2020-07-22T13:28:54.403Z</time>
      </trkpt>
      <trkpt lat="46.4602" lon="7.4552">
        <ele>1307.36</ele>
        <time>2020-07-22T13:28:56.131Z</time>
      </trkpt>
      <trkpt lat="46.46023" lon="7.45515">
        <ele>1306.17</ele>
        <time>2020-07-22T13:28:57.121Z</time>
      </trkpt>
      <trkpt lat="46.46023" lon="7.45507">
        <ele>1306.03</ele>
        <time>2020-07-22T13:28:58.714Z</time>
      </trkpt>
      <trkpt lat="46.46025" lon="7.45497">
        <ele>1303.93</ele>
        <time>2020-07-22T13:29:00.269Z</time>
      </trkpt>
      <trkpt lat="46.46027" lon="7.45488">
        <ele>1301.76</ele>
        <time>2020-07-22T13:29:01.682Z</time>
      </trkpt>
      <trkpt lat="46.46027" lon="7.45481">
        <ele>1300.71</ele>
        <time>2020-07-22T13:29:02.727Z</time>
      </trkpt>
      <trkpt lat="46.46026" lon="7.45474">
        <ele>1300.29</ele>
        <time>2020-07-22T13:29:03.795Z</time>
      </trkpt>
      <trkpt lat="46.46023" lon="7.45467">
        <ele>1298.3</ele>
        <time>2020-07-22T13:29:05.026Z</time>
      </trkpt>
      <trkpt lat="46.46018" lon="7.45462">
        <ele>1296.72</ele>
        <time>2020-07-22T13:29:06.343Z</time>
      </trkpt>
      <trkpt lat="46.46017" lon="7.45456">
        <ele>1295.17</ele>
        <time>2020-07-22T13:29:07.265Z</time>
      </trkpt>
      <trkpt lat="46.46017" lon="7.45447">
        <ele>1293.04</ele>
        <time>2020-07-22T13:29:08.609Z</time>
      </trkpt>
      <trkpt lat="46.46014" lon="7.45432">
        <ele>1290.07</ele>
        <time>2020-07-22T13:29:10.942Z</time>
      </trkpt>
      <trkpt lat="46.46013" lon="7.45426">
        <ele>1289.05</ele>
        <time>2020-07-22T13:29:11.864Z</time>
      </trkpt>
      <trkpt lat="46.46014" lon="7.4542">
        <ele>1287.14</ele>
        <time>2020-07-22T13:29:12.786Z</time>
      </trkpt>
      <trkpt lat="46.46014" lon="7.4542">
        <ele>1287.14</ele>
        <time>2020-07-22T13:29:12.786Z</time>
      </trkpt>
      <trkpt lat="46.46014" lon="7.45417">
        <ele>1285.23</ele>
        <time>2020-07-22T13:29:13.234Z</time>
      </trkpt>
      <trkpt lat="46.46012" lon="7.45408">
        <ele>1284.3</ele>
        <time>2020-07-22T13:29:14.647Z</time>
      </trkpt>
      <trkpt lat="46.46013" lon="7.454">
        <ele>1282.74</ele>
        <time>2020-07-22T13:29:15.861Z</time>
      </trkpt>
      <trkpt lat="46.46012" lon="7.4539">
        <ele>1281.64</ele>
        <time>2020-07-22T13:29:17.370Z</time>
      </trkpt>
      <trkpt lat="46.46013" lon="7.45387">
        <ele>1280.92</ele>
        <time>2020-07-22T13:29:17.868Z</time>
      </trkpt>
      <trkpt lat="46.46013" lon="7.45378">
        <ele>1278.9</ele>
        <time>2020-07-22T13:29:19.212Z</time>
      </trkpt>
      <trkpt lat="46.46015" lon="7.45375">
        <ele>1277.84</ele>
        <time>2020-07-22T13:29:19.836Z</time>
      </trkpt>
      <trkpt lat="46.46017" lon="7.45367">
        <ele>1275.98</ele>
        <time>2020-07-22T13:29:21.107Z</time>
      </trkpt>
      <trkpt lat="46.46018" lon="7.45362">
        <ele>1274.91</ele>
        <time>2020-07-22T13:29:21.885Z</time>
      </trkpt>
      <trkpt lat="46.4602" lon="7.4536">
        <ele>1274.23</ele>
        <time>2020-07-22T13:29:22.411Z</time>
      </trkpt>
      <trkpt lat="46.46021" lon="7.45362">
        <ele>1273.62</ele>
        <time>2020-07-22T13:29:22.781Z</time>
      </trkpt>
      <trkpt lat="46.46026" lon="7.45364">
        <ele>1271.89</ele>
        <time>2020-07-22T13:29:23.905Z</time>
      </trkpt>
      <trkpt lat="46.46028" lon="7.45369">
        <ele>1271.28</ele>
        <time>2020-07-22T13:29:24.769Z</time>
      </trkpt>
      <trkpt lat="46.4603" lon="7.4537">
        <ele>1270.9</ele>
        <time>2020-07-22T13:29:25.227Z</time>
      </trkpt>
      <trkpt lat="46.46031" lon="7.45366">
        <ele>1269.7</ele>
        <time>2020-07-22T13:29:25.863Z</time>
      </trkpt>
      <trkpt lat="46.46033" lon="7.45363">
        <ele>1268.88</ele>
        <time>2020-07-22T13:29:26.487Z</time>
      </trkpt>
      <trkpt lat="46.4603" lon="7.45351">
        <ele>1266.36</ele>
        <time>2020-07-22T13:29:28.393Z</time>
      </trkpt>
      <trkpt lat="46.46031" lon="7.45347">
        <ele>1265.21</ele>
        <time>2020-07-22T13:29:29.029Z</time>
      </trkpt>
      <trkpt lat="46.4603" lon="7.45343">
        <ele>1264.17</ele>
        <time>2020-07-22T13:29:29.664Z</time>
      </trkpt>
      <trkpt lat="46.46026" lon="7.45332">
        <ele>1262.35</ele>
        <time>2020-07-22T13:29:31.522Z</time>
      </trkpt>
      <trkpt lat="46.4602" lon="7.45323">
        <ele>1259.96</ele>
        <time>2020-07-22T13:29:33.393Z</time>
      </trkpt>
      <trkpt lat="46.46017" lon="7.45314">
        <ele>1258.18</ele>
        <time>2020-07-22T13:29:34.886Z</time>
      </trkpt>
      <trkpt lat="46.46014" lon="7.4531">
        <ele>1257.75</ele>
        <time>2020-07-22T13:29:35.770Z</time>
      </trkpt>
      <trkpt lat="46.46014" lon="7.45305">
        <ele>1257.05</ele>
        <time>2020-07-22T13:29:36.516Z</time>
      </trkpt>
      <trkpt lat="46.46014" lon="7.45301">
        <ele>1256.43</ele>
        <time>2020-07-22T13:29:37.114Z</time>
      </trkpt>
      <trkpt lat="46.46012" lon="7.45296">
        <ele>1255.57</ele>
        <time>2020-07-22T13:29:37.977Z</time>
      </trkpt>
      <trkpt lat="46.46013" lon="7.45286">
        <ele>1254.03</ele>
        <time>2020-07-22T13:29:39.487Z</time>
      </trkpt>
      <trkpt lat="46.46015" lon="7.45282">
        <ele>1253.47</ele>
        <time>2020-07-22T13:29:40.225Z</time>
      </trkpt>
      <trkpt lat="46.46014" lon="7.45272">
        <ele>1251.65</ele>
        <time>2020-07-22T13:29:41.734Z</time>
      </trkpt>
      <trkpt lat="46.46015" lon="7.45268">
        <ele>1250.93</ele>
        <time>2020-07-22T13:29:42.370Z</time>
      </trkpt>
      <trkpt lat="46.46017" lon="7.45266">
        <ele>1249.57</ele>
        <time>2020-07-22T13:29:42.897Z</time>
      </trkpt>
      <trkpt lat="46.46018" lon="7.45259">
        <ele>1247.86</ele>
        <time>2020-07-22T13:29:43.964Z</time>
      </trkpt>
      <trkpt lat="46.4602" lon="7.4525">
        <ele>1243.2</ele>
        <time>2020-07-22T13:29:45.377Z</time>
      </trkpt>
      <trkpt lat="46.4602" lon="7.45237">
        <ele>1238.55</ele>
        <time>2020-07-22T13:29:47.319Z</time>
      </trkpt>
      <trkpt lat="46.4602" lon="7.45222">
        <ele>1234.94</ele>
        <time>2020-07-22T13:29:49.559Z</time>
      </trkpt>
      <trkpt lat="46.46019" lon="7.45213">
        <ele>1233.19</ele>
        <time>2020-07-22T13:29:50.921Z</time>
      </trkpt>
      <trkpt lat="46.46017" lon="7.45206">
        <ele>1231.73</ele>
        <time>2020-07-22T13:29:52.053Z</time>
      </trkpt>
      <trkpt lat="46.46017" lon="7.45199">
        <ele>1230.02</ele>
        <time>2020-07-22T13:29:53.098Z</time>
      </trkpt>
      <trkpt lat="46.46016" lon="7.45192">
        <ele>1228.4</ele>
        <time>2020-07-22T13:29:54.166Z</time>
      </trkpt>
      <trkpt lat="46.46013" lon="7.45182">
        <ele>1226.96</ele>
        <time>2020-07-22T13:29:55.795Z</time>
      </trkpt>
      <trkpt lat="46.46011" lon="7.45175">
        <ele>1225.68</ele>
        <time>2020-07-22T13:29:56.927Z</time>
      </trkpt>
      <trkpt lat="46.4601" lon="7.45168">
        <ele>1224.64</ele>
        <time>2020-07-22T13:29:57.995Z</time>
      </trkpt>
      <trkpt lat="46.46011" lon="7.45165">
        <ele>1223.53</ele>
        <time>2020-07-22T13:29:58.493Z</time>
      </trkpt>
      <trkpt lat="46.4601" lon="7.45162">
        <ele>1223.53</ele>
        <time>2020-07-22T13:30:00.626Z</time>
      </trkpt>
      <trkpt lat="46.4601" lon="7.45161">
        <ele>1222.83</ele>
        <time>2020-07-22T13:30:00.775Z</time>
      </trkpt>
      <trkpt lat="46.4601" lon="7.45158">
        <ele>1222.12</ele>
        <time>2020-07-22T13:30:01.224Z</time>
      </trkpt>
      <trkpt lat="46.46009" lon="7.45154">
        <ele>1221.93</ele>
        <time>2020-07-22T13:30:01.814Z</time>
      </trkpt>
      <trkpt lat="46.46015" lon="7.45157">
        <ele>1221.2</ele>
        <time>2020-07-22T13:30:03.190Z</time>
      </trkpt>
      <trkpt lat="46.46019" lon="7.4516">
        <ele>1220.69</ele>
        <time>2020-07-22T13:30:04.166Z</time>
      </trkpt>
      <trkpt lat="46.46023" lon="7.45163">
        <ele>1220.18</ele>
        <time>2020-07-22T13:30:05.143Z</time>
      </trkpt>
      <trkpt lat="46.4602" lon="7.45154">
        <ele>1221.01</ele>
        <time>2020-07-22T13:30:25.945Z</time>
      </trkpt>
      <trkpt lat="46.46017" lon="7.45149">
        <ele>1221.03</ele>
        <time>2020-07-22T13:30:30.367Z</time>
      </trkpt>
      <trkpt lat="46.46012" lon="7.45145">
        <ele>1220.55</ele>
        <time>2020-07-22T13:30:31.605Z</time>
      </trkpt>
      <trkpt lat="46.4601" lon="7.45144">
        <ele>1220.29</ele>
        <time>2020-07-22T13:30:32.064Z</time>
      </trkpt>
      <trkpt lat="46.46006" lon="7.45141">
        <ele>1219.85</ele>
        <time>2020-07-22T13:30:33.040Z</time>
      </trkpt>
      <trkpt lat="46.45999" lon="7.45139">
        <ele>1219.28</ele>
        <time>2020-07-22T13:30:34.587Z</time>
      </trkpt>
      <trkpt lat="46.45994" lon="7.45133">
        <ele>1217.88</ele>
        <time>2020-07-22T13:30:35.994Z</time>
      </trkpt>
      <trkpt lat="46.45992" lon="7.45128">
        <ele>1217.71</ele>
        <time>2020-07-22T13:30:36.961Z</time>
      </trkpt>
      <trkpt lat="46.45992" lon="7.45125">
        <ele>1215.44</ele>
        <time>2020-07-22T13:30:37.409Z</time>
      </trkpt>
      <trkpt lat="46.45995" lon="7.45123">
        <ele>1214</ele>
        <time>2020-07-22T13:30:38.125Z</time>
      </trkpt>
      <trkpt lat="46.45997" lon="7.45119">
        <ele>1211.89</ele>
        <time>2020-07-22T13:30:38.863Z</time>
      </trkpt>
      <trkpt lat="46.46002" lon="7.4511">
        <ele>1208.68</ele>
        <time>2020-07-22T13:30:40.590Z</time>
      </trkpt>
      <trkpt lat="46.46006" lon="7.45106">
        <ele>1207.21</ele>
        <time>2020-07-22T13:30:41.643Z</time>
      </trkpt>
      <trkpt lat="46.46006" lon="7.45104">
        <ele>1206.65</ele>
        <time>2020-07-22T13:30:41.942Z</time>
      </trkpt>
      <trkpt lat="46.46004" lon="7.45102">
        <ele>1205.95</ele>
        <time>2020-07-22T13:30:42.468Z</time>
      </trkpt>
      <trkpt lat="46.46001" lon="7.451">
        <ele>1205.16</ele>
        <time>2020-07-22T13:30:43.184Z</time>
      </trkpt>
      <trkpt lat="46.45998" lon="7.45096">
        <ele>1204.59</ele>
        <time>2020-07-22T13:30:44.067Z</time>
      </trkpt>
      <trkpt lat="46.45993" lon="7.4509">
        <ele>1203.04</ele>
        <time>2020-07-22T13:30:45.474Z</time>
      </trkpt>
      <trkpt lat="46.45987" lon="7.45085">
        <ele>1202.36</ele>
        <time>2020-07-22T13:30:46.974Z</time>
      </trkpt>
      <trkpt lat="46.45983" lon="7.45084">
        <ele>1201.69</ele>
        <time>2020-07-22T13:30:47.854Z</time>
      </trkpt>
      <trkpt lat="46.45981" lon="7.45082">
        <ele>1200.94</ele>
        <time>2020-07-22T13:30:48.381Z</time>
      </trkpt>
      <trkpt lat="46.45981" lon="7.45079">
        <ele>1199.89</ele>
        <time>2020-07-22T13:30:48.829Z</time>
      </trkpt>
      <trkpt lat="46.45981" lon="7.45076">
        <ele>1198.81</ele>
        <time>2020-07-22T13:30:49.277Z</time>
      </trkpt>
      <trkpt lat="46.45986" lon="7.45072">
        <ele>1197.51</ele>
        <time>2020-07-22T13:30:50.515Z</time>
      </trkpt>
      <trkpt lat="46.45987" lon="7.45067">
        <ele>1196.25</ele>
        <time>2020-07-22T13:30:51.292Z</time>
      </trkpt>
      <trkpt lat="46.45989" lon="7.45064">
        <ele>1195.13</ele>
        <time>2020-07-22T13:30:51.916Z</time>
      </trkpt>
      <trkpt lat="46.45993" lon="7.4506">
        <ele>1194.11</ele>
        <time>2020-07-22T13:30:52.969Z</time>
      </trkpt>
      <trkpt lat="46.45999" lon="7.45055">
        <ele>1191.9</ele>
        <time>2020-07-22T13:30:54.469Z</time>
      </trkpt>
      <trkpt lat="46.46003" lon="7.45051">
        <ele>1190.07</ele>
        <time>2020-07-22T13:30:55.522Z</time>
      </trkpt>
      <trkpt lat="46.46006" lon="7.45045">
        <ele>1188.29</ele>
        <time>2020-07-22T13:30:56.630Z</time>
      </trkpt>
      <trkpt lat="46.46008" lon="7.45041">
        <ele>1187.05</ele>
        <time>2020-07-22T13:30:57.368Z</time>
      </trkpt>
      <trkpt lat="46.46011" lon="7.45038">
        <ele>1186.06</ele>
        <time>2020-07-22T13:30:58.158Z</time>
      </trkpt>
      <trkpt lat="46.46012" lon="7.45036">
        <ele>1185.91</ele>
        <time>2020-07-22T13:30:58.527Z</time>
      </trkpt>
      <trkpt lat="46.46012" lon="7.45033">
        <ele>1185.7</ele>
        <time>2020-07-22T13:30:58.975Z</time>
      </trkpt>
      <trkpt lat="46.46014" lon="7.45032">
        <ele>1185.3</ele>
        <time>2020-07-22T13:30:59.434Z</time>
      </trkpt>
      <trkpt lat="46.46015" lon="7.4503">
        <ele>1184.73</ele>
        <time>2020-07-22T13:30:59.803Z</time>
      </trkpt>
      <trkpt lat="46.46017" lon="7.45026">
        <ele>1183.47</ele>
        <time>2020-07-22T13:31:00.541Z</time>
      </trkpt>
      <trkpt lat="46.4602" lon="7.45016">
        <ele>1181.54</ele>
        <time>2020-07-22T13:31:02.170Z</time>
      </trkpt>
      <trkpt lat="46.46021" lon="7.45013">
        <ele>1180.97</ele>
        <time>2020-07-22T13:31:02.668Z</time>
      </trkpt>
      <trkpt lat="46.46021" lon="7.45008">
        <ele>1180.16</ele>
        <time>2020-07-22T13:31:03.415Z</time>
      </trkpt>
      <trkpt lat="46.46021" lon="7.45004">
        <ele>1179.33</ele>
        <time>2020-07-22T13:31:04.012Z</time>
      </trkpt>
      <trkpt lat="46.46021" lon="7.45">
        <ele>1178.72</ele>
        <time>2020-07-22T13:31:04.610Z</time>
      </trkpt>
      <trkpt lat="46.46021" lon="7.44998">
        <ele>1178.02</ele>
        <time>2020-07-22T13:31:04.909Z</time>
      </trkpt>
      <trkpt lat="46.46019" lon="7.44996">
        <ele>1177.27</ele>
        <time>2020-07-22T13:31:05.435Z</time>
      </trkpt>
      <trkpt lat="46.46018" lon="7.44994">
        <ele>1176.86</ele>
        <time>2020-07-22T13:31:05.804Z</time>
      </trkpt>
      <trkpt lat="46.46018" lon="7.44992">
        <ele>1176.4</ele>
        <time>2020-07-22T13:31:06.103Z</time>
      </trkpt>
      <trkpt lat="46.46019" lon="7.4499">
        <ele>1175.83</ele>
        <time>2020-07-22T13:31:06.472Z</time>
      </trkpt>
      <trkpt lat="46.46022" lon="7.44984">
        <ele>1174.6</ele>
        <time>2020-07-22T13:31:07.579Z</time>
      </trkpt>
      <trkpt lat="46.46026" lon="7.44979">
        <ele>1173.65</ele>
        <time>2020-07-22T13:31:08.724Z</time>
      </trkpt>
      <trkpt lat="46.46028" lon="7.44973">
        <ele>1172.7</ele>
        <time>2020-07-22T13:31:09.720Z</time>
      </trkpt>
      <trkpt lat="46.4603" lon="7.44971">
        <ele>1172.22</ele>
        <time>2020-07-22T13:31:10.246Z</time>
      </trkpt>
      <trkpt lat="46.46032" lon="7.44966">
        <ele>1171.33</ele>
        <time>2020-07-22T13:31:11.110Z</time>
      </trkpt>
      <trkpt lat="46.46033" lon="7.44963">
        <ele>1170.76</ele>
        <time>2020-07-22T13:31:11.608Z</time>
      </trkpt>
      <trkpt lat="46.46036" lon="7.44958">
        <ele>1169.58</ele>
        <time>2020-07-22T13:31:12.598Z</time>
      </trkpt>
      <trkpt lat="46.46038" lon="7.4495">
        <ele>1167.68</ele>
        <time>2020-07-22T13:31:13.869Z</time>
      </trkpt>
      <trkpt lat="46.46039" lon="7.44947">
        <ele>1166.91</ele>
        <time>2020-07-22T13:31:14.367Z</time>
      </trkpt>
      <trkpt lat="46.4604" lon="7.44942">
        <ele>1166.13</ele>
        <time>2020-07-22T13:31:15.145Z</time>
      </trkpt>
      <trkpt lat="46.4604" lon="7.44939">
        <ele>1165.48</ele>
        <time>2020-07-22T13:31:15.593Z</time>
      </trkpt>
      <trkpt lat="46.46044" lon="7.44936">
        <ele>1164.78</ele>
        <time>2020-07-22T13:31:16.569Z</time>
      </trkpt>
      <trkpt lat="46.46045" lon="7.44933">
        <ele>1164.33</ele>
        <time>2020-07-22T13:31:17.067Z</time>
      </trkpt>
      <trkpt lat="46.46047" lon="7.4493">
        <ele>1163.89</ele>
        <time>2020-07-22T13:31:17.690Z</time>
      </trkpt>
      <trkpt lat="46.46049" lon="7.44927">
        <ele>1163.53</ele>
        <time>2020-07-22T13:31:18.314Z</time>
      </trkpt>
      <trkpt lat="46.46051" lon="7.44927">
        <ele>1163.14</ele>
        <time>2020-07-22T13:31:18.747Z</time>
      </trkpt>
      <trkpt lat="46.46054" lon="7.44923">
        <ele>1161.93</ele>
        <time>2020-07-22T13:31:19.631Z</time>
      </trkpt>
      <trkpt lat="46.46056" lon="7.44919">
        <ele>1160.64</ele>
        <time>2020-07-22T13:31:20.369Z</time>
      </trkpt>
      <trkpt lat="46.46057" lon="7.44914">
        <ele>1158.16</ele>
        <time>2020-07-22T13:31:21.147Z</time>
      </trkpt>
      <trkpt lat="46.46054" lon="7.44905">
        <ele>1154.99</ele>
        <time>2020-07-22T13:31:22.640Z</time>
      </trkpt>
      <trkpt lat="46.46049" lon="7.449">
        <ele>1154.38</ele>
        <time>2020-07-22T13:31:23.956Z</time>
      </trkpt>
      <trkpt lat="46.46045" lon="7.44897">
        <ele>1152.36</ele>
        <time>2020-07-22T13:31:24.933Z</time>
      </trkpt>
      <trkpt lat="46.4604" lon="7.44893">
        <ele>1149.19</ele>
        <time>2020-07-22T13:31:26.171Z</time>
      </trkpt>
      <trkpt lat="46.46038" lon="7.44889">
        <ele>1147.03</ele>
        <time>2020-07-22T13:31:26.909Z</time>
      </trkpt>
      <trkpt lat="46.46038" lon="7.44883">
        <ele>1144.17</ele>
        <time>2020-07-22T13:31:27.805Z</time>
      </trkpt>
      <trkpt lat="46.46036" lon="7.44876">
        <ele>1142.18</ele>
        <time>2020-07-22T13:31:28.937Z</time>
      </trkpt>
      <trkpt lat="46.46033" lon="7.44871">
        <ele>1140.62</ele>
        <time>2020-07-22T13:31:29.927Z</time>
      </trkpt>
      <trkpt lat="46.46029" lon="7.44868">
        <ele>1139.18</ele>
        <time>2020-07-22T13:31:30.903Z</time>
      </trkpt>
      <trkpt lat="46.46027" lon="7.44866">
        <ele>1138.64</ele>
        <time>2020-07-22T13:31:31.430Z</time>
      </trkpt>
      <trkpt lat="46.46025" lon="7.44861">
        <ele>1136.11</ele>
        <time>2020-07-22T13:31:32.294Z</time>
      </trkpt>
      <trkpt lat="46.46023" lon="7.44853">
        <ele>1133.76</ele>
        <time>2020-07-22T13:31:33.565Z</time>
      </trkpt>
      <trkpt lat="46.4602" lon="7.44849">
        <ele>1131.88</ele>
        <time>2020-07-22T13:31:34.448Z</time>
      </trkpt>
      <trkpt lat="46.46018" lon="7.44848">
        <ele>1131.43</ele>
        <time>2020-07-22T13:31:34.907Z</time>
      </trkpt>
      <trkpt lat="46.46013" lon="7.44846">
        <ele>1130.78</ele>
        <time>2020-07-22T13:31:36.031Z</time>
      </trkpt>
      <trkpt lat="46.4601" lon="7.44846">
        <ele>1130.06</ele>
        <time>2020-07-22T13:31:36.682Z</time>
      </trkpt>
      <trkpt lat="46.46006" lon="7.44848">
        <ele>1128.89</ele>
        <time>2020-07-22T13:31:37.599Z</time>
      </trkpt>
      <trkpt lat="46.46002" lon="7.44851">
        <ele>1128.23</ele>
        <time>2020-07-22T13:31:38.575Z</time>
      </trkpt>
      <trkpt lat="46.45999" lon="7.44854">
        <ele>1127.57</ele>
        <time>2020-07-22T13:31:39.365Z</time>
      </trkpt>
      <trkpt lat="46.45998" lon="7.44857">
        <ele>1127.19</ele>
        <time>2020-07-22T13:31:39.863Z</time>
      </trkpt>
      <trkpt lat="46.45995" lon="7.44861">
        <ele>1126.39</ele>
        <time>2020-07-22T13:31:40.746Z</time>
      </trkpt>
      <trkpt lat="46.45988" lon="7.44874">
        <ele>1124.01</ele>
        <time>2020-07-22T13:31:43.211Z</time>
      </trkpt>
      <trkpt lat="46.45984" lon="7.4488">
        <ele>1123.02</ele>
        <time>2020-07-22T13:31:44.458Z</time>
      </trkpt>
      <trkpt lat="46.45983" lon="7.44881">
        <ele>1122.72</ele>
        <time>2020-07-22T13:31:44.721Z</time>
      </trkpt>
      <trkpt lat="46.45981" lon="7.44883">
        <ele>1122.23</ele>
        <time>2020-07-22T13:31:45.248Z</time>
      </trkpt>
      <trkpt lat="46.45976" lon="7.44882">
        <ele>1121.28</ele>
        <time>2020-07-22T13:31:46.342Z</time>
      </trkpt>
      <trkpt lat="46.45972" lon="7.4488">
        <ele>1121.81</ele>
        <time>2020-07-22T13:31:59.908Z</time>
      </trkpt>
      <trkpt lat="46.45975" lon="7.44879">
        <ele>1121.51</ele>
        <time>2020-07-22T13:32:00.575Z</time>
      </trkpt>
      <trkpt lat="46.45978" lon="7.44877">
        <ele>1121.04</ele>
        <time>2020-07-22T13:32:01.291Z</time>
      </trkpt>
      <trkpt lat="46.45981" lon="7.44871">
        <ele>1119.59</ele>
        <time>2020-07-22T13:32:02.399Z</time>
      </trkpt>
      <trkpt lat="46.45982" lon="7.44864">
        <ele>1118.49</ele>
        <time>2020-07-22T13:32:03.466Z</time>
      </trkpt>
      <trkpt lat="46.45983" lon="7.44862">
        <ele>1118.2</ele>
        <time>2020-07-22T13:32:03.835Z</time>
      </trkpt>
      <trkpt lat="46.45984" lon="7.44848">
        <ele>1116.33</ele>
        <time>2020-07-22T13:32:05.938Z</time>
      </trkpt>
      <trkpt lat="46.45986" lon="7.44833">
        <ele>1113.46</ele>
        <time>2020-07-22T13:32:08.220Z</time>
      </trkpt>
      <trkpt lat="46.45989" lon="7.44818">
        <ele>1111.01</ele>
        <time>2020-07-22T13:32:10.553Z</time>
      </trkpt>
      <trkpt lat="46.45992" lon="7.44809">
        <ele>1109.41</ele>
        <time>2020-07-22T13:32:12.046Z</time>
      </trkpt>
      <trkpt lat="46.45996" lon="7.448">
        <ele>1107.81</ele>
        <time>2020-07-22T13:32:13.646Z</time>
      </trkpt>
      <trkpt lat="46.45997" lon="7.44794">
        <ele>1106.68</ele>
        <time>2020-07-22T13:32:14.568Z</time>
      </trkpt>
      <trkpt lat="46.45996" lon="7.44789">
        <ele>1105.89</ele>
        <time>2020-07-22T13:32:15.346Z</time>
      </trkpt>
      <trkpt lat="46.45995" lon="7.44786">
        <ele>1104.96</ele>
        <time>2020-07-22T13:32:15.843Z</time>
      </trkpt>
      <trkpt lat="46.45994" lon="7.44784">
        <ele>1104.5</ele>
        <time>2020-07-22T13:32:16.213Z</time>
      </trkpt>
      <trkpt lat="46.4599" lon="7.44776">
        <ele>1105.03</ele>
        <time>2020-07-22T13:32:29.746Z</time>
      </trkpt>
      <trkpt lat="46.45985" lon="7.44765">
        <ele>1103.65</ele>
        <time>2020-07-22T13:32:31.715Z</time>
      </trkpt>
      <trkpt lat="46.4598" lon="7.44767">
        <ele>1103.33</ele>
        <time>2020-07-22T13:32:32.785Z</time>
      </trkpt>
      <trkpt lat="46.45974" lon="7.44765">
        <ele>1102.54</ele>
        <time>2020-07-22T13:32:34.120Z</time>
      </trkpt>
      <trkpt lat="46.45963" lon="7.44759">
        <ele>1100.76</ele>
        <time>2020-07-22T13:32:36.668Z</time>
      </trkpt>
      <trkpt lat="46.45946" lon="7.44747">
        <ele>1098.2</ele>
        <time>2020-07-22T13:32:40.767Z</time>
      </trkpt>
      <trkpt lat="46.45916" lon="7.44726">
        <ele>1093.21</ele>
        <time>2020-07-22T13:32:47.988Z</time>
      </trkpt>
      <trkpt lat="46.45911" lon="7.44723">
        <ele>1091.33</ele>
        <time>2020-07-22T13:32:49.161Z</time>
      </trkpt>
      <trkpt lat="46.45911" lon="7.44722">
        <ele>1091.33</ele>
        <time>2020-07-22T13:32:49.801Z</time>
      </trkpt>
      <trkpt lat="46.45891" lon="7.44709">
        <ele>1089.46</ele>
        <time>2020-07-22T13:32:54.553Z</time>
      </trkpt>
      <trkpt lat="46.4588" lon="7.44702">
        <ele>1088.14</ele>
        <time>2020-07-22T13:32:57.157Z</time>
      </trkpt>
      <trkpt lat="46.45874" lon="7.44699">
        <ele>1087.38</ele>
        <time>2020-07-22T13:32:58.533Z</time>
      </trkpt>
      <trkpt lat="46.45861" lon="7.4469">
        <ele>1085.96</ele>
        <time>2020-07-22T13:33:01.656Z</time>
      </trkpt>
      <trkpt lat="46.45854" lon="7.44685">
        <ele>1085.31</ele>
        <time>2020-07-22T13:33:03.348Z</time>
      </trkpt>
      <trkpt lat="46.4584" lon="7.44677">
        <ele>1084.05</ele>
        <time>2020-07-22T13:33:06.610Z</time>
      </trkpt>
      <trkpt lat="46.45824" lon="7.44667">
        <ele>1082.6</ele>
        <time>2020-07-22T13:33:10.387Z</time>
      </trkpt>
      <trkpt lat="46.45806" lon="7.44655">
        <ele>1080.93</ele>
        <time>2020-07-22T13:33:14.682Z</time>
      </trkpt>
      <trkpt lat="46.45802" lon="7.44652">
        <ele>1080.62</ele>
        <time>2020-07-22T13:33:15.658Z</time>
      </trkpt>
      <trkpt lat="46.458" lon="7.4465">
        <ele>1080.45</ele>
        <time>2020-07-22T13:33:16.185Z</time>
      </trkpt>
      <trkpt lat="46.45795" lon="7.44643">
        <ele>1079.75</ele>
        <time>2020-07-22T13:33:17.691Z</time>
      </trkpt>
      <trkpt lat="46.45791" lon="7.44633">
        <ele>1079.19</ele>
        <time>2020-07-22T13:33:19.418Z</time>
      </trkpt>
      <trkpt lat="46.45787" lon="7.44618">
        <ele>1078.22</ele>
        <time>2020-07-22T13:33:21.821Z</time>
      </trkpt>
      <trkpt lat="46.45782" lon="7.44601">
        <ele>1077.4</ele>
        <time>2020-07-22T13:33:24.394Z</time>
      </trkpt>
      <trkpt lat="46.45779" lon="7.44591">
        <ele>1076.83</ele>
        <time>2020-07-22T13:33:26.024Z</time>
      </trkpt>
      <trkpt lat="46.45776" lon="7.44582">
        <ele>1076.27</ele>
        <time>2020-07-22T13:33:27.517Z</time>
      </trkpt>
      <trkpt lat="46.45771" lon="7.44564">
        <ele>1075.45</ele>
        <time>2020-07-22T13:33:30.285Z</time>
      </trkpt>
      <trkpt lat="46.45764" lon="7.44547">
        <ele>1074.54</ele>
        <time>2020-07-22T13:33:32.994Z</time>
      </trkpt>
      <trkpt lat="46.45759" lon="7.4453">
        <ele>1073.78</ele>
        <time>2020-07-22T13:33:35.665Z</time>
      </trkpt>
      <trkpt lat="46.45754" lon="7.44508">
        <ele>1072.57</ele>
        <time>2020-07-22T13:33:39.125Z</time>
      </trkpt>
      <trkpt lat="46.45749" lon="7.44489">
        <ele>1071.67</ele>
        <time>2020-07-22T13:33:41.961Z</time>
      </trkpt>
      <trkpt lat="46.45747" lon="7.44476">
        <ele>1071.03</ele>
        <time>2020-07-22T13:33:43.951Z</time>
      </trkpt>
      <trkpt lat="46.45736" lon="7.44424">
        <ele>1068.52</ele>
        <time>2020-07-22T13:33:52.076Z</time>
      </trkpt>
      <trkpt lat="46.45732" lon="7.44406">
        <ele>1067.85</ele>
        <time>2020-07-22T13:33:55.002Z</time>
      </trkpt>
      <trkpt lat="46.45729" lon="7.44389">
        <ele>1067.3</ele>
        <time>2020-07-22T13:33:57.862Z</time>
      </trkpt>
      <trkpt lat="46.45726" lon="7.44371">
        <ele>1066.14</ele>
        <time>2020-07-22T13:34:00.629Z</time>
      </trkpt>
      <trkpt lat="46.45723" lon="7.44348">
        <ele>1065.25</ele>
        <time>2020-07-22T13:34:04.137Z</time>
      </trkpt>
      <trkpt lat="46.45722" lon="7.44336">
        <ele>1065.11</ele>
        <time>2020-07-22T13:34:06.796Z</time>
      </trkpt>
      <trkpt lat="46.45722" lon="7.44322">
        <ele>1064.92</ele>
        <time>2020-07-22T13:34:09.771Z</time>
      </trkpt>
      <trkpt lat="46.45722" lon="7.44316">
        <ele>1064.83</ele>
        <time>2020-07-22T13:34:11.015Z</time>
      </trkpt>
      <trkpt lat="46.45721" lon="7.4431">
        <ele>1064.68</ele>
        <time>2020-07-22T13:34:12.124Z</time>
      </trkpt>
      <trkpt lat="46.4572" lon="7.44303">
        <ele>1064.47</ele>
        <time>2020-07-22T13:34:13.320Z</time>
      </trkpt>
      <trkpt lat="46.45719" lon="7.44302">
        <ele>1064.47</ele>
        <time>2020-07-22T13:34:14.448Z</time>
      </trkpt>
      <trkpt lat="46.45718" lon="7.44302">
        <ele>1064.47</ele>
        <time>2020-07-22T13:34:15.377Z</time>
      </trkpt>
      <trkpt lat="46.45718" lon="7.44301">
        <ele>1064.47</ele>
        <time>2020-07-22T13:34:16.018Z</time>
      </trkpt>
      <trkpt lat="46.45717" lon="7.44299">
        <ele>1064.47</ele>
        <time>2020-07-22T13:34:17.600Z</time>
      </trkpt>
      <trkpt lat="46.45718" lon="7.44298">
        <ele>1064.47</ele>
        <time>2020-07-22T13:34:18.728Z</time>
      </trkpt>
      <trkpt lat="46.45718" lon="7.44296">
        <ele>1064.47</ele>
        <time>2020-07-22T13:34:20.009Z</time>
      </trkpt>
      <trkpt lat="46.45719" lon="7.44295">
        <ele>1064.47</ele>
        <time>2020-07-22T13:34:21.137Z</time>
      </trkpt>
      <trkpt lat="46.45717" lon="7.44285">
        <ele>1064.47</ele>
        <time>2020-07-22T13:34:27.804Z</time>
      </trkpt>
      <trkpt lat="46.45711" lon="7.44251">
        <ele>1064.59</ele>
        <time>2020-07-22T13:34:51.344Z</time>
      </trkpt>
      <trkpt lat="46.45709" lon="7.44239">
        <ele>1065.12</ele>
        <time>2020-07-22T13:35:06.378Z</time>
      </trkpt>
      <trkpt lat="46.45682" lon="7.44247">
        <ele>1065.12</ele>
        <time>2020-07-22T13:35:31.988Z</time>
      </trkpt>
      <trkpt lat="46.45665" lon="7.4425">
        <ele>1064.88</ele>
        <time>2020-07-22T13:35:37.649Z</time>
      </trkpt>
      <trkpt lat="46.45657" lon="7.44253">
        <ele>1064.91</ele>
        <time>2020-07-22T13:35:45.592Z</time>
      </trkpt>
      <trkpt lat="46.45646" lon="7.44258">
        <ele>1064.98</ele>
        <time>2020-07-22T13:35:56.935Z</time>
      </trkpt>
      <trkpt lat="46.45638" lon="7.44262">
        <ele>1064.71</ele>
        <time>2020-07-22T13:35:59.217Z</time>
      </trkpt>
      <trkpt lat="46.4563" lon="7.44265">
        <ele>1064.63</ele>
        <time>2020-07-22T13:36:02.106Z</time>
      </trkpt>
      <trkpt lat="46.45628" lon="7.44266">
        <ele>1064.6</ele>
        <time>2020-07-22T13:36:02.804Z</time>
      </trkpt>
      <trkpt lat="46.45621" lon="7.44267">
        <ele>1064.59</ele>
        <time>2020-07-22T13:36:09.201Z</time>
      </trkpt>
    </trkseg>
  </trk>
</gpx>